GFSNGP_sfc_dewp_000.txt.gz
Dewpoint
24 20 18 16 11 11 14 18 23 24 24 28 31 30 30 29 35 45 53 56 58 59 65 68 68 68 68 66 67 67 68 68 71 73 73 72 70 67 66 66 67 64 64 63
31 25 23 19 18 13 11 13 16 18 22 24 28 30 30 30 31 45 53 55 58 61 63 65 66 67 68 68 68 69 70 70 72 75 73 70 70 69 69 68 66 64 63 64
33 29 27 25 24 19 16 13 16 17 22 23 25 29 33 33 41 45 52 55 58 60 62 65 66 68 68 69 69 70 71 72 73 74 71 70 69 69 68 67 67 65 64 64
33 36 30 25 26 23 19 15 17 23 26 26 30 35 40 42 39 45 52 54 58 57 61 65 64 64 67 68 70 71 72 72 73 73 70 70 69 69 68 65 65 65 65 65
32 31 32 31 33 25 23 21 18 25 29 29 32 41 48 49 49 50 53 56 58 58 62 65 63 65 66 67 69 70 71 72 72 71 69 69 69 68 68 66 65 65 66 66
36 32 31 41 45 47 46 34 26 24 31 31 39 36 30 52 48 49 53 56 58 59 62 62 63 63 65 66 68 69 71 71 71 70 70 69 69 69 69 68 66 63 65 66
34 35 36 47 46 47 40 34 29 39 42 43 43 46 54 54 54 55 58 60 60 60 60 63 63 64 65 66 67 69 71 71 70 71 71 71 70 69 68 67 67 67 66 67
37 38 35 48 45 46 51 52 50 50 50 50 54 55 56 57 58 59 58 57 57 60 64 65 65 66 67 68 70 71 72 70 71 70 69 69 70 69 68 68 67 66 69 68
39 36 50 49 51 52 52 52 51 52 52 52 52 53 54 55 55 55 55 55 56 61 65 67 69 68 69 73 73 72 71 70 70 70 69 69 69 67 66 66 63 66 66 64
46 47 49 50 50 50 50 49 50 51 49 50 51 51 53 54 56 59 60 60 59 61 64 68 70 70 72 72 72 72 71 70 70 70 69 69 67 67 67 66 64 67 65 63
46 50 47 49 49 49 48 50 51 51 51 52 55 57 60 61 61 61 62 62 62 63 66 68 70 70 70 70 71 70 70 69 69 68 67 68 65 60 65 62 58 59 59 59
42 51 52 48 47 46 46 46 48 49 49 50 52 54 58 60 62 64 64 65 65 66 68 69 69 70 70 70 70 69 67 66 65 65 66 66 63 61 45 45 46 45 45 54
49 49 48 48 46 43 44 44 44 44 46 47 48 48 50 54 57 57 61 62 65 65 67 68 69 69 70 70 69 68 66 67 64 61 60 61 61 59 57 49 43 41 41 42
47 48 46 49 49 47 44 42 43 43 43 43 43 44 45 47 49 53 56 58 59 63 65 66 66 67 68 68 68 67 65 58 61 60 59 58 59 59 58 57 55 53 44 45
49 48 44 45 50 48 44 42 42 44 43 44 46 47 48 49 48 49 52 54 55 58 61 65 65 66 66 65 65 63 60 59 58 57 56 56 57 56 56 56 55 55 49 44
49 50 49 49 49 47 47 44 43 44 44 46 47 49 51 51 50 50 52 54 53 53 60 62 65 65 65 62 60 57 58 58 56 56 58 58 58 56 56 55 54 55 52 51
47 46 48 49 49 49 47 47 45 45 46 47 48 50 52 52 53 55 56 57 60 61 62 63 65 66 64 61 60 56 56 58 57 57 56 55 54 53 52 52 52 51 51 51
51 51 51 51 45 45 46 46 46 47 47 47 47 49 52 54 57 58 59 60 61 63 63 64 65 65 63 62 59 57 56 54 53 52 53 54 54 55 54 52 51 50 50 51
49 48 45 45 46 47 46 46 47 48 49 48 48 50 53 56 58 58 59 59 60 61 61 64 61 62 63 62 58 54 53 53 54 54 54 54 55 53 53 52 51 52 52 52
44 43 42 43 44 46 47 47 46 46 49 50 50 51 53 55 57 57 60 60 60 60 61 61 61 61 60 59 58 55 53 52 52 51 52 50 49 50 51 50 51 52 52 52
43 43 42 43 44 46 47 49 47 49 51 52 52 53 53 55 55 55 54 53 59 60 59 58 58 57 56 55 52 51 50 51 51 51 50 49 49 48 48 48 48 48 47 47
45 44 44 44 43 45 49 50 50 51 52 52 52 52 51 52 53 55 56 54 56 54 56 52 52 54 52 54 48 47 46 47 47 47 47 46 45 45 45 44 43 43 43 44
47 47 45 46 47 47 47 48 50 52 53 54 53 51 48 45 46 47 52 54 56 52 51 49 51 52 52 46 43 42 42 43 43 43 42 41 41 41 41 41 40 40 39 40
48 48 49 49 46 45 47 49 48 50 52 51 50 51 46 38 43 44 49 51 53 51 51 50 49 51 49 43 43 42 41 42 41 40 39 37 34 36 38 40 40 40 39 39
50 48 49 48 42 41 46 48 46 42 45 49 48 47 47 44 43 42 45 47 51 51 51 52 52 51 46 44 44 43 43 41 40 40 39 40 38 36 35 36 39 40 39 38
45 42 43 47 44 41 39 39 38 38 39 39 40 40 41 41 43 42 44 46 45 48 44 47 51 51 49 46 44 44 43 42 41 41 39 39 38 38 36 35 35 35 35 35
39 38 38 38 37 38 38 40 39 39 40 40 39 40 41 40 41 41 43 41 41 41 41 42 42 45 44 42 42 43 42 42 41 41 40 39 39 39 37 36 35 36 35 36

GFSNGP_sfc_dewp_003.txt.gz
Dewpoint
23 22 20 14 8 8 11 16 19 22 24 28 32 32 31 30 33 34 36 47 53 54 61 63 63 65 65 63 65 64 69 69 73 76 75 75 76 77 75 73 71 69 68 67
25 21 19 18 16 10 10 10 14 17 20 24 28 33 31 31 33 33 34 36 52 57 59 65 65 67 67 67 67 68 72 71 74 77 76 76 76 75 73 72 70 68 66 65
33 29 28 24 21 20 19 16 13 14 20 22 26 31 34 32 32 35 39 40 47 56 60 63 64 68 68 70 69 71 74 74 76 78 76 75 74 74 72 71 70 68 65 66
30 34 29 28 32 26 23 22 20 20 20 22 30 35 35 31 32 37 40 41 44 52 59 65 62 63 67 68 73 74 75 75 76 77 75 73 72 72 72 71 70 68 66 67
32 31 38 34 39 38 40 35 27 25 23 19 24 25 34 33 32 36 37 40 46 55 59 68 66 69 70 70 72 73 73 75 76 76 74 72 71 71 71 71 71 68 66 68
36 32 30 31 42 43 40 34 31 30 29 20 23 26 29 34 40 45 46 43 51 57 61 65 68 66 69 68 70 72 73 74 76 75 74 71 71 71 72 72 70 65 65 67
32 33 31 44 43 43 36 38 51 49 47 40 25 32 51 52 49 50 49 56 60 61 66 68 68 66 69 69 69 70 71 72 74 73 72 71 72 72 71 71 69 67 66 67
32 32 30 45 42 40 51 51 51 51 50 50 33 47 53 54 54 54 54 58 59 63 65 66 68 69 70 71 72 74 73 73 72 72 70 70 72 70 70 70 69 68 69 68
31 34 51 50 50 51 51 51 51 51 49 49 51 53 55 57 59 59 59 60 59 60 65 66 70 70 72 75 75 74 74 73 72 72 72 72 71 70 69 69 65 65 65 63
40 48 49 49 50 49 49 49 50 51 52 52 54 54 54 54 54 54 56 59 60 62 65 68 70 69 72 73 74 74 72 71 71 71 70 71 69 68 66 65 64 63 63 65
47 50 49 49 50 50 50 50 50 54 54 57 56 56 58 60 61 59 59 60 61 64 66 68 70 72 71 72 73 71 71 70 72 70 70 69 66 64 68 68 65 63 62 65
42 50 50 48 47 47 47 47 48 49 51 54 56 58 60 61 61 61 62 63 64 65 67 69 70 70 71 72 72 71 70 70 69 68 69 68 63 59 47 48 47 47 45 53
50 49 47 46 46 45 44 42 42 42 45 46 47 47 49 53 57 57 61 62 62 63 65 68 69 70 71 72 72 71 69 69 67 64 65 65 65 63 61 51 44 42 42 44
50 50 50 49 49 47 48 44 44 42 43 45 45 46 47 47 48 53 58 60 62 63 66 67 67 68 70 71 72 69 67 60 63 62 60 61 60 59 56 57 56 55 45 46
46 48 48 50 52 53 52 50 43 43 45 47 47 48 49 48 49 49 50 52 53 56 61 63 66 66 67 67 67 67 64 60 60 58 57 56 56 56 54 54 54 56 51 47
48 49 49 48 47 49 51 50 48 46 46 47 49 50 52 52 52 51 50 52 52 52 57 60 64 65 65 65 64 61 60 59 57 56 56 56 55 54 52 52 51 56 54 52
47 48 49 51 50 49 49 49 45 50 47 47 51 51 52 53 54 56 56 54 56 56 58 60 64 68 65 63 60 56 55 56 57 56 54 54 53 51 50 49 48 48 52 53
49 48 50 49 51 51 47 47 47 46 47 46 47 51 53 55 57 57 56 56 60 59 60 61 65 65 65 61 59 56 55 55 54 53 52 52 52 52 51 49 48 48 53 51
49 49 49 47 44 45 45 45 46 47 47 47 48 50 52 53 54 55 57 58 60 61 63 65 62 63 66 64 59 56 55 52 52 51 51 53 52 52 50 50 49 52 53 53
47 46 45 42 43 45 46 46 46 47 48 49 49 50 54 52 54 58 60 60 62 63 64 63 63 63 63 61 59 54 54 52 54 53 53 51 49 49 49 49 49 50 51 54
42 42 42 42 43 45 46 47 47 50 52 50 54 55 56 56 52 57 58 57 61 61 60 60 59 59 57 56 55 53 53 53 53 54 52 49 47 46 47 47 48 48 51 50
43 42 42 42 43 45 49 48 49 50 51 52 51 51 54 51 56 54 55 58 55 56 57 57 55 55 54 55 53 55 54 51 49 49 47 46 46 45 44 45 46 46 43 43
44 43 43 44 45 47 45 47 49 50 52 51 53 49 46 44 47 54 55 55 53 51 52 49 51 52 52 48 46 45 45 46 44 44 43 42 42 41 41 41 40 40 39 39
46 47 48 46 46 49 49 46 45 47 47 53 47 47 45 38 49 41 49 50 52 51 49 48 47 50 49 44 43 42 41 42 40 39 39 39 36 34 34 37 38 39 40 38
47 49 47 49 48 47 47 45 51 44 46 51 51 50 47 47 43 40 41 46 50 48 51 50 50 49 44 43 42 42 41 40 40 40 39 39 38 38 36 35 35 38 39 38
46 44 43 46 42 41 40 40 38 41 38 41 41 40 39 39 41 41 51 46 43 46 41 48 49 48 46 43 42 42 43 42 41 40 39 38 38 39 38 37 36 36 35 35
40 39 39 38 36 36 36 37 37 37 38 38 38 38 38 40 41 40 42 41 42 42 42 41 45 48 45 43 42 44 42 42 40 40 40 40 40 39 38 38 38 37 36 36

GFSNGP_sfc_dewp_006.txt.gz
Dewpoint
20 19 19 19 15 14 17 20 20 19 22 32 34 39 38 38 43 45 49 54 56 58 61 61 62 64 64 64 65 66 70 72 73 75 75 75 75 75 75 76 75 75 73 71
26 21 20 20 19 14 13 16 18 18 20 23 30 33 43 39 42 43 45 46 56 59 63 66 63 64 63 63 64 66 69 70 72 74 75 75 75 76 76 76 75 75 71 69
29 24 23 22 23 20 18 13 15 17 23 28 28 35 39 46 42 43 44 46 53 60 61 63 64 64 63 64 65 66 69 71 72 74 75 75 75 76 76 76 75 73 70 68
30 32 26 24 23 20 20 21 17 20 25 27 31 33 35 35 39 43 45 44 47 40 60 65 63 62 64 65 68 68 73 72 73 75 75 75 75 75 76 74 73 72 70 67
32 31 31 28 28 29 27 28 29 26 31 24 27 28 33 32 34 39 39 50 48 41 50 66 65 66 68 67 67 72 71 74 74 77 76 76 75 75 74 73 72 71 69 67
34 30 31 36 39 40 38 35 44 45 44 41 36 25 27 37 36 34 33 38 54 54 55 66 68 66 68 69 69 69 72 74 77 77 77 75 74 73 72 72 72 71 68 68
33 31 29 42 41 40 37 39 49 48 48 47 45 48 53 54 59 57 43 48 58 65 65 69 69 68 69 70 71 71 75 75 77 77 76 74 72 72 72 72 73 70 67 67
36 37 36 42 45 41 49 49 48 48 48 49 52 51 50 50 55 57 57 54 60 69 71 72 71 72 73 73 75 76 76 76 77 75 72 71 72 72 72 71 69 69 68 68
32 33 45 49 52 51 49 50 52 54 50 48 47 48 52 54 56 58 57 62 62 68 72 73 75 73 73 75 75 75 75 76 75 73 71 71 72 70 69 70 68 67 67 69
36 40 46 48 47 48 50 55 56 58 59 60 55 53 54 56 58 62 63 65 66 67 69 71 73 73 75 75 75 75 75 73 72 71 72 73 72 70 68 68 67 66 69 69
40 52 51 51 50 51 52 53 54 55 55 57 60 61 61 63 64 64 66 68 69 70 71 72 75 74 74 75 75 73 72 71 70 70 70 70 63 62 67 59 60 69 71 69
52 52 52 52 51 49 48 48 49 51 52 57 58 59 61 63 64 63 65 66 67 70 71 71 73 73 74 75 74 72 70 70 70 70 69 66 61 57 46 47 45 46 47 57
51 54 46 46 44 44 45 44 44 45 48 49 55 59 58 60 61 61 63 66 68 69 70 71 71 71 73 74 73 72 70 71 69 68 69 66 64 62 57 50 44 43 43 44
54 53 48 47 47 45 45 45 46 46 46 47 47 49 50 56 56 57 59 63 65 66 68 69 69 70 72 72 72 71 70 62 68 67 67 67 67 65 63 59 57 54 45 46
53 50 49 50 51 50 49 47 46 44 46 48 50 50 50 52 51 55 57 56 60 63 66 68 69 70 71 71 71 71 68 67 66 65 68 66 66 63 61 60 59 54 51 47
50 48 48 49 48 50 51 50 50 51 51 47 48 53 53 54 56 57 59 59 60 61 66 67 67 69 69 69 69 67 67 62 62 60 60 61 60 58 57 59 57 55 53 51
48 48 47 49 50 49 50 51 51 48 51 53 50 53 57 57 58 58 58 57 61 62 63 66 67 69 69 68 68 64 60 60 59 59 59 57 56 55 54 53 55 56 54 52
50 50 50 50 48 47 48 50 52 52 44 48 53 54 55 56 58 59 61 62 62 63 63 67 68 69 65 66 66 60 58 58 59 57 57 58 57 56 54 51 52 54 56 50
51 52 51 50 47 46 45 48 51 52 52 52 53 56 56 57 58 61 61 62 61 62 63 66 63 65 66 64 63 60 58 53 58 56 56 54 53 53 51 51 51 53 52 50
46 47 47 47 44 44 47 50 49 51 50 53 55 55 56 56 58 60 61 61 62 65 66 64 66 65 64 63 60 59 60 56 56 56 55 55 54 55 52 48 50 51 53 54
45 43 44 46 48 49 49 48 50 51 54 53 55 56 56 57 59 59 59 60 61 60 62 61 64 64 64 62 58 60 59 59 57 56 56 55 52 49 50 49 51 50 49 51
43 44 45 46 48 50 51 52 53 53 54 54 55 54 55 56 57 58 59 59 57 53 54 56 51 54 56 55 54 56 59 58 56 54 54 53 53 51 49 50 49 51 50 50
47 47 48 49 50 48 48 49 50 50 54 53 52 53 51 47 51 51 50 55 51 50 49 47 53 52 50 48 48 51 55 55 54 49 45 46 45 44 44 44 43 46 47 46
49 50 48 52 49 51 51 52 49 51 52 51 50 50 49 41 43 50 52 49 50 50 49 49 48 50 48 44 44 44 42 43 42 41 40 40 40 39 38 39 38 40 43 42
51 51 48 50 46 43 48 47 46 48 50 51 50 50 51 49 47 43 45 47 48 47 49 48 48 48 43 42 42 42 46 42 43 42 41 41 39 39 40 39 37 39 40 42
50 44 41 48 42 38 37 41 43 39 39 43 44 42 43 49 46 45 46 48 47 47 43 49 49 47 46 45 42 41 42 42 43 44 42 43 40 39 38 42 39 38 40 37
41 39 38 36 34 33 33 35 37 34 38 37 37 38 39 41 43 41 42 42 42 43 45 46 46 49 45 44 45 45 47 47 47 48 43 42 43 45 42 42 45 43 40 40

GFSNGP_sfc_dewp_009.txt.gz
Dewpoint
19 20 18 14 18 14 13 10 11 11 11 16 20 38 41 39 43 42 44 52 52 53 54 58 60 62 63 65 67 71 72 73 72 73 73 74 74 74 72 73 73 72 70 70
27 22 18 16 18 20 12 12 14 14 15 23 23 24 43 40 37 34 47 54 54 55 54 56 58 61 62 64 66 68 71 72 72 72 73 73 74 74 74 72 73 73 71 70
22 26 25 20 17 19 22 16 15 15 15 21 23 27 37 40 41 32 40 49 52 54 61 56 58 60 62 64 65 66 69 71 71 71 72 72 73 73 74 73 74 74 71 70
23 29 26 27 27 25 24 27 21 21 24 29 29 33 37 34 33 33 37 44 51 54 58 64 59 60 61 63 65 66 67 69 70 71 71 73 73 73 74 74 74 72 70 69
26 26 27 29 28 28 25 25 35 44 45 40 39 33 30 35 38 31 35 35 43 50 57 61 62 61 60 61 63 64 65 67 69 70 72 73 73 73 74 74 72 71 70 67
27 25 24 29 36 40 38 37 49 49 49 47 46 40 36 50 51 45 42 39 38 49 50 62 62 61 61 61 62 62 63 66 69 70 72 74 73 74 73 72 71 71 69 67
34 25 32 43 45 42 36 43 49 48 48 49 47 50 51 51 54 55 54 51 43 49 54 62 64 62 61 61 61 64 63 71 73 74 74 74 73 71 71 70 71 70 69 66
36 34 32 48 45 42 51 52 55 56 56 50 50 51 50 52 51 55 61 52 67 61 64 68 67 66 65 62 65 72 73 76 76 74 73 72 70 70 70 70 69 67 66 65
33 39 50 51 49 54 55 57 58 59 60 60 60 61 61 57 57 57 62 66 68 70 72 73 71 69 71 74 74 74 76 75 72 72 71 70 70 69 69 67 66 66 65 65
44 37 46 50 49 59 59 57 55 58 59 58 58 59 60 61 64 65 65 67 69 70 70 71 73 73 73 73 74 75 74 72 70 70 70 70 69 68 68 68 67 66 65 65
48 50 52 55 57 55 56 55 54 55 56 57 56 57 58 58 60 63 67 69 70 70 72 72 72 73 73 73 74 72 71 70 70 70 70 61 55 57 62 54 61 66 66 65
48 52 52 52 51 52 52 51 51 51 55 56 56 56 57 57 58 60 61 64 69 70 71 72 73 73 73 72 71 70 69 69 69 69 62 59 57 53 45 46 45 45 51 59
52 52 51 48 47 47 47 47 48 49 51 53 55 56 57 57 58 58 59 59 66 69 70 70 71 71 72 71 70 69 69 69 68 65 63 62 59 57 52 48 45 43 43 49
53 52 51 50 49 48 46 46 47 49 50 51 52 52 53 56 57 58 59 60 65 68 69 68 68 70 71 71 70 69 69 63 68 67 65 63 63 60 56 55 54 51 44 44
53 54 54 54 52 50 50 49 49 49 47 47 54 55 55 54 54 58 61 60 62 65 68 69 69 69 70 70 70 69 68 68 68 68 67 65 65 63 59 57 55 51 47 45
54 52 50 50 52 53 51 50 50 50 51 51 51 55 57 57 57 57 58 59 61 62 64 66 68 69 70 70 69 69 68 64 65 67 66 66 65 65 62 60 54 52 52 49
50 49 50 49 49 50 51 50 49 50 52 52 54 55 54 52 56 59 59 60 61 62 64 65 64 66 67 67 66 65 65 63 62 63 64 63 62 59 60 59 54 54 53 50
51 50 50 50 49 50 50 52 54 52 50 52 55 54 54 55 56 57 60 61 61 62 63 63 63 65 63 63 61 63 63 61 61 60 61 60 58 57 55 57 56 54 54 49
53 52 52 49 45 46 49 50 51 54 54 53 55 55 56 56 56 58 59 59 60 59 61 63 63 64 63 62 61 61 60 60 60 59 59 57 55 53 52 55 54 54 52 49
50 51 49 49 49 48 50 51 51 51 54 53 53 54 54 55 57 57 59 59 58 60 61 61 63 62 60 60 61 61 60 60 59 57 57 55 54 54 53 52 54 52 51 50
50 50 51 50 51 52 52 52 52 52 53 54 53 53 54 55 56 57 56 56 57 56 59 57 56 60 60 59 59 60 60 60 60 58 57 56 55 52 52 53 52 55 53 52
47 48 50 50 50 49 50 52 52 52 50 51 52 52 53 54 55 55 55 53 53 52 55 48 49 54 54 56 57 58 58 58 57 56 56 54 53 52 49 51 49 49 52 53
50 50 49 48 51 51 51 51 49 52 52 53 51 50 51 52 53 51 49 51 51 48 47 45 50 50 52 54 51 54 55 55 54 52 53 51 49 46 44 44 45 46 47 48
49 50 49 46 45 46 45 47 45 49 49 49 46 49 48 46 49 51 50 49 49 51 48 46 46 49 50 46 45 46 53 52 45 43 42 42 41 39 38 36 38 40 43 41
51 48 43 42 41 45 46 47 43 43 48 46 44 46 46 48 47 48 50 49 49 47 49 48 49 48 46 47 47 45 47 45 43 44 44 43 42 41 41 40 38 38 40 40
44 40 39 39 36 36 36 38 38 41 41 40 42 43 45 44 41 40 43 46 45 46 48 51 50 48 46 47 48 48 50 50 50 50 46 45 43 41 40 41 41 38 38 37
37 37 34 33 32 33 35 36 34 39 40 41 42 43 43 40 39 38 39 36 38 39 43 45 46 46 46 46 46 46 48 49 48 50 50 49 49 50 49 49 49 49 44 44

GFSNGP_sfc_dewp_012.txt.gz
Dewpoint
24 19 15 15 16 15 11 9 8 9 10 12 15 20 21 27 40 40 40 48 46 50 53 58 61 62 64 67 69 71 71 72 72 73 73 74 73 72 71 73 71 70 68 69
27 24 16 15 18 17 17 13 11 11 10 13 14 20 28 33 39 40 41 48 50 50 54 58 60 62 63 66 70 71 71 72 72 73 73 73 74 73 72 73 73 70 69 68
25 25 18 18 17 17 16 17 15 12 13 19 20 24 26 27 31 38 43 50 52 51 55 56 60 61 62 65 68 71 71 72 73 73 73 73 73 74 73 72 72 72 70 70
26 27 20 22 21 20 19 22 21 15 18 20 20 20 29 34 33 37 36 44 51 53 53 57 59 61 62 64 66 69 70 71 73 73 72 73 73 73 74 73 73 72 71 70
27 27 24 27 29 24 20 23 38 27 32 26 27 28 31 37 33 33 38 40 43 52 57 57 58 61 62 63 65 66 68 70 71 72 72 73 72 73 73 74 73 73 72 70
27 26 24 24 36 38 35 43 48 49 46 42 37 26 35 47 51 37 37 37 40 42 55 61 57 59 61 62 64 65 66 68 71 71 71 71 72 73 74 74 74 72 71 70
29 31 29 44 46 41 32 35 48 49 48 46 46 44 46 50 52 53 51 45 41 40 44 56 62 59 59 61 62 64 65 66 69 71 71 72 73 74 74 73 72 71 69 67
34 37 36 38 44 36 44 57 58 59 58 59 60 61 59 56 53 53 50 51 61 46 47 50 59 60 59 60 62 63 65 65 67 70 71 74 73 73 73 71 71 69 68 66
36 42 42 42 51 57 57 56 58 59 59 60 60 59 61 62 65 65 66 66 68 67 63 69 63 61 60 60 61 63 64 67 69 71 73 73 72 71 70 70 69 67 66 64
42 44 49 56 58 56 56 57 57 57 57 58 57 58 58 59 61 61 62 62 62 64 69 69 70 67 62 63 64 66 71 73 73 72 71 71 71 70 69 68 67 65 65 65
44 47 50 52 56 56 54 54 55 56 57 57 56 57 57 57 58 59 60 60 60 58 58 57 70 73 73 72 73 73 72 72 71 70 70 65 58 64 67 64 65 65 65 65
47 50 51 50 55 56 53 52 52 53 54 56 57 57 57 56 57 58 59 59 57 56 56 57 58 65 73 74 73 71 70 70 69 64 62 60 59 55 47 46 47 52 55 61
51 51 51 52 50 51 49 49 51 51 51 51 55 56 56 55 56 57 59 60 61 61 58 58 63 61 69 71 71 70 70 69 65 64 64 63 62 58 53 49 45 45 47 50
53 53 50 51 51 52 51 51 50 51 54 55 54 53 54 56 57 58 59 61 65 64 65 66 65 65 68 69 69 69 68 60 65 64 62 62 61 59 56 56 56 53 44 44
53 53 52 53 53 51 51 50 50 51 52 53 53 55 55 54 55 59 61 62 63 64 65 67 67 68 69 69 68 68 68 67 65 64 63 62 61 59 57 56 55 50 48 45
51 51 52 52 53 52 51 49 49 51 53 54 51 49 53 57 59 59 59 61 62 62 63 64 65 66 68 69 67 67 66 64 66 65 64 64 62 60 59 56 53 51 53 50
49 49 49 49 50 51 51 53 51 50 52 53 53 54 53 51 52 55 57 59 57 60 62 62 62 63 63 62 64 63 63 63 63 65 65 65 64 62 61 58 56 54 54 50
51 51 52 51 50 51 52 52 52 52 52 53 54 54 54 55 54 53 54 56 54 53 58 62 62 62 62 62 62 63 62 62 63 63 63 63 63 63 62 59 57 55 53 47
53 53 52 49 48 49 49 51 51 52 53 54 53 53 55 55 56 57 58 57 56 55 56 60 61 60 60 62 62 62 62 61 60 60 60 59 59 59 61 59 57 56 53 49
51 51 50 50 51 49 52 51 53 52 52 52 52 53 53 54 56 56 55 55 56 58 59 59 60 60 59 60 60 61 60 59 59 58 58 58 58 57 57 54 55 54 51 50
52 51 51 51 51 52 52 51 49 49 51 50 53 53 53 53 55 54 52 53 54 51 51 53 56 56 58 59 59 59 59 58 58 58 57 56 56 56 55 53 53 53 51 50
51 51 52 50 50 50 50 51 50 49 48 47 48 52 52 51 50 49 50 50 49 50 48 47 49 54 55 57 57 58 58 58 58 58 57 56 54 53 50 52 53 53 52 52
49 48 45 44 43 44 44 46 47 45 44 45 44 44 48 53 50 45 44 49 48 48 44 44 49 50 50 49 51 55 56 55 54 53 52 50 49 44 45 47 49 50 52 54
42 37 37 37 38 41 40 42 43 44 41 42 44 42 42 44 43 46 47 47 47 48 46 49 49 49 48 47 47 47 49 49 49 50 49 46 45 40 39 40 41 43 43 48
43 31 31 32 33 34 34 38 39 40 39 42 42 41 39 38 37 36 37 39 43 49 49 49 49 49 48 49 49 49 49 50 49 47 46 43 41 39 38 37 37 38 41 42
31 30 30 29 31 33 33 34 37 38 40 41 41 40 38 36 35 33 33 35 36 43 46 46 46 46 46 47 48 48 49 49 50 49 48 49 49 49 48 46 44 40 41 40
31 33 29 30 30 32 35 36 37 37 38 37 37 37 38 37 37 37 38 34 35 34 34 34 37 42 43 43 43 46 47 47 46 48 47 47 47 46 46 46 47 46 45 44

GFSNGP_sfc_dewp_015.txt.gz
Dewpoint
27 26 25 22 16 14 13 13 12 12 10 11 19 21 21 22 28 42 43 45 46 48 50 54 56 59 63 64 67 67 68 69 69 70 71 71 71 70 70 71 70 69 69 69
25 25 25 23 18 17 14 14 13 12 12 15 16 20 19 18 24 31 39 41 43 45 47 52 55 59 61 65 66 68 68 69 70 71 72 72 72 71 70 70 71 70 69 68
24 25 25 21 19 18 15 16 14 12 13 15 14 16 17 18 26 31 31 38 43 47 47 52 56 59 61 64 66 69 69 69 70 70 72 72 72 72 71 70 71 70 69 69
25 27 22 21 25 19 18 19 19 16 18 21 18 17 21 23 24 29 34 40 47 48 48 52 57 59 60 63 66 68 69 69 70 71 71 72 73 72 72 71 72 70 69 68
24 26 27 25 30 28 18 19 28 20 21 21 23 25 24 30 33 32 35 38 46 52 52 54 57 60 61 62 65 68 69 69 70 71 72 72 72 73 73 72 72 72 71 70
26 25 24 29 40 45 42 19 47 39 28 24 26 20 22 42 45 36 33 36 44 53 55 55 57 59 61 62 64 67 69 69 70 72 72 72 72 72 74 74 73 72 72 71
27 26 30 41 52 48 32 24 47 47 46 38 28 27 35 48 49 53 45 47 44 41 53 56 57 60 61 61 62 65 68 69 70 71 72 72 73 73 74 74 73 73 72 72
30 32 32 51 51 49 52 56 56 55 57 57 58 60 62 63 64 64 64 65 68 67 63 58 54 58 60 61 63 64 65 67 69 70 72 72 73 73 74 73 72 72 72 68
35 38 44 49 51 57 56 56 58 57 59 59 59 60 60 60 61 60 59 58 58 58 61 61 68 64 59 59 62 63 64 65 66 69 72 72 73 73 73 73 72 71 68 67
41 42 49 52 53 55 56 55 56 57 57 58 58 58 58 58 58 58 58 56 55 53 53 53 58 62 64 67 62 62 63 64 66 69 70 72 73 73 73 72 71 69 67 66
44 46 50 53 53 55 55 53 54 56 57 57 56 56 55 55 56 57 57 57 56 55 55 54 57 58 58 57 60 62 64 66 68 70 72 70 62 69 72 68 68 68 67 66
40 49 49 51 54 53 52 53 51 55 55 56 56 55 55 56 56 57 58 58 58 58 56 55 58 63 62 60 60 66 69 71 71 71 63 61 60 57 50 54 55 54 55 62
50 51 52 53 53 53 52 52 56 54 53 54 54 56 56 56 57 58 60 61 61 61 62 61 62 63 62 62 61 59 69 71 67 63 64 65 66 64 60 56 48 45 49 52
52 52 51 52 52 53 54 53 53 52 53 54 54 55 57 58 59 60 60 61 63 63 64 65 66 61 60 61 63 61 58 57 66 66 66 66 65 64 61 62 62 58 46 46
53 52 51 52 53 53 53 54 52 52 51 51 55 57 57 56 56 57 59 61 62 62 62 62 63 64 62 64 66 65 61 63 64 65 64 61 61 60 60 61 59 52 50 47
52 52 51 51 51 51 50 51 52 52 52 53 52 50 51 54 55 54 54 56 60 61 61 60 59 61 65 66 66 65 64 61 63 63 61 61 60 59 58 58 56 55 55 52
49 49 49 49 50 50 51 51 52 52 53 53 53 54 54 51 51 52 53 53 54 59 61 61 60 61 62 64 64 65 65 65 62 63 62 61 60 60 58 56 55 56 55 52
52 51 51 51 49 49 50 51 52 53 52 53 54 54 55 55 54 54 55 56 54 54 58 60 60 60 61 60 61 62 62 63 63 63 63 62 61 61 59 58 57 56 53 47
52 52 51 51 49 49 49 50 51 52 53 53 53 54 55 55 55 54 54 54 55 56 57 59 60 59 60 61 61 61 60 60 60 60 61 58 61 62 60 59 57 55 53 49
54 53 52 52 51 51 53 53 52 51 52 53 53 53 53 53 53 52 52 49 50 50 53 54 56 57 58 60 60 60 59 59 58 58 60 60 59 59 60 56 58 56 53 51
52 52 52 51 51 51 50 48 47 47 50 54 51 51 49 49 50 50 47 45 48 47 48 51 52 54 57 58 59 59 59 59 58 56 57 57 57 58 58 57 58 56 53 52
46 47 50 49 45 44 43 43 44 45 45 47 50 50 48 48 47 47 47 47 46 47 48 48 49 52 53 57 57 58 58 58 57 57 55 54 54 53 54 55 55 54 54 53
35 35 37 39 41 42 40 40 41 42 41 40 41 44 43 44 40 42 43 46 47 48 48 49 51 51 51 49 51 51 53 55 55 56 57 56 56 55 55 55 54 55 56 55
31 32 32 33 34 35 37 39 41 42 40 38 37 35 35 34 34 36 43 47 48 47 47 48 49 50 49 49 49 49 49 49 47 46 47 46 49 49 50 50 49 49 52 53
34 30 31 33 34 35 36 39 40 40 38 38 38 36 36 36 34 36 36 36 40 39 40 43 47 47 46 47 48 48 49 49 48 48 49 49 47 45 44 42 39 41 43 47
30 31 32 33 34 35 37 37 37 38 37 36 36 37 36 36 36 35 35 36 35 36 33 34 36 35 36 38 43 46 47 49 48 47 47 46 46 46 46 45 45 44 44 44
29 32 31 32 34 36 37 37 35 35 36 34 32 32 31 31 34 34 35 33 33 32 31 31 31 34 34 35 36 38 43 46 44 46 47 47 47 46 45 43 43 42 42 41

GFSNGP_sfc_dewp_021.txt.gz
Dewpoint
26 26 25 24 23 22 22 23 22 21 21 24 28 31 32 32 38 40 41 43 48 52 60 62 62 63 64 64 66 67 69 69 70 72 73 73 74 74 74 74 74 74 75 74
25 23 22 23 24 24 23 23 22 21 21 23 28 32 34 33 36 39 42 41 45 51 57 60 62 63 64 65 65 68 69 69 70 72 73 74 74 74 74 74 74 74 74 74
21 24 24 22 23 23 23 24 23 22 25 26 26 30 33 36 38 41 41 43 46 48 54 59 60 63 63 65 67 68 68 70 71 72 73 73 74 74 74 74 74 74 74 74
19 24 19 21 26 30 29 26 24 25 26 27 30 35 38 38 37 40 41 42 47 41 50 61 58 56 63 64 68 69 70 70 71 72 72 73 73 73 74 74 74 74 74 74
15 18 21 22 24 38 40 30 40 44 33 27 27 30 38 36 37 41 42 45 45 43 46 60 61 63 65 65 68 69 69 70 71 72 72 73 73 73 73 74 74 74 74 74
21 13 15 24 29 43 47 33 51 54 54 50 30 26 29 40 37 36 38 40 44 47 51 56 59 58 64 64 67 68 69 70 72 73 73 73 73 74 74 74 73 72 73 74
23 21 20 25 38 51 40 35 53 54 56 57 54 37 45 51 50 58 58 49 48 56 60 62 63 61 65 65 67 67 69 71 72 73 74 74 74 74 74 74 73 74 73 74
24 21 19 27 33 34 50 54 55 56 57 57 59 59 50 58 62 65 65 62 61 64 66 67 65 66 66 68 69 70 71 72 74 74 72 72 75 75 75 74 74 73 73 73
25 21 31 36 42 50 55 55 56 56 57 58 60 59 59 62 63 63 62 63 66 66 66 67 68 69 68 70 69 70 71 73 73 74 74 74 74 74 73 74 72 72 71 71
31 29 33 36 40 46 53 55 56 57 58 58 60 60 61 60 59 58 57 57 57 59 61 63 65 66 67 67 71 71 71 72 73 73 74 75 73 73 73 72 72 71 72 71
35 37 39 37 38 45 52 54 57 56 57 57 58 58 58 58 59 59 59 59 61 63 63 64 65 65 64 65 65 65 68 70 70 70 72 73 74 73 73 74 71 71 72 72
30 38 42 43 47 51 51 55 56 56 58 59 60 59 60 60 61 62 62 64 65 66 66 65 64 64 65 66 65 65 65 63 63 65 67 69 71 74 54 52 56 56 57 67
41 42 44 46 48 49 52 56 57 58 60 60 60 60 59 60 61 60 62 62 62 63 64 66 66 67 67 68 68 66 65 65 65 66 66 66 71 72 70 62 48 51 52 53
42 43 42 45 46 51 56 57 57 59 58 58 59 60 61 61 61 62 62 63 64 64 65 66 66 64 65 68 66 66 65 58 66 63 63 65 67 69 70 65 66 59 50 54
44 43 44 48 50 54 57 58 56 54 53 53 54 56 57 58 59 60 62 62 61 61 61 62 63 64 66 67 66 65 63 64 64 62 62 59 60 59 59 64 66 61 56 53
45 47 47 49 51 53 55 55 53 53 53 53 54 56 56 57 57 57 58 60 60 60 61 62 62 63 66 65 66 65 65 59 62 65 63 63 63 61 59 59 60 61 61 57
45 45 48 50 51 54 54 55 55 54 55 56 56 56 56 55 54 54 55 56 57 58 60 61 63 64 64 65 65 65 64 64 61 64 64 63 62 63 62 60 60 60 61 56
50 51 50 50 52 54 54 55 54 55 54 53 52 50 50 50 51 52 54 53 55 56 57 60 62 64 64 63 64 64 64 64 63 63 63 62 62 62 62 61 61 59 56 53
52 52 51 53 55 55 55 55 55 53 52 50 50 50 50 50 51 51 52 52 53 54 55 59 60 61 62 61 62 61 62 63 62 63 63 59 61 61 61 60 58 57 57 58
48 50 51 52 52 52 52 52 50 49 49 49 49 49 49 50 51 51 51 50 52 52 54 54 57 57 59 60 59 59 60 60 60 62 62 62 62 61 60 56 58 59 60 61
47 47 47 47 47 46 45 47 44 43 45 47 48 49 49 48 48 49 48 46 48 50 50 52 51 51 52 54 54 54 56 56 57 57 57 59 60 60 60 60 60 59 58 58
45 45 45 45 45 44 44 43 43 43 45 46 46 46 46 46 46 43 42 43 42 45 45 46 47 51 50 51 50 51 53 53 52 54 57 57 57 57 58 57 57 56 57 58
42 43 42 40 41 41 41 41 42 42 42 41 42 42 39 38 38 38 37 39 39 42 41 42 46 48 50 49 48 47 48 49 50 50 49 50 50 52 53 52 53 56 56 56
40 41 41 40 40 39 38 39 38 39 40 40 39 39 39 36 35 34 34 37 39 39 39 42 45 46 44 44 45 48 48 48 47 45 45 43 44 44 45 47 48 47 48 48
39 39 40 39 38 36 37 36 36 36 36 37 36 36 35 34 33 33 33 33 37 36 35 42 44 44 41 40 40 40 42 46 47 47 47 45 43 43 43 42 42 43 45 46
35 35 36 38 36 35 34 33 32 32 31 30 29 29 29 29 29 29 29 32 30 33 31 32 34 36 38 38 38 38 38 37 40 43 45 46 46 45 44 43 43 42 42 42
29 34 34 34 33 31 31 32 30 29 29 28 27 27 27 26 27 27 29 26 26 26 27 27 27 30 30 32 34 35 36 36 36 36 36 38 42 43 44 44 44 44 44 44

GFSNGP_sfc_dewp_024.txt.gz
Dewpoint
28 26 25 22 20 21 22 23 22 20 22 24 26 27 29 30 32 32 35 39 43 49 54 59 60 64 67 65 65 65 68 67 72 74 76 76 76 77 77 77 77 77 77 77
28 26 24 23 24 23 22 22 23 23 23 25 27 30 31 31 33 33 34 34 34 40 52 55 59 62 62 67 65 67 70 70 72 75 76 76 77 77 77 77 77 77 76 76
26 25 24 24 25 24 25 25 25 25 28 29 29 30 31 31 31 32 35 37 39 40 44 50 51 59 62 65 66 69 71 72 74 75 76 76 76 77 77 77 77 77 77 77
23 27 24 25 26 26 25 26 26 27 29 30 31 32 33 33 33 34 34 36 40 35 36 42 46 44 59 62 70 70 72 73 74 74 75 76 77 76 77 77 76 76 77 77
21 22 24 23 24 25 27 27 27 29 31 29 31 29 32 32 32 36 38 38 38 37 39 50 48 51 56 62 66 68 72 73 74 74 74 75 76 76 77 76 76 76 76 77
21 20 20 24 23 35 33 31 33 42 42 44 47 37 31 34 31 33 35 38 40 40 43 45 52 52 57 60 64 68 71 71 74 75 75 75 76 77 77 76 76 73 75 76
20 19 20 23 33 43 33 43 49 48 50 52 52 50 55 57 53 51 49 48 49 49 49 53 57 57 59 62 63 67 69 69 72 75 76 76 77 77 76 76 74 76 75 76
20 20 18 21 24 31 45 50 49 50 53 55 57 59 59 60 60 55 53 54 58 54 54 60 64 64 63 69 67 69 70 70 73 75 72 71 77 77 76 76 76 76 76 74
22 20 29 28 31 36 38 42 49 48 48 53 55 58 60 61 59 58 59 61 62 58 63 66 68 68 68 70 70 70 71 72 72 73 73 75 76 76 73 76 72 72 71 71
26 26 30 32 32 34 38 41 42 47 47 52 54 58 61 61 60 61 61 62 63 65 64 67 71 71 72 72 72 72 72 73 73 73 73 74 71 72 71 70 71 70 70 71
32 33 31 31 34 36 38 43 47 47 51 55 57 59 61 61 61 62 62 62 63 64 65 66 67 67 66 67 68 71 72 71 72 71 73 72 74 71 70 73 68 70 70 70
28 32 33 35 36 43 44 45 47 49 52 57 60 60 61 62 63 64 65 66 66 67 67 65 66 67 69 69 69 67 66 62 62 62 64 67 68 71 55 57 53 51 51 62
35 37 37 39 40 42 44 44 45 49 56 60 60 60 61 62 63 62 64 64 65 66 66 68 67 65 67 69 68 68 67 68 65 64 65 64 65 65 65 64 52 52 49 49
39 40 41 39 40 42 45 47 48 53 59 60 62 62 62 62 62 62 63 64 65 65 66 67 66 65 67 67 68 68 67 60 65 63 65 67 68 67 67 68 67 68 58 52
41 41 41 42 42 44 49 52 55 56 56 56 62 62 60 61 61 61 62 61 62 62 63 63 64 66 66 68 67 66 63 63 62 60 60 58 61 61 60 60 62 63 61 55
43 43 43 45 45 46 49 51 50 56 56 58 59 59 59 59 58 58 59 60 59 60 62 64 64 64 66 66 66 65 65 60 60 62 62 62 62 61 59 60 61 62 60 58
42 43 45 47 47 48 51 51 53 56 56 57 58 56 56 55 55 56 57 59 60 61 62 62 64 65 64 65 65 63 63 63 61 63 62 62 62 60 60 59 57 60 62 58
46 47 49 50 50 51 53 56 56 55 54 52 52 53 54 56 56 56 57 58 59 59 60 61 63 63 63 63 62 62 63 62 63 63 62 62 62 62 62 61 62 60 60 59
50 50 52 52 52 53 52 52 53 53 52 51 52 52 53 52 53 54 55 55 55 55 55 58 58 60 60 60 59 58 58 60 61 63 62 60 61 61 61 60 59 59 60 58
48 49 47 47 47 48 48 50 51 51 53 51 50 51 52 52 52 51 51 51 51 50 53 54 56 56 58 57 56 55 56 57 57 58 59 59 60 60 60 56 59 59 60 60
46 47 46 46 46 47 48 50 50 49 51 52 50 48 46 45 46 48 47 43 47 50 49 52 51 50 51 53 53 53 53 55 56 57 57 58 58 58 58 58 58 59 60 60
45 45 45 45 45 44 45 45 46 48 47 46 45 44 45 45 44 42 43 43 42 46 44 44 46 50 50 51 48 48 49 49 51 50 49 52 53 53 54 54 55 55 55 56
42 43 44 45 43 43 42 44 43 43 42 42 43 41 40 37 36 36 36 40 40 43 42 41 46 49 47 45 47 48 48 48 46 46 46 47 46 50 50 49 51 50 50 50
43 42 40 40 41 41 41 41 40 40 40 41 38 39 38 35 34 34 35 38 40 40 38 41 43 46 43 40 40 42 44 47 47 47 46 43 43 43 43 45 47 48 48 47
40 40 40 39 38 36 38 38 36 36 35 36 36 35 34 32 31 31 31 31 36 35 33 39 43 43 36 37 37 37 38 39 40 44 46 47 46 46 45 45 44 44 43 46
36 35 36 38 35 34 33 33 31 31 31 31 30 29 28 28 28 28 29 31 28 32 28 28 28 30 32 33 35 36 37 36 37 36 37 39 40 41 42 42 43 44 45 45
27 33 32 33 32 31 31 31 30 29 29 28 27 27 27 26 26 26 29 23 23 23 23 23 23 26 25 27 29 31 32 33 34 35 36 36 37 37 37 38 37 37 36 37

GFSNGP_sfc_dewp_030.txt.gz
Dewpoint
26 25 23 19 19 19 22 24 23 21 21 29 34 35 35 38 43 44 47 50 53 53 59 61 64 66 67 66 67 67 69 72 73 74 75 75 76 76 77 76 76 76 76 76
31 28 27 25 20 19 18 18 20 20 20 28 35 39 39 41 41 42 45 45 49 54 58 61 66 67 67 67 68 68 70 70 72 74 75 76 76 76 76 76 76 76 76 76
32 32 29 27 25 21 20 19 19 22 28 31 34 36 38 38 37 39 36 38 45 51 55 59 60 69 68 68 69 71 71 71 72 74 74 75 76 76 76 76 77 77 76 76
30 33 29 29 29 27 22 21 21 25 29 34 37 39 38 37 37 39 38 44 51 38 48 57 48 51 63 68 72 71 73 73 75 75 74 75 76 76 77 76 77 76 77 77
29 29 31 29 30 28 27 26 25 26 28 31 32 33 38 35 35 38 44 47 47 42 45 60 54 57 60 62 70 71 70 73 73 75 75 75 76 76 77 77 77 77 77 77
30 28 27 31 29 28 28 27 44 34 29 30 30 28 48 57 56 56 56 58 60 58 57 53 64 56 62 61 67 70 70 71 74 74 75 75 76 77 77 77 77 76 77 77
25 27 29 37 32 30 29 44 49 47 41 38 44 53 55 54 56 58 60 60 61 62 61 68 68 64 69 68 65 69 71 72 74 76 75 75 77 77 77 77 77 77 77 77
25 26 28 32 34 37 46 45 44 46 47 48 49 50 52 53 56 59 61 60 58 62 63 65 68 69 70 72 75 75 75 73 75 77 74 74 77 78 78 77 77 77 77 76
25 26 43 35 35 35 36 39 39 42 40 43 46 48 52 55 58 62 63 63 62 64 67 71 72 75 74 77 78 77 79 77 77 78 77 76 77 77 76 77 76 76 75 75
29 30 32 30 30 31 34 34 38 36 38 46 47 47 49 55 58 63 65 64 63 65 67 73 75 76 76 77 78 78 79 79 79 78 77 77 76 76 75 75 75 75 74 74
30 30 31 30 32 32 32 34 35 36 37 44 45 46 48 54 59 61 65 68 70 70 69 70 71 71 71 73 75 75 77 77 78 76 77 77 76 74 75 75 71 73 73 73
25 34 38 39 36 33 33 33 35 36 39 44 44 48 49 57 61 63 64 66 68 70 68 70 70 70 71 72 73 75 76 74 73 72 73 73 74 74 65 61 57 49 50 62
37 39 40 39 36 35 37 37 34 35 38 41 42 43 46 54 62 61 64 65 66 68 68 68 68 68 69 70 72 73 73 75 68 68 70 74 74 74 73 61 52 51 48 47
38 39 39 40 38 39 39 40 42 41 41 39 40 43 43 53 59 63 64 65 67 68 68 67 68 69 69 71 73 71 70 59 67 67 67 67 66 66 65 66 67 66 56 53
40 39 38 41 41 41 41 41 42 40 40 41 42 50 51 55 59 62 65 66 66 66 66 67 67 68 69 69 70 68 69 66 65 64 64 64 67 67 63 65 65 65 64 57
40 40 40 40 41 41 41 40 40 41 40 42 44 50 52 56 60 63 64 64 64 63 64 65 67 66 69 69 68 65 64 61 62 66 64 66 65 64 63 64 64 63 62 60
41 41 41 42 42 42 41 41 41 41 43 44 49 55 57 59 61 62 62 62 62 62 61 63 65 66 67 67 66 63 63 64 62 63 63 63 63 62 62 62 62 62 61 58
44 43 43 44 44 44 44 46 45 48 49 53 55 57 59 59 59 57 59 60 59 59 59 61 63 62 62 63 63 63 63 62 62 62 62 62 61 60 60 60 60 60 60 59
46 49 49 49 50 50 50 50 51 51 51 51 52 51 52 52 52 52 51 48 49 50 52 59 59 58 58 59 59 59 59 59 59 59 58 58 59 59 59 59 58 57 57 59
46 46 46 47 48 49 49 49 49 48 48 48 47 46 47 49 49 49 48 46 48 46 46 47 50 57 57 57 57 56 58 57 56 56 56 55 55 55 54 51 53 53 54 54
46 46 46 46 46 46 48 48 47 46 47 48 46 45 45 46 46 47 46 46 48 49 44 45 46 49 52 52 51 51 51 52 52 51 51 52 52 51 52 51 51 51 51 51
46 47 47 46 46 45 46 46 47 48 47 46 46 47 47 46 46 46 46 45 47 48 48 46 43 49 51 53 49 49 48 48 48 49 49 48 48 48 48 49 49 49 49 49
42 44 43 45 45 46 45 45 45 45 43 44 45 44 44 44 40 40 41 44 44 42 41 40 46 48 48 44 44 46 48 48 48 48 48 48 48 48 48 48 48 49 49 50
41 41 43 42 40 40 41 41 40 43 43 42 41 40 40 35 33 31 32 36 39 36 32 36 41 44 43 39 39 39 40 43 43 44 43 42 44 44 44 43 44 45 46 45
39 40 40 39 39 38 40 41 38 37 38 39 40 38 34 34 33 29 30 30 36 31 27 37 41 41 33 34 35 35 37 36 38 39 40 41 40 39 39 37 37 38 38 38
35 30 33 39 33 30 30 32 30 30 31 31 30 30 27 28 28 29 30 33 26 30 24 23 24 25 26 27 28 29 31 29 31 34 36 38 39 38 38 38 38 38 38 37
30 31 29 28 28 28 27 28 26 25 25 28 26 26 26 24 24 25 30 24 23 23 23 23 22 27 24 25 26 28 28 29 30 28 29 33 35 35 35 37 39 39 38 38

GFSNGP_sfc_dewp_033.txt.gz
Dewpoint
32 28 26 24 19 19 17 20 19 18 26 30 35 39 42 44 42 44 46 50 52 55 58 60 60 60 61 62 64 66 71 72 72 73 73 73 73 74 73 71 72 72 74 72
34 30 27 26 20 20 18 19 22 19 20 32 38 42 39 41 41 39 46 51 51 54 57 59 61 61 62 62 64 65 68 71 72 73 73 73 73 73 74 74 71 73 73 72
31 33 32 30 29 20 20 20 20 22 24 35 38 37 37 39 38 37 37 38 44 50 55 60 62 63 63 63 64 65 66 68 71 72 73 73 73 73 73 73 74 72 72 74
32 33 29 32 34 32 21 24 20 21 34 37 40 46 46 41 38 37 40 44 45 42 42 50 59 64 64 65 66 65 66 67 68 71 72 73 73 73 73 73 73 74 74 73
31 31 32 32 33 32 28 41 46 46 37 38 49 54 55 56 57 57 57 58 58 57 58 54 51 56 66 67 67 69 66 68 69 71 71 72 73 73 73 73 73 73 74 74
29 32 31 32 35 38 36 42 45 47 47 37 50 51 53 56 58 59 60 59 58 58 58 61 60 59 61 65 66 66 68 71 73 71 72 72 72 73 73 74 74 74 74 75
26 29 37 34 36 43 36 42 43 41 45 49 51 54 54 56 58 61 62 61 59 59 57 59 61 59 58 62 66 68 69 70 72 73 73 73 73 73 74 74 74 74 75 75
27 30 34 35 33 39 43 39 40 41 42 48 49 52 56 57 59 62 65 62 63 63 63 58 60 58 60 64 66 67 69 70 72 73 72 74 75 75 75 75 75 75 75 75
31 36 35 41 37 35 36 37 37 39 38 47 46 47 51 57 58 59 64 67 68 66 65 73 73 71 68 71 72 70 73 71 73 73 75 73 74 76 75 75 75 75 75 75
32 32 32 34 35 34 36 35 35 36 39 45 45 45 45 48 59 60 61 63 66 68 69 70 71 71 71 71 72 73 71 74 74 75 75 74 76 75 75 75 75 75 75 74
28 34 36 36 41 41 37 38 37 37 39 44 45 46 45 46 60 59 59 61 64 65 68 69 70 70 71 71 71 71 72 75 75 75 75 75 74 74 75 72 72 75 75 74
30 33 39 38 40 41 40 39 41 42 41 42 45 44 44 43 57 61 61 62 62 64 67 68 68 67 68 70 70 70 73 73 73 73 75 74 74 68 53 54 51 49 52 58
35 37 37 38 38 40 41 41 41 43 43 44 43 42 43 43 55 60 62 62 63 65 66 66 67 67 68 69 69 69 69 70 70 68 72 72 73 70 60 56 48 47 48 50
39 39 38 37 37 41 42 43 43 43 43 43 44 44 50 53 57 60 61 63 64 66 67 66 66 66 68 69 68 68 67 60 66 66 64 65 66 70 63 62 62 58 50 51
43 41 40 39 39 40 42 43 43 42 42 42 43 46 47 53 54 59 61 63 65 66 66 66 65 65 67 67 65 64 64 64 63 64 65 65 66 64 65 64 63 62 60 55
42 43 41 40 40 40 42 42 42 42 42 42 43 45 52 54 56 60 62 64 63 64 64 64 64 64 67 66 64 64 64 61 63 64 64 64 63 63 63 63 62 60 59 59
44 39 39 39 39 41 42 44 44 44 44 44 44 49 52 55 56 60 62 61 59 57 59 62 62 61 64 65 64 64 63 63 61 62 61 60 60 60 60 60 60 60 59 56
46 47 46 48 47 45 45 46 49 49 51 52 53 54 54 55 55 51 51 53 52 50 47 52 59 59 61 64 62 60 60 61 61 60 59 59 59 59 58 57 56 56 57 56
44 45 45 46 48 50 48 49 49 49 48 50 50 50 49 49 49 48 48 48 47 47 48 50 54 60 61 61 59 58 58 58 58 58 57 56 55 55 55 54 54 54 54 53
43 44 44 45 45 47 47 48 47 46 46 46 46 45 46 47 48 48 48 46 47 48 50 51 54 55 60 61 60 56 55 54 54 54 54 53 53 53 51 49 51 51 51 51
44 44 43 43 45 45 45 47 46 45 46 47 45 45 44 44 44 45 45 44 46 48 49 51 52 50 50 50 52 51 50 50 51 51 50 50 50 50 49 49 49 48 49 48
45 44 44 44 44 44 45 45 45 44 45 44 44 44 44 43 44 44 45 44 45 45 47 49 51 53 51 52 49 48 48 49 49 49 48 48 48 49 49 49 49 48 47 46
45 45 44 44 43 44 44 44 44 44 44 44 44 43 43 44 43 41 41 45 44 43 44 45 48 50 51 51 50 49 50 48 46 46 47 48 47 46 46 46 45 46 47 46
40 43 42 42 41 38 38 42 43 43 42 42 42 44 44 42 42 43 40 40 41 38 36 39 42 44 43 43 44 40 40 46 49 47 44 41 39 38 38 38 39 39 39 37
41 40 39 37 38 41 39 37 34 37 36 38 34 32 33 35 32 31 32 33 37 33 28 38 42 39 32 33 31 30 29 31 38 39 41 41 39 39 38 38 38 37 37 37
40 39 38 37 34 33 32 30 27 28 31 31 30 30 30 30 28 32 32 34 30 32 26 27 30 29 28 30 30 30 30 30 32 33 35 35 35 37 40 39 39 39 38 35
34 34 32 31 32 32 31 29 29 28 30 30 29 31 30 30 30 30 33 28 28 29 29 27 28 30 27 30 31 31 31 32 33 33 33 34 34 34 35 39 38 37 35 33

GFSNGP_sfc_dewp_036.txt.gz
Dewpoint
27 28 30 30 24 23 17 16 15 16 18 20 25 36 35 34 36 43 52 54 55 57 57 59 59 59 63 64 68 70 71 71 71 71 72 72 72 71 70 71 73 69 70 72
25 33 33 27 27 27 17 18 19 19 18 21 30 39 39 42 44 46 52 55 56 57 58 59 59 60 62 63 66 69 70 71 71 72 72 72 73 73 71 71 70 72 71 72
27 32 31 30 31 28 19 19 19 21 21 34 40 50 51 35 37 44 51 55 57 58 58 59 60 60 61 62 64 68 70 70 71 72 73 73 73 73 73 73 72 70 70 72
27 31 28 32 33 36 41 41 41 45 43 48 54 55 56 57 50 50 51 50 48 55 58 61 61 60 61 62 63 64 66 70 71 72 72 73 73 73 73 73 73 73 71 71
27 30 31 34 35 33 36 39 39 41 49 53 53 54 55 57 60 58 56 57 57 57 54 54 62 62 62 62 63 64 65 66 70 71 72 73 72 73 73 73 72 73 73 73
25 30 31 35 36 40 41 37 39 44 51 50 46 52 54 58 63 64 60 58 56 55 58 58 58 62 63 62 63 63 64 66 67 70 71 72 72 72 73 73 73 73 72 73
28 34 35 37 37 37 36 38 39 42 45 48 53 54 56 58 60 65 65 64 63 65 63 58 57 59 62 64 64 65 66 66 68 68 70 71 72 72 72 73 73 73 73 73
34 34 35 42 39 34 35 36 36 41 45 44 43 45 53 58 58 60 63 66 68 70 70 71 68 64 68 67 68 67 69 70 70 70 69 70 71 71 72 72 73 73 73 74
36 38 42 47 45 40 39 37 40 38 42 43 43 41 43 57 57 57 60 62 65 68 69 69 70 70 69 70 71 70 69 69 70 71 72 73 73 72 72 73 72 73 73 74
32 38 35 44 45 42 39 40 40 40 36 43 42 41 40 43 58 58 59 61 63 64 68 68 69 69 69 69 70 70 70 71 71 71 72 73 73 74 73 74 74 74 74 75
30 33 35 39 38 40 38 39 41 42 42 44 40 39 40 41 47 59 60 61 62 64 65 66 67 66 67 68 69 69 70 72 72 72 72 73 66 65 73 74 73 75 75 75
31 35 36 35 37 38 38 38 42 43 42 43 42 41 47 48 50 59 60 61 63 63 65 66 66 66 67 68 69 68 68 71 72 73 73 73 66 59 50 48 49 50 52 57
38 39 38 39 40 39 38 39 43 43 42 42 44 46 50 52 56 58 59 59 60 62 64 65 65 65 66 68 67 66 67 64 70 70 73 72 64 60 57 56 49 46 47 48
44 43 41 41 40 39 40 41 44 44 43 43 42 44 48 51 52 56 58 59 62 63 64 64 64 64 66 66 64 65 64 60 66 66 69 71 64 60 59 58 58 57 52 50
45 45 43 42 42 40 40 41 43 46 45 42 42 43 49 50 50 55 58 60 62 64 64 64 64 63 65 64 63 63 63 64 64 65 64 65 66 64 64 61 59 59 59 55
44 44 41 41 42 40 40 39 41 42 43 45 43 43 47 51 52 55 58 58 57 57 58 61 60 60 62 64 63 63 62 60 61 61 61 62 63 63 62 61 60 59 58 57
42 41 43 41 39 39 40 41 42 44 48 50 51 52 52 53 53 53 53 53 51 49 49 51 54 57 59 63 62 62 61 60 59 60 59 59 59 59 60 60 59 58 55 52
43 44 44 46 48 43 45 49 48 48 48 50 49 49 50 50 47 47 48 49 50 50 49 49 52 58 62 61 60 61 61 60 59 59 58 57 56 56 55 55 54 54 54 52
42 42 43 44 46 46 46 46 45 46 46 48 48 48 49 48 47 46 47 47 47 48 49 52 57 60 61 60 59 59 58 57 56 55 54 53 53 53 53 52 52 52 51 51
43 42 42 43 43 43 44 45 45 44 45 45 44 44 44 45 47 47 46 44 45 47 51 53 54 56 60 60 58 55 55 55 54 53 52 51 51 50 50 48 49 49 49 49
43 43 42 42 42 43 43 44 44 43 44 44 43 43 43 44 44 46 45 44 45 47 52 53 52 52 55 56 56 53 52 51 51 50 50 49 49 48 47 47 46 46 45 45
44 43 43 42 42 42 43 43 43 43 43 42 43 43 42 42 43 44 44 43 45 46 50 51 52 52 52 53 53 52 50 48 48 48 48 48 48 48 47 46 45 45 45 44
44 43 43 43 43 43 44 43 42 41 41 42 41 41 42 43 43 41 40 43 45 46 48 50 49 48 47 47 49 52 51 50 48 46 46 46 46 45 44 43 43 41 39 38
43 44 43 43 43 43 41 42 43 42 43 44 44 43 42 40 41 44 45 44 44 43 46 46 46 46 44 44 41 42 48 48 45 41 40 39 37 37 38 39 37 37 37 37
37 37 39 39 38 37 36 29 28 31 35 32 36 40 40 43 42 43 43 43 43 40 40 43 44 41 38 33 31 32 35 36 35 36 39 39 38 38 38 38 37 36 35 35
34 34 34 30 30 30 28 27 27 30 31 30 30 30 34 34 34 33 37 37 31 34 35 35 35 35 33 32 32 33 34 35 34 33 33 34 36 39 39 38 37 35 33 32
28 32 26 25 27 28 27 28 27 28 30 28 28 28 30 31 30 30 33 28 29 28 28 27 28 33 31 32 32 32 32 32 33 32 33 33 33 34 37 37 35 33 32 32

GFSNGP_sfc_dewp_039.txt.gz
Dewpoint
29 28 27 26 26 27 20 18 15 15 15 15 17 23 36 40 33 30 45 54 55 54 54 57 58 59 63 66 68 68 68 69 70 71 71 70 69 69 71 72 70 69 70 71
25 25 25 25 29 32 31 19 17 17 17 19 36 51 53 45 35 39 48 51 53 54 55 56 58 59 61 65 68 69 69 69 70 70 71 71 71 70 69 70 72 71 69 69
24 28 30 30 32 35 32 39 33 19 29 35 51 55 57 59 45 35 45 50 51 54 55 56 58 58 60 64 67 69 69 69 70 70 70 71 71 71 71 69 70 71 71 70
24 28 29 32 37 36 39 38 40 44 46 51 56 58 59 60 62 54 48 50 53 55 56 57 58 59 60 64 65 68 69 70 70 71 71 71 71 72 72 72 70 70 70 70
25 27 32 35 37 38 35 37 39 42 49 54 57 57 59 59 64 60 56 56 55 57 58 58 59 60 61 63 64 66 68 69 70 71 71 72 71 71 72 72 73 72 71 70
24 33 31 36 41 39 38 35 35 42 43 54 56 55 57 58 61 65 67 63 57 57 60 61 61 60 61 62 62 64 66 68 70 71 71 71 72 72 72 72 72 73 73 73
28 37 36 39 42 36 32 33 37 39 41 42 49 53 57 57 58 62 66 69 69 63 59 57 60 61 60 61 62 62 64 65 68 70 71 72 72 72 72 72 72 72 72 73
37 36 34 41 41 36 37 39 39 40 42 41 41 44 53 57 57 59 62 65 68 68 69 69 68 65 66 68 70 66 65 65 66 67 70 71 71 72 72 72 72 72 72 72
37 37 42 46 46 41 38 37 38 41 40 42 40 45 48 51 57 59 61 63 66 68 68 68 69 68 68 68 70 68 68 68 67 68 68 68 71 71 72 72 71 72 72 72
33 35 37 42 44 41 40 39 38 40 42 42 41 44 50 52 58 59 61 62 64 66 66 66 66 67 67 68 69 69 69 69 69 70 71 70 70 70 71 71 71 72 72 73
33 34 37 38 38 41 42 41 41 39 42 43 46 50 53 55 57 57 58 60 62 64 65 65 65 66 66 68 68 68 68 70 71 70 69 69 59 61 69 71 69 73 73 74
33 36 37 37 40 41 43 43 42 41 42 44 46 48 52 53 55 56 56 57 60 61 62 64 64 64 66 67 67 66 66 66 68 71 70 66 59 57 49 47 47 49 54 62
40 41 41 40 39 42 42 44 44 43 44 44 43 45 51 49 50 52 50 54 59 61 62 63 63 63 66 66 65 64 64 65 64 68 72 66 61 60 58 55 49 45 45 46
43 44 43 42 41 42 42 42 46 46 46 44 43 43 50 48 47 50 53 57 60 62 63 64 63 63 64 64 62 62 62 57 65 67 71 65 61 60 60 60 58 57 50 48
42 43 44 44 42 42 42 41 40 47 48 46 44 43 44 47 49 51 56 57 58 59 59 62 62 60 61 63 62 62 63 63 63 64 67 62 62 60 59 59 59 59 59 55
42 42 42 43 42 42 43 41 40 40 43 48 46 44 50 51 51 55 54 53 53 54 52 53 56 56 58 62 62 61 60 58 60 63 64 65 63 61 60 60 59 58 57 57
41 40 41 43 46 40 40 41 40 41 48 49 50 52 51 51 51 52 51 51 50 49 49 50 51 53 57 62 61 60 59 59 59 60 60 61 60 60 59 58 56 55 54 51
42 42 42 43 44 45 46 46 47 47 47 49 50 49 49 50 49 47 49 48 49 50 50 51 52 55 61 61 61 60 59 59 58 57 58 57 56 56 55 54 54 53 52 51
42 42 42 42 43 43 43 43 44 44 45 46 46 46 47 48 48 48 48 47 47 49 51 50 54 59 59 60 60 59 57 56 55 55 54 53 53 53 52 51 51 50 50 49
42 42 41 41 42 42 42 43 42 42 44 43 43 43 43 44 45 46 47 45 45 46 48 52 54 56 56 58 58 57 55 54 53 52 52 51 51 50 49 47 48 47 47 47
42 42 41 41 40 40 41 42 41 40 41 41 42 42 42 42 43 44 43 44 45 48 50 53 53 55 54 56 55 52 52 51 51 51 50 48 48 47 46 45 44 43 42 41
41 41 41 42 42 41 41 41 40 40 40 41 40 40 40 41 42 42 44 43 45 48 50 50 52 54 54 54 53 52 51 50 49 47 46 45 44 43 43 42 41 40 39 40
41 41 41 41 41 42 43 41 41 41 39 40 41 40 39 40 41 40 41 44 45 47 48 47 47 49 52 53 52 51 50 50 50 50 48 47 46 44 41 38 37 36 36 35
42 41 41 42 42 42 41 41 43 42 43 40 41 42 41 40 40 42 44 45 45 45 46 45 44 45 46 49 50 49 48 48 47 46 45 43 42 38 37 37 36 36 36 35
34 35 37 38 39 37 33 29 29 38 39 38 40 41 42 44 42 43 44 43 44 44 44 44 44 42 40 38 37 38 40 42 45 46 46 45 44 43 42 37 35 35 34 34
26 26 27 30 33 29 27 28 29 30 30 31 33 36 39 38 42 43 44 43 43 44 44 44 43 39 35 35 34 35 35 35 36 37 39 40 39 38 36 34 33 32 31 31
26 30 25 26 27 27 27 28 28 28 29 29 30 31 33 32 32 39 42 41 39 37 38 38 39 41 40 38 37 35 33 33 34 34 34 35 36 36 35 34 33 32 31 30

GFSNGP_sfc_dewp_042.txt.gz
Dewpoint
30 32 31 29 27 26 26 25 27 26 26 28 30 30 28 30 33 34 43 53 56 56 57 59 60 61 64 64 65 65 66 67 68 69 70 70 71 72 71 70 70 70 71 71
29 28 27 26 26 26 26 28 22 21 21 39 31 47 56 57 57 47 41 40 53 57 57 58 60 61 63 65 65 66 66 67 69 69 70 70 70 70 72 72 71 71 70 70
23 26 26 25 28 35 39 40 38 23 36 47 48 58 58 59 60 61 52 39 41 56 57 57 59 61 63 65 67 67 67 68 69 70 70 71 71 70 70 71 72 71 71 71
25 25 27 36 39 39 37 36 40 42 44 52 53 59 60 59 59 61 62 52 47 55 56 57 58 59 62 65 68 69 69 69 70 71 71 71 71 71 71 70 70 72 72 71
24 24 34 35 38 39 38 36 37 39 43 47 56 57 59 57 58 61 66 58 55 56 57 58 59 61 63 66 69 69 69 70 70 71 70 71 71 71 72 72 71 70 71 72
30 28 34 37 39 42 40 35 38 40 40 43 55 53 56 57 59 62 66 66 59 60 60 60 61 61 64 65 67 69 69 70 71 71 71 71 71 72 72 72 72 72 71 72
31 31 38 40 42 39 34 35 39 41 40 41 46 48 51 58 60 63 66 68 65 62 61 62 62 62 63 65 65 67 69 70 71 72 72 72 72 72 72 72 73 73 73 73
35 36 35 43 39 36 38 38 37 39 42 41 47 54 54 57 59 61 63 66 67 68 67 66 64 63 64 65 67 67 68 70 71 72 71 72 72 73 73 73 73 73 73 73
34 36 40 45 42 41 40 39 40 39 42 45 49 53 54 55 56 57 60 62 66 65 66 67 69 69 68 70 72 68 67 68 69 71 72 72 73 73 72 73 72 72 72 72
36 37 39 42 41 39 41 41 41 41 41 44 49 51 52 52 54 54 56 60 62 65 65 65 67 68 69 70 71 70 69 69 69 69 69 71 72 72 72 72 72 72 73 73
36 35 39 40 40 41 41 42 43 43 42 43 45 47 49 48 50 51 53 57 61 62 64 64 65 66 68 68 69 69 71 72 71 71 70 69 60 62 70 71 69 72 73 74
35 38 39 40 42 42 42 42 43 44 43 43 45 46 49 47 49 50 51 55 60 63 63 64 65 66 67 67 67 68 68 69 71 71 70 65 62 59 48 47 47 51 57 66
40 43 43 44 45 45 43 44 44 44 45 43 46 45 49 47 48 50 52 53 56 61 63 64 64 64 66 65 65 66 67 67 66 69 68 64 63 62 59 54 47 44 43 46
42 42 40 41 42 45 44 43 44 44 45 44 46 47 45 47 48 50 53 55 54 59 60 62 63 61 61 64 64 64 65 56 66 71 69 65 63 62 62 61 59 58 48 48
41 42 42 43 44 44 43 43 42 43 47 47 46 48 47 48 49 52 56 54 53 54 55 55 58 59 58 63 63 64 64 64 65 69 66 62 62 61 60 60 59 59 60 55
41 41 42 43 43 42 42 43 41 41 43 45 46 47 49 52 52 53 55 54 52 52 52 52 53 55 56 61 63 62 61 59 61 65 63 62 61 62 62 61 60 59 60 60
40 39 41 41 42 43 43 45 43 42 45 49 51 51 51 51 52 51 51 50 50 51 51 51 52 53 56 58 62 61 60 61 60 62 62 61 61 60 59 58 56 54 53 51
42 42 42 42 42 42 42 43 43 44 45 46 47 47 48 47 47 48 48 49 50 50 51 51 52 55 58 61 61 60 59 59 59 59 58 59 58 57 56 54 53 52 50 49
41 40 41 41 42 41 41 41 41 42 43 43 43 43 44 44 45 46 48 47 46 47 50 49 52 56 58 61 60 59 58 57 56 55 55 53 54 53 52 52 51 50 49 49
41 41 41 40 41 41 40 41 41 41 41 41 42 42 41 42 43 44 43 45 45 45 47 50 53 54 58 61 58 57 56 56 55 53 52 51 51 49 49 47 48 47 47 46
42 42 41 41 40 40 41 41 40 40 40 40 40 40 40 41 41 43 43 42 44 47 49 50 52 54 56 58 55 54 53 52 52 51 50 49 47 46 45 45 43 42 40 41
41 41 41 42 41 40 40 41 41 41 41 40 40 40 40 40 41 42 43 43 45 46 46 47 48 54 56 55 53 52 50 49 48 47 46 45 44 43 42 40 39 37 37 37
41 40 40 40 40 40 42 42 41 41 40 40 40 40 40 41 42 40 40 43 45 45 45 45 48 52 54 53 52 51 49 48 47 45 43 41 38 37 35 34 35 34 34 34
41 41 41 42 42 41 40 37 42 42 41 40 41 42 42 41 41 43 43 43 44 44 45 45 45 46 49 51 50 50 49 48 45 42 41 38 37 35 35 35 34 34 33 33
38 38 40 39 39 39 33 31 33 40 41 39 40 42 42 44 42 43 44 43 43 43 43 45 45 44 43 44 46 47 47 46 45 45 44 43 43 42 42 41 39 34 31 30
28 28 28 32 32 29 28 30 29 30 31 33 35 39 40 39 42 44 44 44 43 43 43 44 45 44 43 43 42 42 44 45 45 44 43 42 41 40 39 39 38 36 35 33
27 30 28 28 28 28 29 30 29 29 31 31 31 33 35 36 39 39 41 42 43 42 43 43 43 43 42 42 42 41 41 41 40 41 40 39 37 35 34 33 32 32 31 31

GFSNGP_sfc_dewp_045.txt.gz
Dewpoint
26 25 24 25 26 27 28 28 30 33 34 34 37 38 38 39 37 39 40 49 57 58 61 64 65 66 67 66 67 67 69 68 69 71 72 73 73 73 73 73 73 73 73 73
24 20 24 27 27 28 28 28 28 29 32 40 43 42 39 42 52 54 54 49 52 58 61 62 64 66 66 67 67 69 70 69 71 72 73 73 74 74 74 73 73 74 73 73
19 19 25 25 26 27 28 30 29 27 32 46 47 54 56 58 59 59 60 62 60 53 61 62 63 66 66 67 68 69 70 71 72 73 73 73 74 74 74 74 73 74 73 73
22 23 25 27 36 28 37 39 40 40 45 49 53 58 60 59 59 60 61 62 63 61 54 63 61 62 66 67 69 69 70 71 72 73 73 73 74 74 74 74 74 74 73 74
26 28 32 38 38 35 38 38 41 42 46 51 56 60 59 58 57 61 62 63 66 65 51 62 63 65 67 68 69 69 70 71 72 73 73 73 73 74 73 73 73 73 73 74
29 27 29 39 40 42 41 38 39 42 44 51 55 54 55 56 57 62 65 66 65 60 52 62 64 64 67 67 69 69 70 71 73 73 73 74 74 74 74 74 73 71 72 74
28 27 31 40 41 40 38 38 39 41 44 53 53 53 55 57 58 61 64 66 64 60 63 64 66 65 67 69 69 70 70 71 73 74 74 75 75 75 74 74 74 74 73 74
30 28 27 41 41 37 39 40 41 43 43 51 50 49 50 51 54 57 62 65 66 64 64 66 67 67 68 70 72 73 73 73 74 75 72 72 75 75 75 75 74 74 74 73
33 33 38 42 41 42 42 41 42 41 42 46 46 46 47 47 48 52 59 64 66 67 68 68 67 69 69 71 73 73 74 74 74 74 74 75 75 74 73 74 72 72 72 72
35 38 40 41 42 42 42 41 43 44 42 44 46 46 46 47 48 47 52 62 65 66 67 69 71 71 72 72 71 72 73 74 74 74 73 74 73 73 72 72 72 71 71 71
37 39 40 41 42 44 44 43 43 44 44 43 45 46 47 47 48 51 51 53 63 65 66 67 69 69 69 71 73 70 71 71 72 71 72 73 73 69 72 74 69 71 72 72
35 40 41 41 44 46 44 43 43 44 44 46 45 46 47 47 50 51 52 53 55 61 66 66 67 67 68 68 69 72 73 71 68 68 69 71 67 63 48 48 47 51 56 67
40 42 43 42 43 44 44 45 43 43 44 45 46 46 46 46 50 51 52 52 52 54 58 65 65 64 65 68 68 69 69 69 72 69 70 69 67 67 64 54 47 44 44 49
43 42 40 43 44 45 44 43 45 44 45 47 47 46 47 48 49 51 51 52 53 53 55 57 62 62 62 66 67 68 68 57 71 72 71 68 68 69 67 66 65 60 49 48
42 42 43 43 44 45 46 44 43 43 44 44 46 49 50 51 51 51 52 51 52 52 53 54 56 58 59 62 67 66 66 67 70 70 68 67 68 67 67 65 63 59 59 54
38 40 41 41 42 42 43 44 44 44 45 48 49 50 52 51 51 52 51 51 51 51 52 53 55 55 58 60 65 64 65 61 64 65 64 65 65 65 64 64 63 63 62 62
38 38 40 40 40 41 42 43 43 44 45 46 47 47 46 47 48 49 50 51 51 53 53 54 52 53 55 58 62 64 63 64 62 64 63 63 63 62 62 60 59 56 55 53
39 40 41 41 41 41 40 41 41 42 43 44 44 44 44 44 45 45 47 49 50 50 52 50 51 53 55 57 61 63 62 63 62 62 62 61 60 58 57 55 54 53 51 50
40 39 39 39 39 39 40 41 41 41 42 43 43 42 43 43 44 44 45 46 44 46 47 49 52 54 55 57 59 62 61 61 60 59 58 55 56 55 53 53 52 51 50 50
40 40 40 38 39 39 39 40 41 41 41 42 42 41 41 42 43 44 44 44 44 46 48 48 50 52 55 57 59 60 60 59 58 56 56 55 53 52 50 47 49 48 48 48
41 41 41 42 41 41 40 40 39 39 41 41 41 41 41 42 42 43 42 42 44 46 47 47 49 49 51 55 57 58 57 56 54 53 51 49 48 47 47 46 45 44 43 43
42 42 42 42 42 43 43 42 40 40 40 41 41 41 41 41 41 42 43 43 45 45 46 46 48 50 53 56 56 55 55 54 52 50 48 47 46 45 43 42 41 39 37 37
43 42 41 42 42 44 44 43 42 40 40 41 41 41 42 42 42 41 40 44 44 44 46 45 46 50 53 55 54 53 51 51 50 48 44 42 39 38 36 35 34 35 35 35
42 43 43 44 44 40 35 37 37 41 40 40 41 42 41 41 42 44 44 43 43 43 45 46 46 46 48 51 51 48 46 45 44 43 40 36 35 36 31 32 31 32 33 32
38 37 36 38 35 29 34 34 32 36 40 40 38 40 40 40 41 44 44 43 42 43 42 45 45 45 44 46 46 45 45 44 44 44 43 41 40 38 38 37 34 30 30 30
35 29 31 36 30 29 29 29 27 30 30 30 33 35 37 37 37 40 43 43 42 42 42 42 44 44 43 44 44 44 44 44 43 42 41 41 40 39 38 38 37 36 33 31
31 33 30 29 29 30 28 29 29 30 32 31 30 33 34 36 36 37 38 41 41 42 44 43 43 44 44 43 43 43 43 42 42 42 42 41 41 40 37 35 33 33 32 33

GFSNGP_sfc_dewp_048.txt.gz
Dewpoint
18 17 16 14 10 18 26 30 29 28 28 31 36 35 35 36 37 38 40 45 52 54 58 64 66 68 68 65 66 65 68 66 69 72 72 73 74 74 73 74 74 74 73 73
19 17 17 14 10 9 17 24 28 30 31 33 35 39 37 36 38 41 47 45 44 52 56 60 63 67 69 69 67 68 70 69 71 74 75 74 75 76 75 75 75 74 73 73
18 15 12 10 12 15 14 21 26 28 32 35 38 42 42 43 43 50 53 55 56 54 53 57 60 65 67 70 69 70 72 72 73 75 75 75 75 76 76 76 75 75 74 74
20 16 17 15 15 16 17 18 26 30 33 34 42 47 57 58 58 59 59 60 60 59 60 56 57 59 65 66 71 72 73 73 74 75 75 76 76 76 77 75 76 75 74 76
27 23 20 21 23 28 19 20 28 33 34 32 39 47 58 60 60 61 63 64 64 64 62 64 58 60 64 65 68 71 72 73 74 75 75 75 75 76 75 75 75 74 74 76
30 24 22 27 34 35 38 31 42 43 42 37 43 44 48 59 60 60 63 64 66 66 66 65 65 58 61 65 67 70 72 73 75 75 75 75 76 76 76 75 74 72 73 75
28 27 27 28 34 37 36 39 43 44 48 53 48 53 55 54 56 59 62 65 67 67 66 65 64 59 66 67 68 70 70 71 74 75 76 76 77 77 76 75 74 75 74 75
31 28 25 38 37 37 44 43 43 44 47 48 47 47 47 49 50 54 60 66 66 63 61 60 60 65 69 70 71 73 73 73 75 76 72 72 77 77 76 76 76 76 75 73
33 34 40 39 39 46 44 46 44 43 45 44 42 44 46 47 48 49 53 62 67 65 63 64 66 67 69 73 74 73 73 75 75 75 74 76 76 76 73 75 72 72 71 71
34 37 37 40 43 46 47 45 45 45 44 45 46 45 46 48 49 50 52 53 64 68 69 69 68 68 70 72 75 74 73 74 74 74 73 74 73 73 71 71 71 70 70 69
35 36 39 42 42 46 45 46 45 44 46 45 46 46 46 50 51 53 54 54 56 64 67 68 70 70 72 72 73 72 73 73 73 72 73 73 73 68 71 73 67 70 69 70
34 39 39 39 45 46 45 44 45 45 45 48 48 48 49 51 53 53 54 55 56 57 62 65 66 68 69 71 73 71 71 70 69 69 71 71 73 69 49 48 46 47 51 63
39 43 44 45 45 45 44 46 46 46 47 46 47 48 50 51 53 53 53 55 55 57 59 63 64 64 67 70 71 73 73 74 68 67 70 71 73 72 69 65 48 45 44 48
42 42 40 42 42 44 45 44 46 46 44 47 50 51 50 50 52 51 50 53 55 56 58 60 61 62 64 67 70 71 71 64 75 69 69 70 69 65 65 67 70 71 52 51
40 42 42 42 43 43 44 45 45 47 47 48 50 50 50 49 49 51 51 51 52 53 55 55 56 58 61 64 66 69 68 66 66 68 68 66 66 64 64 65 70 63 60 54
38 39 39 39 39 40 42 42 41 42 44 45 46 47 47 48 48 50 51 52 52 52 54 54 55 56 59 63 64 65 67 62 64 69 69 70 70 69 69 69 65 64 63 62
35 36 36 38 38 39 40 42 42 42 43 44 45 45 46 47 48 48 50 50 51 51 52 53 55 55 58 60 62 63 65 66 62 66 66 66 68 69 70 67 64 61 61 58
36 36 36 37 37 37 38 41 41 42 41 43 43 44 44 45 45 46 47 48 48 48 48 50 53 53 56 58 61 63 63 64 66 65 63 63 61 62 61 60 58 57 57 55
38 38 37 37 37 37 37 37 40 41 41 42 43 43 43 44 44 45 48 45 45 45 46 48 50 52 53 56 58 61 61 62 62 61 61 58 60 59 59 57 56 55 55 56
39 38 38 38 39 39 38 37 38 39 42 41 42 41 41 42 44 44 45 45 46 47 47 47 49 50 52 54 56 59 61 60 60 60 60 58 57 55 53 51 53 52 51 53
39 39 39 38 39 39 39 38 37 38 40 41 41 41 41 42 43 43 42 40 44 45 46 46 47 48 49 51 53 57 58 57 57 55 55 54 52 51 50 50 49 49 48 48
39 38 39 39 38 37 38 37 38 39 39 40 41 41 42 42 42 43 43 43 44 45 45 44 45 48 52 54 53 55 57 57 55 53 51 50 49 47 46 45 44 43 42 42
36 36 35 35 34 35 33 33 35 38 39 40 40 39 42 43 43 41 41 43 44 44 46 45 48 51 53 55 55 55 52 50 49 47 46 44 42 42 41 39 38 37 37 36
35 35 35 34 33 31 32 34 33 37 39 38 39 39 38 39 42 44 44 43 43 43 46 46 48 47 46 46 45 45 45 45 45 44 42 40 39 37 35 33 32 33 32 31
34 34 33 33 29 26 30 32 30 31 33 35 37 38 39 39 42 44 42 42 43 43 44 45 46 45 45 44 43 43 42 41 41 41 41 40 40 40 39 38 34 30 30 29
35 28 29 33 28 26 25 26 26 27 27 28 29 32 34 37 38 39 40 42 43 43 44 44 44 44 43 43 42 42 42 41 41 41 40 40 40 39 39 37 36 34 32 31
30 31 29 28 27 26 26 28 26 27 28 28 28 29 32 35 37 38 39 40 40 43 43 45 44 43 42 42 41 41 41 41 40 41 41 41 41 41 41 40 40 39 37 36

GFSNGP_sfc_dewp_051.txt.gz
Dewpoint
19 16 15 13 13 13 16 19 19 23 26 31 34 36 35 34 37 38 37 43 47 51 58 64 65 68 68 65 67 65 67 67 69 73 73 73 73 75 75 76 76 77 77 76
25 18 15 11 12 12 10 9 20 25 28 30 34 36 38 39 38 39 41 43 44 50 54 59 65 67 69 68 67 67 69 68 70 73 74 73 74 75 76 76 77 77 77 76
24 21 16 14 15 12 12 11 9 12 23 28 31 34 36 38 39 39 40 43 47 45 51 54 57 66 67 70 69 69 71 70 72 74 74 75 75 76 76 77 77 78 77 77
29 23 18 15 12 8 9 10 11 14 16 22 28 32 35 44 54 55 54 51 55 54 53 53 53 56 64 66 72 71 71 73 73 74 75 76 76 76 77 76 77 77 77 77
31 25 21 15 13 11 29 27 32 33 29 18 23 27 35 39 57 59 60 60 61 60 60 61 56 56 64 65 71 71 72 73 74 74 75 76 76 76 77 76 77 77 77 78
31 26 23 20 17 34 33 29 28 32 33 25 20 23 30 56 60 60 61 61 63 63 63 63 64 60 57 63 67 71 72 73 75 75 76 76 77 77 78 77 77 74 76 77
33 28 28 25 30 34 28 27 37 44 35 24 25 30 39 56 58 60 62 64 66 67 66 67 66 64 64 63 67 70 72 73 76 76 77 77 78 78 78 77 75 77 76 77
33 30 28 38 35 33 36 41 39 46 32 36 44 52 53 53 55 58 59 61 64 69 67 67 68 69 69 68 69 73 74 74 76 77 74 74 78 78 78 78 78 78 77 76
36 34 41 41 41 41 41 42 42 49 48 50 50 50 51 52 54 55 56 60 62 68 68 64 68 70 71 70 74 74 75 75 76 77 77 76 77 78 75 77 72 73 72 71
34 38 40 40 40 42 43 44 48 48 46 45 47 48 49 51 51 53 55 56 59 66 71 71 71 69 70 76 75 76 76 76 76 76 76 76 74 74 72 71 71 69 69 68
35 38 38 40 42 42 45 47 48 47 48 48 47 49 50 51 52 53 54 56 57 61 65 67 70 72 71 73 75 74 75 75 75 73 74 75 75 71 71 69 66 69 65 64
34 37 39 39 42 45 46 46 47 49 47 48 49 51 52 53 54 54 54 56 56 58 60 61 63 64 65 68 76 73 73 72 71 70 72 72 70 68 52 56 49 49 49 60
38 41 40 42 41 45 46 47 48 46 48 50 52 52 54 54 54 54 54 55 56 57 58 60 60 62 65 66 70 75 73 73 70 68 72 72 72 70 69 61 48 47 49 50
42 42 39 40 40 44 44 46 48 48 49 49 50 51 51 52 54 54 54 55 56 56 56 57 58 59 62 67 67 74 74 62 70 72 72 73 74 73 70 69 67 68 52 54
37 42 42 42 42 43 44 44 43 44 45 45 48 48 50 51 51 52 54 54 56 56 55 56 56 58 61 64 66 70 75 71 69 72 71 69 71 69 67 68 70 68 66 58
34 34 36 37 41 42 42 42 41 43 44 45 45 46 47 50 50 50 50 52 52 51 53 55 54 57 61 63 66 67 70 63 65 67 66 66 67 68 68 65 65 65 65 63
34 34 34 35 36 37 40 42 43 43 44 44 44 45 45 45 46 47 48 47 49 51 50 51 51 54 58 60 62 66 69 67 64 69 68 66 61 63 69 67 66 64 63 61
35 35 35 36 35 36 36 39 41 42 43 44 44 43 44 45 45 46 45 46 46 47 49 49 50 52 54 56 58 65 65 66 65 64 65 66 66 68 66 63 62 61 60 57
36 36 36 37 37 37 36 37 38 40 41 42 42 43 43 44 45 45 46 44 44 44 45 47 49 50 53 56 55 60 65 64 63 62 62 60 63 63 62 62 61 60 61 60
38 38 38 38 39 37 37 37 38 39 41 41 41 42 42 43 44 43 43 43 44 44 45 46 47 47 50 54 55 55 61 61 62 61 61 61 58 57 57 53 57 56 58 59
39 39 38 40 37 38 36 37 37 38 40 40 42 42 42 42 42 43 42 41 43 44 45 47 46 46 47 50 52 55 58 60 58 58 57 56 55 53 52 53 54 52 52 52
37 36 38 36 35 34 35 37 38 39 40 40 40 41 41 42 41 41 42 43 43 45 45 46 49 52 52 55 53 55 57 56 55 54 53 52 51 49 47 47 45 46 46 48
35 34 34 34 33 33 33 34 37 38 38 39 39 40 40 43 42 41 40 43 44 45 46 47 48 48 47 46 48 49 47 47 48 47 45 45 43 43 41 40 41 41 39 37
35 35 34 34 32 32 33 34 32 36 40 39 39 40 38 41 41 41 43 44 45 45 45 45 45 44 43 42 42 42 42 43 42 40 39 38 37 35 34 34 35 36 37 37
35 34 34 33 31 26 31 32 30 31 33 38 39 37 38 38 40 41 42 43 44 43 43 43 43 43 41 40 40 40 40 40 39 39 39 38 37 37 38 37 33 32 31 31
36 28 29 34 29 26 24 25 26 26 28 29 32 35 34 36 37 39 41 43 44 43 43 43 42 41 41 41 40 40 40 40 40 39 39 40 40 40 37 35 34 34 33 33
34 32 32 31 27 26 26 28 27 26 27 31 32 35 36 35 36 37 39 39 40 43 44 45 42 42 42 41 42 42 40 41 40 41 41 41 41 40 40 40 40 40 38 37

GFSNGP_sfc_dewp_057.txt.gz
Dewpoint
21 20 19 19 18 17 16 15 13 10 13 29 29 29 33 32 33 37 42 60 60 59 58 66 64 66 65 63 63 67 69 70 70 69 68 69 67 67 63 72 68 72 72 74
22 21 21 20 21 21 20 16 14 14 11 15 19 20 21 20 21 24 28 39 43 49 50 65 63 59 61 63 64 64 68 69 70 70 69 69 69 70 67 66 72 70 71 72
25 25 25 23 20 21 21 21 15 13 16 19 22 24 22 23 27 27 25 32 46 50 60 63 61 59 59 60 64 64 65 69 69 69 70 69 69 69 71 67 68 72 72 72
28 28 23 27 27 26 24 23 24 22 18 25 27 27 26 28 29 32 40 42 59 58 67 67 68 66 66 66 66 65 65 67 69 70 70 70 70 69 70 70 69 69 71 73
26 27 25 25 24 23 25 26 28 27 28 29 35 33 28 35 41 42 45 46 59 52 62 67 67 66 66 66 65 65 66 66 68 69 70 70 70 70 69 70 71 70 71 72
33 25 21 22 24 23 26 22 26 35 36 36 36 33 34 39 39 42 46 48 57 54 61 61 68 66 64 65 64 64 65 67 68 69 70 70 70 70 71 69 69 71 70 72
33 32 33 35 36 35 29 29 39 38 38 37 36 37 39 41 41 42 44 45 58 61 62 64 66 69 68 67 64 67 66 67 70 68 69 70 71 70 70 70 70 70 71 71
33 31 27 36 36 35 37 38 39 39 39 37 37 38 39 42 44 44 46 49 59 60 61 64 69 69 69 69 69 70 70 69 69 69 69 70 70 71 70 70 70 70 71 72
33 33 36 38 38 39 39 38 38 39 39 39 39 39 40 43 45 48 53 57 58 58 59 63 66 66 68 69 70 70 72 70 71 72 69 70 71 71 71 71 71 71 71 72
33 36 36 39 39 40 40 40 40 40 41 41 40 41 42 45 48 53 55 55 57 58 60 61 61 62 66 68 69 71 71 73 70 72 71 69 72 72 72 72 72 71 72 72
35 37 39 38 39 40 40 40 41 43 41 42 42 44 46 48 51 54 55 56 56 57 57 57 57 60 62 63 66 68 72 73 71 71 71 71 72 73 72 73 71 72 72 72
33 38 38 38 41 41 40 40 41 43 45 45 48 48 48 50 54 55 55 55 55 55 55 56 56 56 57 59 62 65 70 71 72 70 72 72 72 67 50 52 52 56 61 69
39 41 42 42 42 42 41 41 41 43 44 47 46 47 47 53 55 55 55 55 55 54 54 55 54 54 55 56 60 63 68 71 72 69 71 72 72 71 68 58 48 46 46 55
43 42 40 41 41 42 42 41 42 42 43 45 46 47 47 50 51 51 50 52 52 52 52 53 53 53 54 54 58 61 66 63 72 71 71 72 73 72 70 67 67 66 52 51
39 42 42 43 43 42 42 42 40 41 41 41 43 45 46 46 47 47 48 48 50 50 49 50 51 51 52 53 57 59 65 68 71 71 73 72 73 72 69 69 69 67 62 55
39 39 39 41 41 42 41 40 39 39 40 40 41 43 45 45 45 46 45 46 45 46 46 47 48 50 52 53 56 58 63 64 65 71 72 71 73 73 70 70 70 66 66 65
36 36 37 38 39 40 41 41 41 40 40 40 41 43 44 44 43 43 45 45 45 46 46 46 47 50 52 54 55 56 63 66 64 68 68 69 69 68 70 71 68 67 65 62
39 39 40 40 39 38 39 41 42 42 42 42 42 42 42 43 42 43 43 44 44 44 46 48 49 52 53 54 55 56 63 63 63 63 63 63 66 66 65 64 64 63 63 61
44 42 41 42 40 40 40 39 40 43 43 43 42 42 43 43 43 43 43 43 43 44 46 48 51 52 53 55 57 57 63 61 60 60 60 59 60 63 63 64 63 61 62 60
45 43 44 43 42 40 40 41 41 40 41 44 44 43 41 42 43 43 44 43 43 45 46 47 48 49 52 55 57 61 61 59 58 56 55 55 56 55 56 55 58 57 56 56
43 43 42 41 41 42 41 40 40 40 41 43 42 42 41 42 43 43 41 41 43 45 45 45 46 46 49 49 52 53 51 50 53 54 53 52 50 51 51 52 53 53 54 53
43 42 40 41 39 41 41 40 40 41 42 43 41 40 40 41 41 42 42 41 43 44 44 44 45 46 45 45 42 42 43 45 44 44 43 45 46 45 44 44 45 45 45 45
41 39 40 38 38 41 41 40 40 43 43 43 41 40 40 39 40 39 39 42 43 43 43 43 44 44 43 42 40 40 39 39 39 41 42 42 41 41 41 41 41 42 42 43
40 43 40 41 38 36 39 41 41 43 43 42 40 41 39 38 39 40 40 42 43 43 43 43 42 42 41 40 40 40 37 36 36 37 38 37 38 39 39 40 40 41 41 40
43 42 39 39 40 36 41 41 41 42 41 42 41 40 40 41 40 41 42 42 43 41 40 43 42 42 38 36 36 37 38 37 37 36 36 36 36 37 38 37 37 36 36 36
46 45 45 41 36 35 35 38 40 41 42 39 39 40 40 41 41 42 42 43 43 43 41 39 39 37 37 38 37 36 36 36 36 37 37 38 38 37 38 38 39 39 39 39
47 45 46 41 41 34 35 37 35 37 38 41 39 40 39 39 39 39 41 41 40 37 37 37 38 40 38 37 36 36 36 36 36 36 37 38 38 39 39 39 40 39 38 38

GFSNGP_sfc_dewp_060.txt.gz
Dewpoint
21 21 21 21 20 21 21 20 15 14 14 16 21 21 20 25 31 51 60 62 54 54 48 55 61 62 63 64 64 67 67 67 66 68 69 66 64 66 66 69 66 68 71 72
26 25 25 24 25 24 21 21 21 20 15 19 24 25 25 27 28 36 41 47 43 52 57 61 59 53 64 65 66 67 68 68 68 67 69 69 67 65 66 65 69 68 71 72
24 27 26 22 23 24 23 24 23 21 23 24 27 27 26 38 41 42 43 44 47 53 64 65 65 64 62 64 66 66 68 68 69 70 69 69 69 67 65 65 63 69 67 71
27 28 21 22 27 26 24 25 27 27 31 35 36 36 39 39 38 37 39 43 43 45 57 64 65 67 66 66 66 65 66 68 70 70 70 69 68 68 68 68 64 63 69 68
27 23 25 25 29 31 30 26 38 37 37 37 37 35 32 39 40 39 40 40 43 46 55 64 63 65 67 67 67 66 65 65 68 70 70 70 69 68 69 69 69 65 67 71
31 25 22 31 33 35 35 23 37 38 37 38 37 33 34 38 39 42 41 41 41 46 57 62 68 66 64 66 67 64 65 64 65 68 70 70 70 69 69 68 69 69 67 67
31 29 32 32 35 38 26 27 37 37 37 37 36 37 38 39 39 41 41 40 43 49 61 63 64 65 64 64 64 64 66 65 66 65 68 70 70 70 69 69 68 69 69 69
29 28 26 35 34 32 35 37 37 36 37 37 38 39 40 39 39 39 41 41 52 56 60 62 65 67 68 67 67 64 63 64 64 65 67 69 69 70 70 70 69 68 69 70
32 28 35 37 37 39 39 37 37 36 37 38 38 39 39 40 40 41 43 46 54 57 57 60 64 64 63 66 69 70 70 70 68 70 69 68 69 69 70 69 70 69 68 68
33 33 34 37 40 40 39 39 37 37 39 40 41 42 40 40 41 43 46 48 55 56 57 59 59 59 61 63 64 65 66 68 71 72 71 71 68 72 70 69 69 69 69 69
34 36 37 38 39 41 41 41 39 39 41 41 44 43 42 42 43 45 48 50 55 56 55 56 56 57 58 58 59 61 62 66 70 72 70 71 71 71 70 71 69 69 69 69
30 34 36 37 40 41 41 39 41 40 41 41 43 45 46 46 46 47 48 53 55 54 55 56 55 54 55 55 56 58 60 63 68 72 72 72 71 67 52 53 56 56 58 66
36 39 39 41 42 43 41 40 41 41 41 41 42 44 45 45 47 51 50 55 54 52 52 53 53 53 53 52 53 55 57 61 64 67 71 71 71 70 69 59 48 46 50 53
41 40 39 40 39 42 42 42 42 41 41 41 41 43 44 45 45 47 47 49 51 50 51 51 52 52 52 52 53 54 56 56 61 66 71 71 71 71 70 70 69 67 51 55
40 42 41 41 42 42 43 43 40 39 40 40 41 41 43 43 43 45 46 46 47 47 46 46 47 48 50 52 52 53 55 58 64 67 71 71 73 73 71 70 71 71 60 54
38 39 39 40 41 41 42 41 40 40 41 40 41 42 43 44 44 44 45 45 44 44 45 44 46 47 50 52 52 53 55 57 58 65 69 70 71 71 69 68 69 67 66 67
35 34 35 36 37 38 39 42 41 42 41 41 41 42 43 42 43 43 44 45 45 44 46 46 46 49 52 53 53 53 55 56 62 65 66 69 69 70 68 69 68 67 66 63
35 37 37 38 39 38 38 41 42 42 41 42 43 41 41 41 41 42 43 44 44 45 45 46 48 50 51 52 53 54 56 58 62 62 63 65 67 66 67 65 64 62 62 62
43 41 41 41 41 39 39 39 39 42 43 44 43 42 41 42 42 42 43 42 42 42 43 45 49 49 50 52 54 57 58 60 59 59 59 59 63 64 64 64 63 62 63 62
44 43 43 42 42 40 39 40 40 40 41 42 43 42 41 41 42 41 41 41 42 43 45 46 46 47 49 49 53 52 57 56 54 53 54 55 56 57 57 55 60 59 59 59
43 44 43 42 40 40 40 40 41 41 42 42 40 40 40 41 41 40 40 39 42 44 44 46 46 46 46 47 47 48 48 47 48 49 48 46 48 50 51 51 52 52 53 53
39 40 39 39 37 39 39 39 41 44 42 40 40 40 40 40 41 41 42 41 43 44 44 44 44 46 45 45 43 44 43 43 45 44 44 45 45 43 44 45 44 45 46 46
39 39 40 38 35 35 39 39 42 43 41 40 39 39 39 41 41 41 40 43 44 43 43 43 44 44 44 42 41 41 40 40 39 39 40 41 42 42 42 41 43 43 43 43
39 40 41 39 36 33 37 39 41 42 41 41 39 39 39 39 41 43 44 44 44 43 43 43 43 42 42 41 40 40 40 40 40 39 39 38 39 40 40 40 40 41 41 41
42 42 42 41 40 35 39 40 40 40 39 39 38 39 39 40 41 41 43 43 44 43 43 43 43 43 41 40 39 39 39 40 40 40 39 38 37 38 39 39 39 39 39 39
41 41 42 42 43 39 39 39 39 40 39 39 39 39 40 40 40 40 41 42 40 40 39 40 41 40 41 41 40 38 35 36 38 39 37 38 38 38 39 39 39 39 39 39
43 42 41 42 43 40 38 38 37 37 39 39 39 41 39 38 39 39 39 39 38 36 35 35 37 39 36 36 39 40 39 37 36 36 37 37 38 39 39 38 38 37 37 37

GFSNGP_sfc_dewp_063.txt.gz
Dewpoint
23 22 23 22 24 23 20 21 19 17 18 17 21 22 26 37 42 45 50 47 50 57 59 62 63 61 61 62 63 65 64 66 66 67 66 64 64 65 67 68 66 65 68 72
25 28 26 23 24 23 23 21 21 21 22 23 28 29 38 39 39 38 40 43 48 47 51 55 63 65 62 61 65 65 65 65 67 67 67 66 65 64 65 66 67 66 66 67
22 28 24 20 24 25 25 25 23 22 26 35 35 35 38 38 38 38 38 37 41 46 52 52 61 65 65 65 66 67 66 67 67 68 67 68 67 65 64 64 65 66 67 68
24 25 16 22 33 31 26 35 37 36 37 38 37 37 39 39 38 38 40 39 38 37 46 50 57 63 66 66 65 65 68 67 67 67 67 68 69 67 65 64 65 64 64 66
23 20 24 27 33 31 32 33 37 37 37 37 37 36 37 39 38 38 39 39 39 39 42 49 58 66 66 66 67 66 66 68 68 68 69 68 68 68 68 66 65 65 63 63
28 22 21 30 32 33 35 30 35 36 36 36 36 33 33 38 39 39 39 39 40 40 45 51 59 64 65 65 66 66 66 64 65 68 69 70 69 68 68 68 67 67 66 64
29 30 31 33 34 35 28 29 36 36 35 35 34 36 37 38 39 40 40 40 40 40 46 54 57 62 64 65 65 66 66 65 65 64 66 70 71 71 70 69 69 69 69 67
28 25 20 35 34 28 33 37 36 35 35 34 35 36 37 39 40 40 40 40 40 40 43 52 57 60 62 63 66 69 69 65 64 64 67 68 69 70 71 70 69 68 68 69
27 26 33 36 35 38 39 36 35 35 35 36 36 36 39 41 41 41 40 40 41 42 44 51 59 61 62 61 63 65 64 65 67 69 65 67 68 68 69 70 69 68 68 68
29 29 33 34 37 39 40 39 39 39 39 38 37 38 40 43 43 42 41 42 43 45 46 50 56 60 59 60 61 61 61 63 64 65 68 71 71 70 68 69 69 69 68 68
33 33 34 36 38 39 39 41 40 39 40 39 40 41 41 44 44 44 46 45 45 47 48 52 56 57 57 58 57 57 58 61 62 64 68 71 71 70 69 69 68 68 68 69
28 32 32 32 37 40 40 41 40 40 40 41 41 41 42 42 44 45 46 46 48 47 48 52 56 56 56 56 55 55 56 58 60 62 64 68 71 70 53 56 55 55 56 65
34 35 37 38 40 42 41 42 42 41 41 41 41 41 41 42 44 45 46 46 47 48 50 54 53 53 53 53 53 53 53 56 57 59 61 65 69 71 69 60 49 50 49 52
39 37 37 39 39 40 41 42 44 42 41 41 41 41 42 42 43 43 44 46 46 47 52 50 50 51 51 52 52 52 53 53 55 57 59 63 67 71 71 69 68 68 55 53
40 40 40 40 40 40 41 43 42 40 40 40 41 41 42 42 41 42 44 45 46 45 46 45 46 46 48 49 50 51 52 54 57 58 60 62 66 69 71 71 70 70 65 54
38 39 39 39 39 39 40 41 41 39 40 40 41 41 41 42 42 42 44 44 44 44 45 45 45 46 48 48 50 51 52 54 55 56 57 61 64 68 71 72 71 71 69 69
35 34 35 35 35 37 37 40 41 40 41 40 41 43 41 41 41 41 42 44 44 44 46 46 46 48 48 50 51 52 52 54 55 56 57 62 64 68 71 71 70 70 70 66
36 36 35 35 37 38 39 40 41 41 42 41 43 43 41 41 40 41 41 42 43 43 44 45 46 47 49 49 50 52 53 53 55 56 59 64 65 68 70 69 69 68 64 60
40 40 40 40 40 40 40 39 39 40 42 42 41 40 41 41 41 40 40 41 41 40 42 44 47 48 48 50 52 52 52 55 56 58 60 59 64 66 67 68 66 65 64 63
41 41 41 42 42 42 41 39 39 40 41 39 40 40 39 40 40 40 40 39 40 42 44 44 46 46 46 47 49 49 49 51 54 52 52 53 55 57 59 56 63 64 64 62
43 43 43 43 42 41 41 40 40 41 40 39 38 39 40 41 41 41 40 39 41 44 44 45 45 45 46 44 44 45 45 46 46 47 46 46 47 48 48 48 50 54 55 53
40 40 40 39 39 36 38 39 40 43 40 38 37 38 40 40 41 42 42 41 42 43 43 43 44 45 44 44 41 41 42 41 41 43 44 45 43 43 44 45 46 47 48 48
40 39 39 40 38 35 38 39 42 42 40 38 37 38 38 41 42 41 40 43 43 43 42 43 43 44 43 41 41 40 40 40 40 40 41 42 43 42 41 42 42 43 44 44
38 38 38 39 37 35 37 40 41 41 41 40 39 38 38 39 41 43 45 44 43 42 42 43 42 42 41 40 40 40 39 40 40 40 41 41 41 41 41 42 42 42 43 42
44 44 43 40 37 36 37 39 40 38 38 37 38 38 39 39 40 41 42 43 43 43 42 42 42 41 40 39 39 39 39 39 40 40 40 40 40 40 39 40 40 41 41 42
44 43 43 41 38 39 39 39 39 39 39 39 39 40 40 39 39 39 39 41 38 40 42 42 41 41 41 40 39 39 39 40 40 40 40 40 39 39 39 39 39 40 40 40
42 42 42 40 42 40 38 38 38 38 39 39 39 40 39 39 39 39 40 37 35 34 35 37 39 40 41 40 40 40 40 40 39 40 40 40 39 39 39 39 38 38 38 38

GFSNGP_sfc_dewp_069.txt.gz
Dewpoint
25 24 23 23 21 20 19 22 20 22 23 31 38 38 38 37 38 38 39 40 41 41 44 48 52 57 63 66 66 66 66 66 67 69 70 69 70 72 71 71 71 72 71 71
26 26 25 21 23 22 21 19 20 21 27 37 38 39 39 39 39 39 39 39 40 41 42 43 49 53 58 63 66 68 67 67 69 70 71 71 71 71 72 71 71 72 71 71
22 27 23 18 25 24 25 32 27 21 35 38 37 37 38 37 40 40 39 40 40 40 40 42 44 48 56 62 66 67 68 67 68 70 71 71 71 71 71 71 72 71 71 71
24 24 17 27 32 31 31 35 36 36 37 36 36 36 36 37 39 40 39 40 41 40 42 43 43 46 52 59 62 65 69 67 68 69 70 71 71 71 71 71 71 71 71 72
29 23 24 27 29 29 29 32 35 35 35 34 35 35 37 39 39 38 39 40 40 41 43 46 45 45 48 53 58 60 66 68 69 69 69 70 70 71 71 70 70 70 70 71
32 24 21 29 29 32 34 25 35 35 34 34 34 30 31 38 37 37 39 40 40 42 45 44 46 44 46 48 54 58 61 66 68 70 69 71 71 71 71 71 70 69 69 70
31 30 29 33 31 35 29 29 35 35 34 34 33 34 36 36 37 38 39 40 42 43 45 46 46 46 48 48 48 54 57 66 66 66 69 69 70 73 72 71 71 71 70 71
32 30 28 35 32 31 34 36 35 35 35 34 35 36 37 37 38 39 39 40 41 43 44 46 47 47 48 49 49 53 58 63 63 65 65 67 70 69 73 73 73 72 72 71
34 34 34 37 34 36 35 34 35 36 34 34 35 36 37 38 39 39 40 40 41 42 45 46 47 48 49 50 52 52 57 62 61 63 65 66 69 69 69 71 72 73 70 70
34 34 34 37 38 38 38 37 37 36 34 35 37 37 37 37 38 39 39 40 41 42 43 44 46 47 48 49 52 52 53 59 60 60 62 64 64 66 67 66 69 71 71 70
36 36 35 36 38 39 39 39 39 39 39 39 39 37 38 39 39 38 39 40 40 41 42 44 46 46 46 47 49 51 51 55 59 58 60 62 63 64 67 70 67 66 68 69
39 38 38 35 39 40 40 39 41 41 41 42 42 41 40 40 41 41 41 42 43 43 43 43 43 44 46 48 50 52 51 53 56 56 58 61 61 62 57 56 54 53 54 60
36 39 38 39 40 41 40 41 41 42 43 42 41 42 41 41 43 43 43 43 43 43 43 43 43 44 46 47 49 53 53 55 55 55 56 58 59 61 59 58 53 51 49 51
39 39 38 39 39 41 42 42 43 43 43 44 44 43 42 42 42 42 43 43 44 44 43 43 44 45 46 46 49 50 52 52 54 54 54 55 57 59 61 60 59 61 54 53
39 40 39 41 42 42 42 43 43 42 42 43 43 43 43 42 41 42 44 43 43 43 43 43 43 43 44 45 47 48 49 49 51 53 53 54 56 57 59 59 60 60 61 59
39 39 39 40 41 42 42 42 41 41 42 42 42 43 43 41 40 41 41 42 41 40 41 41 42 43 44 45 47 46 47 49 50 50 52 54 54 56 58 59 59 59 62 63
38 38 39 40 40 41 41 42 42 42 43 43 43 42 41 40 41 41 42 42 42 41 42 42 42 43 44 44 44 45 46 47 49 51 52 53 52 53 56 59 59 60 60 62
40 39 40 40 39 39 39 40 42 43 43 43 42 41 40 40 41 41 42 42 41 40 41 42 43 44 45 46 46 47 48 48 49 49 50 52 53 54 55 57 59 60 59 59
43 43 42 41 40 41 42 41 41 43 44 43 41 40 41 41 41 42 43 42 40 39 40 42 44 44 44 45 47 47 47 47 48 49 50 51 52 54 55 55 57 61 62 64
44 44 44 43 43 43 43 44 44 43 43 42 41 40 40 41 42 43 42 41 42 41 43 42 43 42 43 45 46 47 46 47 48 49 50 51 52 53 55 53 56 60 62 64
44 44 44 44 44 45 45 44 44 43 43 41 40 40 42 43 43 43 41 40 42 43 43 43 42 42 43 44 44 43 43 44 45 47 48 49 50 50 52 53 54 56 59 61
44 43 44 44 44 45 45 43 43 45 43 41 40 41 42 42 43 43 43 42 44 42 43 42 42 43 42 42 41 41 42 42 42 43 44 45 46 46 46 47 49 48 47 47
44 44 44 44 44 43 43 42 43 45 43 41 40 40 40 40 43 43 42 44 44 42 42 42 43 43 42 39 38 38 40 41 41 41 41 43 44 44 43 43 43 43 42 41
44 45 44 45 44 43 43 43 43 44 42 41 41 41 41 39 39 39 47 45 42 41 42 43 43 43 41 38 36 36 36 37 39 39 40 40 42 43 43 41 41 41 41 40
44 43 42 41 40 42 42 45 44 43 41 41 41 42 42 41 40 39 39 43 42 42 42 42 42 42 41 39 38 35 35 35 35 37 37 39 39 40 40 41 41 41 41 41
44 45 45 44 44 43 44 46 43 39 38 38 39 39 37 37 36 37 37 39 39 41 42 43 43 43 42 41 40 38 36 35 35 34 34 36 38 39 39 39 39 40 40 40
43 42 44 42 45 45 45 43 39 40 39 38 37 36 35 33 34 34 36 34 34 35 38 41 43 43 43 42 41 40 39 37 35 35 33 34 35 37 37 37 37 38 39 38

GFSNGP_sfc_dewp_072.txt.gz
Dewpoint
24 21 21 20 18 18 22 25 24 27 29 37 40 40 40 40 40 39 40 40 41 41 44 50 51 53 56 62 65 68 68 67 68 70 70 70 71 72 72 72 72 72 71 72
25 24 23 20 21 20 18 20 24 25 31 36 39 40 40 40 41 41 40 41 41 42 43 43 46 50 52 54 62 65 69 68 69 70 71 71 72 72 72 72 72 72 71 70
22 24 20 17 20 19 21 24 24 23 34 36 36 37 38 37 40 42 41 42 42 41 42 45 45 46 47 51 56 60 63 69 69 70 71 71 72 72 72 72 72 73 72 71
22 23 17 28 29 27 25 31 32 35 36 36 37 37 37 40 40 40 40 41 42 40 42 45 46 46 48 48 51 54 60 65 69 69 69 71 73 72 72 72 72 72 73 74
26 20 22 24 28 26 30 31 34 33 34 33 34 34 40 39 39 39 39 40 40 41 42 47 48 48 50 49 49 50 55 60 65 66 70 70 70 72 73 72 72 71 72 73
27 27 20 28 29 31 30 25 35 34 34 33 33 23 37 39 37 38 39 40 41 42 43 44 48 47 48 48 50 50 51 53 58 65 66 68 71 74 76 75 73 71 71 72
28 31 29 31 30 33 25 31 36 34 35 34 32 35 37 38 39 40 41 41 42 43 43 45 47 48 49 50 50 51 52 53 57 61 64 65 69 73 74 75 75 74 73 72
34 32 32 34 33 32 37 36 34 35 35 35 35 34 36 37 39 40 41 41 41 42 43 45 47 48 49 50 52 53 54 53 54 56 61 59 66 66 71 75 75 74 75 72
36 38 37 38 35 37 34 35 35 35 33 34 33 35 36 36 38 39 40 41 40 40 43 44 46 47 48 50 52 52 52 54 54 55 56 61 63 65 65 70 70 75 75 70
37 30 35 38 36 37 36 35 36 34 34 34 35 36 36 36 37 38 39 41 41 41 42 43 45 46 48 49 50 50 51 52 53 52 53 57 56 56 60 63 63 65 68 73
38 36 35 36 37 38 38 38 37 36 36 37 37 37 37 37 39 39 41 41 41 41 41 43 44 45 45 46 47 47 48 49 51 50 52 55 56 55 58 62 62 63 68 69
42 37 39 34 39 40 39 39 39 38 38 39 39 39 40 40 41 41 41 42 42 43 43 43 43 44 46 46 45 46 46 46 46 48 49 50 51 53 52 54 54 52 52 57
36 37 37 37 39 40 39 40 40 39 40 39 39 39 40 40 41 42 41 42 43 43 43 43 43 43 44 46 45 46 45 47 47 50 52 52 52 52 52 52 50 49 50 50
41 39 39 38 37 39 40 41 41 40 40 41 41 41 41 40 41 41 41 41 43 42 42 42 42 43 44 44 46 46 46 46 47 48 50 53 53 53 53 54 54 54 51 52
41 39 36 38 38 40 41 42 41 41 39 39 41 41 41 41 41 41 40 40 41 42 41 41 41 41 42 43 44 44 45 45 45 47 48 50 51 52 52 53 54 55 56 53
42 40 38 39 39 41 41 41 41 39 37 39 40 41 41 42 41 41 40 41 41 40 41 42 41 40 41 43 43 43 44 46 47 46 47 50 51 51 51 52 52 54 55 55
40 40 38 38 38 39 40 40 39 38 38 39 41 42 43 41 40 40 40 39 41 42 42 43 42 42 43 43 42 43 43 44 45 45 46 47 49 50 50 51 54 54 54 55
43 42 38 38 38 39 39 40 40 39 39 41 43 43 42 41 40 41 41 41 40 40 42 43 44 44 44 44 44 44 45 45 45 46 46 48 49 50 50 52 53 54 54 55
42 43 41 41 40 41 40 40 41 40 41 44 45 44 42 41 41 41 41 41 42 42 41 44 44 43 42 42 44 44 44 45 45 46 46 47 48 49 49 50 52 53 55 55
45 44 44 44 44 43 43 43 42 42 43 45 44 43 42 40 41 41 42 43 42 41 43 43 43 42 42 43 44 45 45 45 45 46 48 48 49 49 50 49 50 52 53 54
45 45 45 45 45 46 45 45 44 44 44 45 44 43 41 41 42 42 44 42 42 42 43 43 43 43 43 43 42 41 41 42 43 44 45 46 47 48 49 51 53 54 54 56
43 43 43 45 45 45 47 46 46 45 45 45 44 41 40 41 42 40 43 45 41 42 41 44 43 43 42 42 39 38 39 39 42 43 43 43 45 46 48 50 51 53 54 56
41 42 43 44 46 46 47 48 47 46 45 45 43 41 39 37 36 36 35 45 40 40 40 45 43 42 42 40 39 38 38 37 37 39 39 40 42 43 45 46 48 49 48 47
41 42 41 41 41 43 46 46 47 47 48 45 40 41 39 36 34 33 36 43 41 41 41 42 43 42 41 41 40 39 38 37 37 36 37 37 39 41 44 43 43 44 43 42
42 43 44 43 42 41 42 46 47 47 48 41 41 41 41 37 35 33 34 37 42 41 42 42 42 42 43 42 41 40 38 37 37 37 36 35 35 37 41 42 42 42 42 42
42 40 41 45 46 43 44 46 46 45 46 39 36 35 34 34 33 33 32 36 36 39 40 43 44 44 45 43 42 41 40 39 36 36 37 36 35 34 36 39 40 41 41 41
38 39 35 45 43 45 45 46 46 43 38 35 34 33 32 31 31 31 34 29 30 31 33 37 41 43 43 42 42 42 41 41 38 37 35 35 36 34 33 35 35 36 38 39

GFSNGP_sfc_dewp_075.txt.gz
Dewpoint
22 19 20 21 21 20 22 23 22 34 38 40 42 44 42 41 40 41 42 42 43 44 48 51 54 54 56 58 63 66 68 70 72 70 72 72 72 74 73 74 74 74 74 74
23 22 20 18 18 19 19 22 24 32 37 39 40 42 43 44 43 41 41 42 42 43 45 47 48 53 55 54 57 62 63 67 71 71 73 73 73 73 74 74 75 75 73 73
23 22 21 19 19 19 18 20 25 29 37 40 39 40 40 42 42 42 42 42 42 42 44 47 46 49 51 56 55 57 60 61 65 69 71 72 74 74 74 74 74 76 75 74
22 26 22 23 28 20 19 25 34 37 37 38 39 38 38 41 41 40 41 42 43 40 44 47 47 48 50 49 53 54 56 55 59 62 67 70 73 73 74 74 74 74 74 76
26 24 23 25 27 25 28 30 32 35 35 35 35 36 41 39 38 39 40 40 41 41 42 47 48 52 54 51 52 53 52 54 57 58 63 66 67 72 75 74 73 73 73 75
28 26 21 28 27 29 27 28 33 34 33 31 31 26 39 40 38 39 40 42 42 43 43 43 47 47 49 50 53 53 54 54 55 56 60 65 66 65 71 75 72 71 72 73
29 30 28 32 30 29 25 31 35 32 33 32 31 37 39 38 39 40 41 42 43 44 44 46 47 47 49 50 50 52 53 54 55 56 56 60 64 64 67 70 74 73 72 74
32 32 34 33 31 30 39 39 36 35 35 34 36 35 36 36 37 38 40 40 41 42 43 45 46 47 49 50 52 53 54 54 55 56 55 52 61 64 64 66 69 73 75 74
36 38 41 38 36 41 38 39 35 35 33 32 31 34 35 36 37 38 38 41 41 42 43 45 46 47 48 50 52 52 53 53 53 54 55 57 56 61 58 65 63 65 71 72
35 34 35 37 36 35 34 34 35 33 32 32 33 35 36 36 37 38 39 41 41 43 43 45 46 47 47 48 49 50 50 51 51 51 52 53 52 53 53 50 55 57 65 72
36 35 35 36 37 37 36 35 35 35 35 35 37 36 37 39 40 39 40 41 42 43 43 45 46 46 46 47 47 46 47 46 47 47 49 51 54 51 50 56 53 56 58 62
42 38 39 38 38 38 38 37 37 37 37 38 38 38 39 40 41 41 41 42 42 44 44 45 45 45 46 46 46 45 45 43 43 44 45 45 47 49 48 48 47 46 47 53
38 39 38 38 38 39 39 38 38 38 39 38 38 38 38 40 41 43 42 42 42 42 43 44 44 44 44 44 44 45 43 44 43 44 44 45 46 48 49 49 46 45 45 48
41 40 38 37 36 37 38 39 41 40 39 39 39 39 39 40 40 40 41 42 42 42 42 43 43 43 44 43 44 43 42 44 43 43 44 44 45 46 48 49 49 50 47 47
43 40 38 38 37 39 39 40 40 39 38 38 39 39 40 40 41 41 41 41 41 41 40 40 41 41 42 42 42 41 41 41 42 45 45 45 46 47 47 48 49 50 50 49
42 43 39 37 38 38 40 40 39 38 38 37 38 38 41 40 40 41 40 40 41 39 40 41 41 41 41 42 43 41 41 43 44 43 43 45 46 46 46 47 47 48 49 49
42 44 42 39 37 38 38 39 39 38 39 37 38 40 42 41 41 40 40 39 41 41 43 41 41 43 43 43 43 43 42 42 44 44 44 45 46 46 47 46 47 48 47 49
41 41 41 40 38 37 37 38 40 41 40 40 40 40 42 42 41 40 40 41 41 41 41 41 42 42 42 40 40 41 42 42 41 42 43 44 45 46 46 47 48 49 48 49
41 41 42 42 39 41 40 38 39 40 44 42 44 42 43 42 41 40 40 41 42 40 40 40 42 41 40 42 44 44 42 42 42 43 43 44 46 46 46 46 47 48 49 49
44 45 46 45 46 45 44 44 41 43 43 43 44 44 44 42 41 43 44 42 43 40 41 40 41 40 42 40 43 43 40 40 41 41 43 45 46 46 46 45 46 46 48 49
42 42 44 45 45 47 47 45 45 44 45 45 45 44 45 43 41 41 42 40 43 43 40 40 41 41 38 41 39 39 39 38 39 39 41 42 42 43 44 45 48 49 49 49
40 42 42 41 41 43 45 47 48 47 48 49 47 46 46 42 42 42 43 40 38 40 38 38 41 42 41 41 41 40 39 38 37 38 38 39 40 41 42 43 45 47 49 49
37 37 38 38 39 41 42 45 46 48 48 49 48 46 41 35 37 35 38 46 37 40 36 39 40 42 42 43 42 41 40 39 38 37 37 37 38 38 40 41 42 44 47 49
39 40 41 40 41 40 40 42 44 47 48 49 50 44 39 35 36 35 37 41 42 39 38 40 41 42 42 43 43 42 40 39 37 37 37 37 37 37 37 40 42 44 45 46
40 40 41 42 41 39 41 41 43 47 48 49 47 41 39 37 37 33 33 36 43 41 37 44 42 43 44 43 42 42 41 40 39 38 37 37 36 37 36 36 39 42 43 43
37 34 37 46 46 42 45 46 44 47 47 45 46 46 35 37 33 33 34 36 33 38 34 41 44 41 45 44 44 43 42 41 40 38 37 36 35 35 36 36 34 36 40 41
36 39 35 45 46 45 45 45 44 44 45 46 43 33 31 30 31 31 35 28 27 29 33 35 36 37 36 35 37 42 42 43 40 39 38 37 36 36 36 36 35 35 35 36

GFSNGP_sfc_dewp_078.txt.gz
Dewpoint
25 22 19 20 19 20 22 25 30 40 43 45 47 46 45 44 44 44 43 44 46 49 52 53 54 55 56 58 61 64 65 68 69 69 73 76 76 76 76 75 75 76 75 75
26 22 20 19 19 19 20 20 25 37 39 43 45 45 44 44 44 43 44 43 44 46 48 50 51 55 56 57 57 60 61 64 65 70 72 73 75 75 77 75 76 75 75 75
27 23 22 20 20 19 19 21 40 40 41 41 42 43 44 44 43 43 43 43 43 44 46 49 48 51 54 58 59 59 59 58 61 65 67 70 73 75 76 76 76 75 75 75
28 27 23 23 23 21 21 24 36 41 41 41 41 40 43 42 41 42 42 43 43 41 45 48 49 49 53 52 57 57 58 57 58 59 62 67 70 69 71 76 76 76 75 75
28 31 30 27 27 25 22 26 35 37 38 38 38 40 40 39 39 41 41 42 42 42 43 49 50 52 55 53 55 55 56 58 58 57 57 61 67 68 69 71 74 75 75 75
29 26 23 30 25 26 26 28 35 37 37 37 35 36 38 40 39 40 41 43 43 43 43 45 49 47 50 53 55 54 55 57 59 60 59 59 61 65 67 69 70 73 74 74
29 28 31 33 28 28 27 30 35 34 35 33 33 40 41 40 41 41 42 43 43 43 44 46 47 47 50 51 51 54 55 55 57 58 59 61 62 61 66 67 68 70 70 74
30 32 35 33 31 29 40 39 35 36 35 36 38 38 38 38 39 40 40 41 41 43 44 46 47 47 49 52 54 55 55 55 57 58 55 54 59 61 61 63 64 66 69 70
36 42 44 39 39 42 40 39 37 37 35 36 34 36 36 37 38 38 39 41 40 42 44 46 47 48 48 52 53 53 53 54 54 55 55 56 57 59 58 59 61 61 62 62
39 37 39 41 38 38 37 39 37 35 33 31 32 35 35 37 38 39 40 41 41 42 43 45 48 47 48 50 52 52 52 52 52 51 51 52 52 52 52 54 52 53 56 60
35 36 35 34 37 36 34 34 35 33 33 33 35 36 37 38 40 41 41 41 43 43 43 44 47 48 46 49 49 46 48 48 48 47 48 50 51 51 52 54 53 53 54 56
42 39 41 40 38 38 37 35 36 35 36 37 38 38 39 39 43 41 41 42 44 43 43 44 44 45 48 48 48 44 43 43 43 43 44 45 46 47 48 47 46 45 44 48
42 45 44 40 42 38 39 39 37 37 39 39 39 39 39 40 42 44 43 43 43 43 43 44 44 44 45 46 45 44 42 42 41 42 42 44 45 45 46 48 47 45 43 44
43 42 44 41 39 38 39 39 42 38 39 40 39 40 39 40 45 44 46 42 42 42 43 43 43 43 46 43 45 43 41 43 41 41 42 43 44 45 46 47 48 49 48 46
43 42 44 45 43 38 38 39 39 38 38 38 39 39 40 41 41 41 43 40 40 40 41 42 41 43 44 43 44 42 40 40 40 41 42 43 43 44 44 45 46 48 50 49
44 42 44 45 40 39 38 38 38 39 38 38 39 42 42 43 43 42 41 41 39 39 41 43 43 42 42 43 43 41 41 42 43 42 42 42 42 43 43 44 45 48 47 48
42 41 44 44 44 42 39 41 41 39 39 38 42 42 44 42 43 45 45 40 40 41 45 45 43 43 42 41 39 39 40 40 42 41 41 41 42 43 43 43 45 45 46 49
45 44 46 47 48 43 37 42 41 41 41 41 44 43 45 45 45 46 44 42 42 41 44 45 44 42 41 40 39 38 39 41 42 42 42 42 41 42 43 43 44 45 45 46
43 45 47 46 45 44 41 41 40 43 44 45 46 46 46 47 47 46 45 42 42 42 44 41 41 40 40 40 40 36 35 37 37 38 39 40 41 42 43 44 44 44 44 45
44 44 43 45 48 45 45 45 46 47 48 47 46 46 46 47 48 46 44 43 45 42 43 40 40 40 40 40 40 36 36 36 37 37 38 39 39 40 41 41 43 45 46 45
46 43 44 45 46 48 48 48 49 48 49 48 47 48 49 49 48 46 46 40 46 45 43 41 40 38 38 39 39 37 37 37 37 37 37 37 36 37 38 39 41 43 44 45
42 42 42 43 44 45 46 45 44 45 47 50 51 49 49 50 48 45 46 42 43 46 39 37 38 40 39 41 39 40 40 40 39 37 36 37 37 35 36 37 38 39 40 42
37 40 39 41 40 41 41 42 42 43 43 47 48 49 49 48 50 43 41 46 41 42 37 37 41 42 41 41 42 42 42 41 39 38 37 37 36 36 36 37 37 38 39 40
39 40 44 42 39 39 39 41 40 42 45 47 49 50 51 48 49 44 39 44 44 42 39 39 43 43 43 41 45 43 43 42 41 40 38 37 36 36 36 35 36 37 38 40
39 39 41 42 43 44 42 41 42 42 44 47 48 50 49 50 49 42 37 40 43 41 38 46 45 45 43 46 46 44 43 43 41 40 38 37 36 35 35 35 35 36 35 37
39 34 38 45 45 40 43 47 46 46 46 45 46 48 49 49 45 34 36 37 33 40 37 39 44 43 42 41 40 45 44 43 42 40 39 37 36 35 35 35 35 35 34 34
38 38 36 44 46 42 45 45 44 46 46 46 45 48 47 41 34 31 34 30 27 27 30 32 33 37 35 35 35 37 39 44 41 41 40 38 37 36 35 35 34 34 35 34

GFSNGP_sfc_dewp_084.txt.gz
Dewpoint
25 25 25 24 22 23 23 26 34 44 44 45 45 44 44 45 46 46 46 47 50 53 55 56 57 59 60 61 62 65 65 66 66 67 67 68 68 67 67 70 72 70 69 69
26 31 29 24 24 31 37 43 45 46 44 45 45 44 42 42 43 45 45 46 48 50 52 55 55 56 60 59 60 60 61 61 63 65 65 66 68 68 68 68 71 72 72 71
27 32 26 24 26 26 40 44 46 44 45 44 43 43 42 41 42 43 44 45 47 49 50 51 53 56 54 57 59 58 59 59 60 60 61 61 65 67 66 66 68 70 71 71
27 29 23 27 29 27 38 43 45 44 44 43 43 44 43 43 42 43 44 44 45 47 48 50 53 53 55 56 57 58 58 59 59 60 60 61 61 62 63 66 67 68 69 70
26 27 28 29 27 27 27 39 45 44 43 44 42 41 41 42 43 42 42 43 46 48 47 46 47 50 53 53 53 53 53 55 56 57 57 57 60 61 62 63 63 64 66 68
30 28 23 29 30 30 32 34 44 43 41 39 39 37 38 42 42 43 43 45 45 46 46 47 48 50 48 49 50 50 51 52 53 53 54 54 55 57 60 61 62 63 64 65
30 30 34 36 34 32 29 31 41 41 39 38 39 38 40 43 42 41 43 44 45 46 46 46 47 48 47 48 48 49 50 50 50 51 50 50 51 52 55 57 59 61 62 64
29 26 26 39 37 31 36 38 41 41 40 40 40 40 41 41 41 41 42 44 45 45 46 46 46 46 46 47 48 48 48 48 47 48 47 48 48 48 48 49 50 53 55 58
34 34 40 41 39 41 38 38 39 43 42 39 39 39 39 39 40 40 42 42 42 44 45 47 46 45 46 46 46 45 44 44 44 45 43 44 44 45 45 45 45 46 47 46
34 39 37 38 39 39 38 38 38 38 37 38 37 38 38 38 41 41 41 41 42 43 44 43 45 45 45 45 44 43 42 42 42 41 42 42 42 43 43 44 44 43 43 43
33 35 36 40 39 37 36 38 38 35 35 38 37 38 38 40 40 41 41 41 42 42 43 43 44 43 43 43 43 41 41 41 41 41 40 40 41 42 42 43 43 43 43 44
36 40 38 38 41 41 36 37 37 35 35 39 38 39 40 40 40 42 42 43 41 41 43 42 42 43 43 43 42 41 40 40 40 40 40 40 41 40 43 43 43 42 41 42
39 42 43 42 45 45 39 36 38 36 39 39 40 41 42 40 40 44 43 41 41 42 42 41 40 41 41 42 41 41 39 39 39 40 39 39 40 40 39 41 42 41 40 41
42 41 40 42 41 45 45 41 43 38 39 40 40 41 41 41 42 42 42 41 43 42 41 41 41 40 42 42 41 41 40 42 40 39 40 40 40 41 41 40 39 39 41 41
41 41 40 42 43 43 44 45 41 40 41 41 40 40 41 42 42 42 42 41 42 41 41 40 40 41 41 40 40 39 38 39 39 39 39 41 40 40 40 39 39 39 39 40
41 43 41 43 43 44 44 43 39 39 41 41 41 40 42 42 42 41 41 40 39 39 40 39 40 42 41 39 38 38 38 40 39 39 40 40 40 40 40 40 39 40 40 40
39 40 41 42 43 45 45 47 45 46 43 41 41 41 43 41 41 41 41 39 39 39 39 40 41 41 40 39 38 38 38 36 37 36 37 37 37 37 37 36 36 36 37 38
41 43 44 43 44 45 46 48 48 48 49 48 46 42 42 41 41 41 41 39 40 39 41 41 42 40 40 39 38 38 37 36 36 36 36 36 36 36 36 36 35 35 34 35
43 44 45 46 46 46 46 46 49 49 50 49 48 46 44 44 43 41 42 41 39 39 41 42 46 43 39 40 40 38 37 36 36 36 36 37 35 35 35 34 34 34 34 33
45 45 45 46 48 48 48 48 48 47 49 50 50 48 48 48 49 48 44 41 39 39 42 41 44 39 39 39 42 38 38 37 37 36 37 36 36 35 35 34 34 33 33 33
44 44 44 44 46 48 49 48 49 49 49 50 49 48 48 49 49 49 47 44 42 43 43 45 41 39 39 40 41 38 37 37 37 37 37 36 36 36 34 34 34 33 33 34
40 40 41 40 40 40 41 41 41 42 44 48 49 49 47 48 48 49 49 48 49 49 47 47 42 42 40 45 39 38 38 38 38 38 37 36 35 36 35 34 33 33 33 33
38 38 40 41 41 41 42 42 42 42 42 42 43 44 45 46 46 46 46 48 49 49 49 48 46 46 47 44 40 39 39 39 39 38 36 35 35 36 35 34 34 34 34 34
39 40 41 41 41 40 39 40 41 41 42 43 43 44 44 44 47 46 47 48 47 48 48 47 45 47 48 42 40 39 40 39 39 38 37 37 35 36 36 35 35 34 34 35
40 42 41 40 39 39 39 40 41 42 43 44 43 43 45 46 45 45 47 47 47 48 46 46 47 48 45 41 40 40 40 40 40 39 36 35 34 35 36 35 34 34 35 35
42 42 41 40 39 39 40 41 40 42 43 43 44 47 47 47 47 47 46 46 45 45 46 42 43 45 43 42 41 41 41 41 41 40 37 36 35 38 37 36 36 36 35 34
41 41 39 39 39 39 39 41 40 40 42 41 44 47 47 47 45 46 46 45 43 41 41 41 42 44 41 41 42 42 40 40 40 39 36 36 36 38 38 38 38 37 35 35

GFSNGP_sfc_dewp_087.txt.gz
Dewpoint
28 27 27 24 24 30 23 26 34 40 44 48 47 46 46 46 47 47 48 50 53 54 56 57 59 60 62 63 65 66 67 66 66 67 67 68 68 67 67 68 69 71 69 68
28 33 28 26 27 27 41 45 45 44 42 46 45 44 44 45 46 45 46 47 49 52 53 55 56 59 60 60 61 61 62 63 65 65 64 65 68 67 66 67 68 68 70 70
28 30 34 32 28 28 39 45 45 42 43 45 43 43 43 43 45 45 46 46 48 49 51 53 54 54 55 58 58 59 59 60 61 61 61 61 62 62 65 66 65 66 67 69
26 27 27 32 31 35 43 44 45 45 44 44 43 43 42 43 44 45 45 47 47 48 50 52 54 55 56 56 56 57 56 57 59 60 60 61 61 61 61 62 62 63 63 65
24 26 27 28 28 26 34 41 45 44 44 44 43 42 42 44 44 44 44 47 46 46 48 50 51 51 50 50 50 50 51 52 54 55 54 54 55 57 59 60 61 62 63 64
30 26 19 26 30 31 32 34 45 44 43 42 41 39 41 43 43 45 45 45 45 46 47 48 48 47 47 48 48 48 49 49 50 50 52 51 51 54 56 57 59 61 62 63
30 27 31 35 36 37 29 30 44 44 43 42 40 40 41 43 43 44 44 45 46 46 46 47 46 47 46 46 46 47 47 46 46 47 47 47 50 49 51 52 54 56 58 60
28 25 24 37 36 28 32 39 41 43 43 42 40 41 42 41 42 43 44 45 45 45 45 45 46 46 45 45 45 44 44 44 44 43 43 43 44 45 47 46 46 47 46 52
33 32 36 40 40 40 38 39 40 41 41 41 41 41 41 40 42 43 44 44 45 46 45 45 45 45 43 43 43 42 42 42 42 42 41 41 42 42 43 44 44 43 43 43
34 38 37 39 39 38 38 39 42 43 43 44 43 41 40 39 41 41 42 43 44 43 43 44 44 44 43 43 42 41 41 41 41 40 41 40 41 42 42 42 42 42 43 42
32 34 36 39 39 38 39 40 39 41 41 42 41 39 39 41 41 41 41 42 43 42 43 43 43 42 42 42 41 40 40 40 40 40 40 40 40 41 41 41 42 41 41 41
35 34 35 34 39 41 39 38 39 37 37 39 40 39 40 41 41 41 41 42 42 42 43 42 43 42 42 42 40 39 39 39 39 39 39 40 40 40 42 42 42 41 41 41
37 40 41 41 43 43 39 37 39 36 38 39 39 39 40 41 41 42 42 41 41 42 42 42 41 40 42 41 41 39 38 38 39 39 39 39 39 39 39 41 42 41 40 40
43 42 40 43 41 44 45 44 42 38 38 39 40 41 40 40 43 42 42 41 42 42 41 40 40 39 41 41 40 39 37 41 38 38 39 39 39 40 40 40 39 39 40 40
41 40 38 41 43 43 43 44 43 39 39 39 40 41 40 40 42 41 42 41 42 41 41 40 40 40 41 40 38 37 37 38 38 37 38 39 39 39 39 39 38 37 37 38
41 41 42 41 41 43 43 43 43 42 41 40 40 41 41 40 41 42 41 42 41 40 40 40 40 41 40 39 38 37 37 39 37 35 36 36 36 36 36 36 35 35 35 35
38 38 39 40 43 43 43 45 44 45 44 43 43 43 43 43 41 42 41 41 41 40 40 40 39 41 40 38 38 38 37 36 37 35 35 35 36 35 35 35 35 34 34 35
39 39 42 43 43 44 44 46 46 47 48 50 50 46 43 42 41 41 41 41 41 39 40 40 41 41 40 38 38 38 37 35 35 35 36 35 35 35 35 35 34 34 33 34
42 43 44 44 44 45 46 45 47 47 48 49 50 49 48 43 41 41 41 40 39 39 39 41 45 43 39 40 40 38 37 36 36 36 36 37 36 36 35 34 34 34 34 33
44 45 45 45 46 48 48 48 46 47 47 48 50 50 48 49 48 46 44 41 39 40 44 42 44 41 39 40 45 38 38 36 36 36 36 36 35 35 35 36 34 34 34 32
44 43 43 43 44 46 49 48 48 47 46 47 48 48 48 49 49 49 47 44 44 44 43 45 46 42 40 40 44 39 38 37 37 37 36 36 35 35 34 35 34 33 33 32
40 40 39 39 40 42 42 42 42 42 43 43 45 47 47 47 47 47 49 49 49 48 47 47 46 45 41 45 41 39 38 37 37 37 36 36 35 34 34 34 34 33 33 32
37 39 41 41 40 39 39 40 40 41 41 41 41 41 43 45 45 46 47 48 49 48 47 47 47 47 47 45 41 39 38 38 38 37 37 36 35 34 34 34 34 34 34 33
39 40 40 40 39 39 37 39 40 41 41 41 41 42 41 42 43 45 45 48 49 48 48 48 49 49 50 46 41 40 39 38 38 37 37 38 35 34 33 33 34 35 35 34
41 40 39 38 37 37 37 39 39 40 40 41 45 44 43 42 44 44 46 47 48 48 48 49 49 49 48 44 42 41 40 39 39 38 37 37 36 34 33 33 34 36 35 35
40 39 39 38 37 38 39 39 38 39 40 44 46 47 47 43 43 44 46 48 49 48 46 44 45 46 44 42 41 41 40 39 39 38 38 37 36 35 34 34 35 37 36 36
39 39 38 37 38 37 38 39 38 39 40 41 44 46 46 46 44 44 44 44 44 44 44 46 44 45 43 42 41 41 40 40 39 39 37 36 35 35 34 34 37 38 37 37

GFSNGP_sfc_dewp_093.txt.gz
Dewpoint
30 30 30 32 38 39 27 29 29 34 37 47 52 53 53 54 54 54 56 57 59 59 60 62 63 65 67 68 68 68 67 67 68 68 70 69 70 70 70 71 71 73 74 73
30 31 33 28 34 42 42 42 42 43 41 48 52 52 51 53 53 53 55 56 56 57 59 60 61 63 63 64 65 68 68 68 68 68 66 66 68 69 69 69 69 70 71 72
30 32 33 30 31 34 39 44 43 37 45 50 50 50 51 52 53 52 53 54 54 55 56 57 59 60 60 62 62 62 63 63 64 64 64 64 64 65 65 65 65 66 66 68
29 34 26 32 34 37 37 42 45 46 47 50 50 51 50 51 51 52 52 53 54 54 56 55 56 56 56 56 57 57 56 56 57 59 59 61 61 61 61 63 63 63 64 65
31 29 28 29 30 30 32 34 45 46 47 47 47 48 48 49 50 51 52 52 53 54 54 52 52 53 52 51 51 52 52 52 54 54 54 54 56 57 58 59 61 62 63 66
32 24 23 29 33 36 35 31 46 47 47 46 46 47 48 48 48 49 50 51 52 52 51 50 50 49 48 49 48 47 48 49 50 50 51 52 53 55 57 58 60 59 58 58
31 28 27 34 36 38 32 34 44 47 48 47 47 48 48 48 49 50 51 51 51 51 50 48 48 48 47 47 46 46 47 48 49 49 48 51 52 53 53 53 54 55 54 55
32 30 30 38 36 32 38 42 43 48 48 47 46 47 47 48 49 50 51 51 51 51 50 50 50 48 47 46 46 47 47 47 47 48 45 46 50 50 50 50 51 52 52 48
35 36 39 42 42 42 41 42 44 46 48 48 46 47 47 48 49 50 49 49 48 48 49 48 48 48 47 48 48 47 47 46 47 46 46 47 47 47 45 47 44 44 43 43
40 41 42 42 41 40 42 42 44 45 47 47 47 47 47 48 48 48 48 48 47 47 47 47 48 47 47 47 47 46 46 45 45 45 45 44 41 42 41 41 41 42 42 42
38 38 41 42 43 42 41 43 45 46 47 47 47 48 48 48 49 48 48 48 48 48 47 47 47 47 45 45 45 43 44 43 43 42 43 42 42 41 41 43 42 41 41 41
41 41 43 41 44 44 42 42 45 45 46 48 48 49 49 49 49 49 48 48 48 48 48 47 47 46 46 45 44 42 41 40 40 40 40 39 39 39 42 42 41 40 40 40
40 42 43 44 44 44 42 42 43 45 46 47 48 48 48 49 49 48 48 49 48 48 48 47 47 46 46 45 44 44 41 42 39 39 38 37 37 36 35 38 41 39 38 39
43 44 43 44 43 45 45 45 44 42 43 45 46 47 47 47 48 48 49 49 49 48 48 47 47 46 46 45 44 44 42 42 38 36 35 36 36 36 34 34 34 34 38 37
44 44 43 45 45 46 46 45 44 44 44 43 43 45 46 47 47 48 49 48 48 47 47 47 47 46 46 44 43 42 40 36 35 35 34 34 34 34 33 34 34 34 35 36
45 45 42 43 44 43 43 44 43 44 44 45 45 45 45 47 47 48 48 47 47 45 47 47 47 46 45 44 42 39 40 38 36 35 34 34 34 33 32 33 33 33 33 33
43 44 44 42 42 44 44 46 45 45 46 46 46 47 47 46 46 47 48 47 47 48 48 47 47 47 46 44 40 36 36 37 37 37 35 35 35 34 33 32 32 32 32 34
44 44 44 44 44 44 45 46 47 47 48 48 49 48 47 46 47 47 47 48 46 47 48 48 48 47 45 43 40 36 38 38 37 38 37 38 37 37 36 35 34 33 31 32
43 43 45 45 46 47 47 47 48 49 50 50 50 49 50 49 48 48 47 47 46 47 47 48 48 47 45 45 41 36 35 37 37 37 37 39 38 38 38 38 37 36 34 32
45 46 47 48 48 49 49 49 49 49 49 50 50 50 50 51 51 51 49 48 48 45 49 46 46 46 45 45 45 37 36 36 37 37 38 37 37 38 39 38 38 37 35 34
47 47 47 46 46 45 45 44 44 44 44 45 46 48 50 51 52 52 51 48 49 49 49 49 47 47 44 44 44 39 36 36 37 38 39 39 38 38 38 38 38 38 36 35
43 43 44 44 43 43 43 42 42 42 43 44 44 45 45 45 48 49 51 51 50 49 50 49 48 48 46 47 47 41 39 37 38 38 39 39 39 39 39 39 39 39 39 38
42 42 43 42 42 41 41 41 41 43 43 44 45 45 44 44 44 45 46 51 50 49 50 50 49 49 48 48 47 47 45 43 40 39 39 40 40 40 40 39 39 40 41 40
43 43 43 42 41 41 41 42 41 43 43 45 46 47 47 45 45 46 46 48 48 50 51 52 50 50 50 48 46 45 46 47 46 44 42 40 40 39 39 40 41 41 41 40
44 43 43 41 40 39 42 43 41 41 43 44 44 48 48 48 46 46 48 49 48 49 50 50 48 49 50 48 46 46 46 47 48 45 45 45 42 41 41 41 41 41 41 41
43 41 39 41 39 40 41 43 43 44 43 41 42 44 45 48 48 48 50 48 49 49 50 50 50 49 47 47 46 46 45 45 47 48 48 48 47 46 45 44 43 41 41 41
42 40 40 40 40 40 41 42 43 43 42 42 44 43 44 42 42 47 47 49 48 48 49 50 50 48 48 47 46 46 43 47 46 49 50 50 49 49 49 47 46 46 45 44

GFSNGP_sfc_dewp_096.txt.gz
Dewpoint
28 27 26 27 26 24 25 23 24 26 29 46 53 55 57 57 58 58 60 61 61 61 63 64 67 69 70 70 70 71 70 69 69 70 71 71 72 72 72 72 72 73 73 73
31 30 27 31 34 30 27 28 26 31 32 46 53 56 56 57 56 57 58 59 60 60 61 62 63 65 69 70 70 71 70 69 69 70 70 70 70 70 70 70 71 72 72 73
29 30 30 27 30 31 35 36 35 28 44 49 52 54 55 56 57 57 58 59 59 59 59 61 61 62 62 63 65 66 66 67 67 67 68 67 66 66 68 68 69 69 70 71
28 32 28 33 33 33 35 37 39 42 45 49 52 53 55 56 56 56 57 56 58 57 58 58 57 57 59 59 60 61 61 60 62 63 64 65 64 65 66 66 68 68 67 68
29 29 30 31 33 32 31 34 40 44 47 50 52 53 53 53 55 56 57 57 57 57 56 55 56 56 55 55 56 56 57 57 56 56 57 60 61 63 65 66 66 66 67 64
27 27 26 33 32 34 34 31 40 44 48 49 50 47 50 53 54 54 55 56 57 56 53 52 51 52 50 51 50 50 52 52 53 55 55 55 57 57 60 61 63 62 63 60
26 26 27 34 34 36 32 37 43 47 48 48 49 52 52 52 53 53 54 55 55 54 53 52 50 49 48 47 48 47 50 50 50 51 53 53 55 55 57 59 60 60 59 59
31 29 29 37 35 34 42 42 42 47 49 49 50 49 51 52 52 52 53 54 53 52 50 50 51 51 49 48 48 50 51 50 50 50 46 49 54 54 55 56 56 58 57 53
31 35 43 43 43 43 41 43 43 46 47 49 48 49 51 52 52 52 53 53 53 52 53 52 51 50 49 50 50 50 49 49 49 48 51 52 52 51 48 52 48 48 46 46
36 37 39 41 42 41 42 41 41 44 48 48 48 49 50 51 51 52 53 52 51 51 50 51 51 50 51 51 50 50 49 49 48 48 49 50 45 45 45 44 44 44 44 43
37 39 42 43 43 41 41 41 40 44 47 48 49 50 50 50 52 51 52 51 51 51 50 50 51 50 48 49 48 47 46 46 46 43 46 46 45 43 43 44 42 43 43 44
34 36 39 36 41 44 42 41 41 42 45 48 49 50 51 51 52 52 52 52 52 51 51 51 50 49 48 48 47 45 43 41 40 40 41 41 41 39 42 42 41 40 40 39
38 41 40 43 43 44 42 43 43 43 46 46 47 48 50 51 53 52 52 52 52 52 51 51 50 48 49 48 46 45 42 43 37 38 37 39 39 38 36 36 40 39 38 38
43 44 43 43 42 44 44 44 44 43 43 46 46 48 48 50 52 52 52 53 53 52 52 52 50 49 49 47 47 46 44 42 38 37 35 36 37 37 36 36 37 37 37 38
44 44 43 45 45 46 45 43 41 41 42 43 46 45 47 49 50 52 53 52 52 52 51 50 49 50 49 46 46 44 41 36 36 35 35 35 35 35 34 35 36 36 37 37
44 43 42 44 44 44 42 41 39 40 42 43 43 44 46 47 48 49 51 52 52 50 51 51 50 49 49 46 46 41 41 41 39 35 34 34 34 32 32 34 34 35 34 33
44 44 43 43 42 42 40 42 42 43 44 43 44 45 47 46 48 48 50 49 52 52 52 51 51 51 50 46 44 37 36 36 41 35 34 33 33 33 33 32 32 34 32 34
44 43 45 45 42 42 42 43 43 44 45 46 47 46 46 46 48 49 50 50 50 51 51 52 52 51 49 46 42 36 36 36 36 36 35 36 35 35 34 34 33 33 31 33
44 44 44 43 42 43 43 43 45 46 48 48 48 47 46 47 48 49 50 50 50 50 50 51 52 52 50 48 44 36 35 37 36 36 36 39 37 37 35 35 35 35 35 33
45 45 46 47 47 46 48 49 48 48 49 48 48 49 48 46 47 47 49 51 50 48 50 49 50 49 49 48 46 37 36 36 37 36 37 36 36 37 37 37 36 34 34 34
47 48 49 50 48 48 46 44 44 45 44 44 45 45 46 46 48 48 48 45 49 52 51 51 48 48 48 48 45 39 37 36 37 37 37 37 37 35 35 36 35 35 34 35
48 47 46 45 45 44 43 42 42 43 43 44 45 46 45 45 45 45 47 49 48 51 50 50 52 51 50 50 49 44 40 38 37 37 38 38 37 37 37 37 36 36 36 36
44 43 42 40 41 42 42 41 41 43 44 45 45 45 44 44 44 43 40 44 45 50 48 48 50 51 50 50 49 48 44 42 40 39 38 38 37 37 37 36 37 37 38 39
42 42 42 42 41 41 41 42 41 43 44 44 43 45 46 45 44 44 46 45 46 49 50 49 49 49 50 50 48 47 45 45 46 45 39 39 38 38 36 37 37 38 39 39
43 43 44 42 41 38 41 42 40 41 43 43 41 41 43 46 47 46 46 48 48 48 51 50 51 50 51 50 49 49 47 46 46 46 47 48 47 46 40 36 37 38 39 39
44 40 39 41 37 36 36 37 36 38 37 36 37 38 38 39 45 47 50 49 50 50 50 50 51 52 52 50 48 47 47 47 46 47 47 47 47 41 37 37 37 38 39 38
43 41 37 37 37 36 37 39 36 37 37 35 36 37 34 35 39 46 48 48 48 50 50 50 49 48 48 48 48 48 48 48 45 47 50 50 50 46 45 43 42 43 42 40

GFSNGP_sfc_dewp_102.txt.gz
Dewpoint
25 26 28 27 18 16 20 18 20 26 40 45 51 56 58 60 61 62 63 64 66 67 68 70 70 70 70 70 70 70 70 70 70 71 70 71 71 71 72 71 72 72 73 74
34 29 30 26 26 17 16 17 19 33 46 54 58 61 59 59 59 61 61 62 64 64 66 66 68 70 70 70 69 70 71 70 71 72 71 71 71 71 70 70 71 71 71 72
36 39 32 26 31 30 19 21 22 43 49 49 51 54 59 59 60 61 61 62 63 63 63 63 64 67 68 71 71 71 71 71 71 71 71 71 71 71 71 70 70 70 71 68
42 39 31 39 36 34 37 25 43 44 50 51 55 58 58 58 59 59 60 61 62 61 61 60 60 62 62 63 68 68 68 70 70 70 69 69 69 68 68 70 69 69 69 66
42 39 40 36 40 36 39 41 40 41 44 51 60 54 55 57 59 59 60 61 61 60 59 58 57 59 59 59 59 61 62 62 65 66 66 66 67 68 68 69 67 69 69 67
40 38 34 43 43 42 39 45 49 43 44 47 48 47 54 57 58 58 59 59 59 58 57 55 55 57 56 57 56 55 55 56 60 61 63 64 64 65 66 68 70 66 64 62
40 41 40 44 45 40 32 41 42 43 46 51 53 54 56 57 59 59 59 58 57 55 54 53 53 53 53 52 52 54 55 56 56 56 59 60 62 62 63 64 68 66 64 61
37 39 37 42 40 33 49 43 44 46 48 51 51 54 56 56 57 58 57 57 57 55 53 53 53 52 52 51 52 53 53 53 56 56 57 54 59 60 61 62 63 64 64 63
38 46 49 46 48 47 44 45 44 45 45 50 48 51 54 55 57 57 56 56 56 54 54 53 53 52 50 52 54 52 52 53 52 54 55 56 56 57 58 59 57 59 59 58
38 45 41 39 39 40 41 41 40 42 43 45 47 50 52 54 55 56 56 55 54 54 53 54 55 56 52 53 53 53 53 53 51 52 53 55 55 58 56 54 53 54 55 55
35 40 39 38 38 40 40 38 36 40 43 45 47 49 52 54 57 56 57 56 56 56 55 55 55 53 53 55 56 53 53 52 53 52 51 52 43 41 46 38 39 41 42 47
32 42 48 41 42 40 40 38 38 39 41 46 47 48 51 56 58 57 57 58 58 57 57 56 57 57 57 56 56 53 51 49 49 48 50 50 48 43 41 40 40 39 39 40
37 39 41 39 42 42 40 39 41 40 44 42 46 47 48 57 59 56 58 58 57 57 58 57 57 56 56 56 55 55 53 56 48 47 47 49 49 47 41 36 40 38 38 38
39 42 41 40 42 41 40 41 45 40 43 43 44 44 46 54 57 57 58 57 58 59 58 58 57 56 57 54 56 55 53 45 48 46 43 48 48 46 45 41 39 36 37 40
42 42 42 43 43 44 43 43 43 41 41 42 43 44 45 46 52 56 55 55 57 56 57 57 57 57 57 55 55 53 50 45 44 42 46 44 46 44 40 43 46 43 39 37
43 43 41 42 43 45 43 42 40 40 41 41 42 44 46 47 48 49 52 56 55 55 57 57 57 56 56 55 55 50 50 48 45 43 41 42 40 39 39 42 43 43 43 42
44 44 43 43 45 47 47 47 42 40 43 41 43 45 46 45 46 48 52 48 55 56 59 57 57 58 58 55 53 49 45 46 44 39 39 37 38 38 38 37 37 39 39 37
45 45 48 50 48 48 46 43 41 41 43 45 47 45 45 45 48 50 51 52 53 54 56 57 58 58 57 54 52 49 47 44 41 40 39 42 39 39 39 38 37 37 36 32
45 48 47 49 46 45 47 46 44 44 45 44 44 45 46 46 49 50 50 50 50 52 51 55 55 58 58 56 55 48 46 42 41 39 39 42 41 39 37 37 37 37 36 34
46 46 48 48 49 47 47 48 46 45 49 46 46 46 46 45 49 50 50 50 51 48 52 50 54 55 58 58 56 52 47 44 41 40 40 38 38 39 39 37 36 36 37 37
46 48 48 48 49 49 48 47 46 45 46 44 44 44 45 46 46 49 49 42 49 51 50 52 52 50 56 56 56 55 52 47 44 42 41 40 40 37 38 38 38 37 37 38
49 49 50 50 50 48 46 45 44 43 41 42 44 45 45 45 44 44 47 46 44 48 47 47 49 51 51 55 57 54 53 52 47 46 45 44 42 42 41 41 41 40 39 39
49 51 50 50 50 49 44 42 42 41 43 44 43 44 43 41 39 38 37 46 43 44 44 45 50 52 52 53 55 55 52 52 50 48 48 48 47 46 45 43 44 43 43 43
49 52 51 48 45 44 42 42 41 43 44 43 42 41 41 37 37 36 40 44 47 48 47 46 50 52 51 55 53 50 51 51 52 50 49 47 49 49 48 48 47 45 46 44
50 47 46 44 43 40 43 43 41 42 43 44 43 43 39 40 37 37 42 44 48 48 48 51 51 51 51 54 53 50 49 51 50 50 49 48 48 48 48 48 48 48 48 45
47 42 41 45 40 38 39 39 36 37 35 33 34 34 32 33 36 35 44 45 46 47 48 50 51 52 54 54 53 53 52 50 50 49 48 47 47 47 47 48 48 49 49 49
42 41 39 41 38 37 36 37 35 34 35 34 33 32 32 31 33 35 40 40 42 40 42 42 43 46 48 50 51 51 52 50 48 49 48 47 47 47 47 47 49 50 50 49

GFSNGP_sfc_dewp_105.txt.gz
Dewpoint
30 33 28 28 28 22 17 22 23 43 47 53 57 58 61 62 63 64 65 66 65 65 67 67 69 69 69 68 68 69 68 68 68 68 68 69 68 68 68 69 70 71 71 69
36 41 39 36 30 31 26 17 42 52 52 57 58 58 59 59 60 62 63 64 65 65 66 66 67 68 68 69 69 69 69 68 70 70 69 69 69 68 68 68 68 70 69 67
36 40 39 35 38 36 42 43 36 43 51 53 53 53 56 59 59 61 62 62 63 63 62 63 64 64 65 68 69 69 69 69 69 69 69 69 70 69 68 67 68 69 64 58
39 40 33 42 42 41 44 46 47 48 49 49 50 49 50 60 61 61 61 62 61 61 60 61 61 62 62 66 68 68 69 69 69 69 68 67 67 67 66 67 67 66 63 59
39 37 40 42 45 41 40 44 49 52 55 55 57 62 60 60 61 60 61 60 59 59 58 58 59 60 61 60 61 61 62 63 66 66 65 65 64 66 66 67 66 66 63 58
40 37 36 44 43 46 42 43 48 53 56 58 58 55 58 59 60 59 59 58 58 57 56 56 56 58 58 57 57 56 56 60 61 61 62 61 61 62 62 64 66 61 60 57
40 41 42 46 45 46 40 43 50 53 53 56 52 58 59 59 59 58 58 56 56 55 54 53 54 55 55 55 55 56 56 57 57 57 59 59 59 59 60 62 64 62 58 55
39 37 37 44 42 36 45 46 49 58 58 59 59 59 58 58 58 57 56 55 54 53 52 53 52 53 53 52 54 54 54 55 56 57 56 56 56 57 58 58 60 62 62 56
43 42 45 46 47 49 48 44 45 46 55 56 57 57 57 57 57 57 56 55 54 53 52 52 52 52 50 51 51 51 51 51 51 51 53 54 53 54 52 55 54 57 58 57
44 44 46 46 44 45 45 41 42 44 46 50 52 56 56 56 55 55 55 55 54 53 52 52 52 51 50 51 52 51 51 50 50 49 50 51 47 51 47 46 48 49 48 49
44 46 42 42 44 43 41 41 40 43 48 49 51 54 55 55 55 55 55 54 54 54 53 53 53 51 51 52 52 51 52 51 50 50 50 42 39 42 38 36 38 41 39 41
41 47 46 44 46 46 42 42 42 44 47 48 51 55 56 55 55 55 55 56 56 55 55 54 54 51 52 53 53 51 50 50 50 50 48 45 40 37 40 40 40 39 39 41
46 46 44 46 47 44 43 44 43 46 45 45 47 54 57 57 57 56 55 55 56 55 55 56 56 55 55 53 54 53 52 51 48 48 47 50 47 42 36 36 40 37 38 38
47 46 43 45 45 45 46 46 46 46 44 47 46 47 55 55 56 55 55 55 56 57 55 55 55 53 53 53 51 51 50 46 44 45 42 43 48 47 43 37 33 31 36 38
44 44 45 44 47 45 46 47 44 42 44 45 46 47 51 54 54 55 56 57 56 54 56 56 55 55 54 52 51 51 51 48 44 42 43 43 42 42 43 42 40 37 35 35
46 46 46 46 48 47 46 45 44 44 45 46 48 49 48 48 49 49 51 53 56 55 56 55 54 55 54 52 52 51 51 52 46 41 42 39 38 39 39 39 43 40 37 36
46 45 45 46 47 47 47 46 46 46 45 48 49 48 47 48 47 49 49 51 53 54 55 56 55 57 56 54 52 50 49 48 48 40 41 40 39 39 38 39 39 43 43 42
49 49 51 50 48 46 45 44 45 47 49 49 47 46 47 48 49 50 51 50 49 49 51 53 53 55 56 57 56 53 51 48 43 41 40 42 38 39 39 39 38 39 32 30
49 49 51 50 49 46 46 45 47 49 48 49 49 48 48 49 49 49 49 48 47 47 47 50 54 54 55 56 56 56 55 54 52 42 40 41 41 40 39 39 37 40 36 31
51 51 50 50 50 49 49 49 49 49 49 48 47 46 46 47 47 47 47 47 46 47 49 49 48 51 52 56 58 55 54 53 53 46 40 38 39 40 39 39 37 38 37 36
51 50 51 51 51 51 51 50 50 49 48 47 45 46 47 47 46 47 44 42 44 46 47 49 48 49 54 53 53 53 53 53 50 48 41 39 39 40 39 38 38 37 39 38
49 50 51 50 49 49 49 47 47 46 46 47 46 46 44 44 46 44 44 45 45 48 45 45 46 49 50 53 51 51 51 51 49 48 48 46 44 42 42 40 39 40 39 39
50 51 51 50 48 47 47 46 44 46 47 45 46 44 44 44 44 42 41 44 46 47 47 47 49 51 51 50 49 49 49 49 48 48 49 49 48 47 46 46 46 45 42 41
52 51 51 48 47 46 45 45 45 46 46 45 45 46 45 44 41 41 43 46 48 48 48 50 51 50 50 49 49 48 49 48 49 47 47 47 49 48 48 48 47 46 46 44
51 51 49 49 48 47 47 46 46 45 46 46 46 46 45 45 41 41 45 46 48 47 48 51 51 51 49 49 48 48 48 48 48 49 48 45 46 48 48 48 48 48 48 47
51 49 49 47 45 45 44 45 42 44 44 43 43 44 37 42 42 46 46 46 46 44 45 48 48 48 49 49 49 49 49 48 48 47 46 47 44 44 46 47 47 48 48 48
49 46 46 46 45 45 44 43 42 41 39 37 37 35 35 36 40 39 44 45 42 42 42 42 43 45 46 46 47 49 49 49 48 48 46 47 46 46 46 47 47 48 48 48

GFSNGP_sfc_dewp_108.txt.gz
Dewpoint
29 40 39 37 38 38 33 26 18 25 44 52 53 60 61 63 64 63 60 62 64 65 65 65 66 69 68 69 69 69 68 68 68 68 69 69 69 69 69 69 68 69 68 67
38 38 39 38 40 43 44 45 51 52 52 57 60 61 61 62 63 63 61 62 64 64 66 66 67 67 69 69 68 68 68 67 68 68 67 66 68 69 68 68 67 69 67 64
35 39 38 39 40 43 45 46 48 47 50 56 56 58 59 61 62 63 64 64 64 64 65 66 66 68 66 68 69 68 68 68 69 68 68 68 69 68 67 66 68 64 58 53
35 36 33 39 47 43 44 46 51 53 53 53 53 53 59 61 62 62 62 62 62 61 61 61 62 63 66 69 68 68 68 68 68 68 68 67 66 66 65 66 66 61 57 53
34 35 39 42 44 44 41 42 52 55 56 57 58 60 60 61 62 62 61 61 61 61 60 60 62 62 63 64 65 65 66 68 68 67 66 65 65 65 65 65 64 62 58 53
36 33 32 41 44 47 46 41 52 54 54 56 58 54 57 60 59 58 58 58 57 58 58 59 59 60 60 59 60 59 61 62 64 64 64 62 62 61 62 65 65 62 57 52
38 35 39 44 45 46 40 40 52 54 53 57 56 58 59 60 59 57 57 56 56 55 55 55 58 58 58 58 57 57 58 58 59 61 61 59 59 59 61 63 61 59 56 53
35 32 30 43 45 41 44 50 54 54 55 55 55 56 60 59 57 55 55 54 54 53 53 53 55 56 55 55 56 57 56 57 58 58 58 57 57 58 58 62 61 59 53 51
44 39 42 45 44 48 48 54 55 53 58 56 53 56 59 58 57 56 55 54 53 52 52 52 52 51 50 51 51 52 52 52 54 53 53 54 53 53 52 56 58 59 59 53
39 40 45 46 45 48 48 42 45 53 57 59 59 59 57 57 56 55 54 53 52 51 51 50 51 50 50 51 51 49 49 48 49 50 47 44 47 49 45 44 47 46 46 53
41 42 44 43 40 39 41 43 46 47 52 58 58 58 56 56 56 56 54 53 53 53 52 52 52 49 50 50 50 49 49 47 47 46 42 39 40 41 37 36 40 40 42 43
39 42 39 40 42 41 40 42 46 45 46 52 57 57 57 55 54 54 54 53 53 52 52 52 52 49 50 50 51 50 49 49 50 49 48 39 37 35 39 38 38 38 38 37
44 44 41 44 45 43 42 45 45 44 45 50 57 57 57 55 55 55 54 54 54 53 52 52 51 50 51 51 51 49 47 47 47 48 46 46 42 37 34 34 38 36 36 37
44 42 42 42 41 43 45 46 47 46 45 47 54 55 55 55 55 55 54 55 55 54 54 54 53 52 52 52 52 51 50 48 44 47 46 47 48 44 41 35 32 29 34 36
43 42 42 43 43 45 45 43 42 44 46 47 50 50 50 52 53 54 55 56 56 55 53 54 53 52 52 52 50 48 49 48 47 42 42 42 44 47 46 41 37 33 33 34
42 41 43 43 44 45 44 43 44 45 46 45 45 46 47 47 48 49 51 53 53 52 55 55 54 55 53 51 50 49 49 51 48 44 40 39 38 39 40 42 40 38 33 31
42 41 42 46 44 43 43 44 44 45 46 45 45 46 46 47 48 48 48 48 47 49 52 52 51 53 55 53 51 51 52 50 52 45 41 41 39 37 37 38 43 41 38 36
43 43 44 46 45 44 43 45 46 46 45 45 46 46 47 46 46 46 46 46 46 45 50 51 50 52 52 54 53 52 51 51 52 49 43 40 39 38 38 37 38 42 42 40
48 49 47 45 43 43 46 46 46 47 47 46 46 46 46 45 45 45 44 43 44 43 45 47 51 49 49 52 55 52 52 51 51 49 45 43 41 40 38 38 38 39 38 36
49 49 47 46 46 46 47 48 47 46 46 45 44 44 44 44 44 44 44 42 44 45 45 44 44 46 47 49 54 53 52 52 51 50 49 45 39 39 39 39 38 39 35 33
48 48 47 48 48 48 47 46 45 44 44 44 44 44 44 43 43 42 39 39 41 44 44 46 44 44 46 49 50 50 51 51 50 50 51 50 44 39 39 39 38 38 37 34
49 48 48 47 46 46 46 44 44 44 44 44 44 43 41 41 43 43 43 41 42 47 46 45 45 48 49 50 48 48 48 48 48 46 46 48 48 44 41 40 38 39 39 38
48 48 47 45 43 43 42 42 43 44 43 43 42 41 41 42 42 40 37 42 45 46 46 46 50 51 51 48 46 47 47 46 46 45 45 46 48 48 47 46 45 45 43 40
49 48 47 45 43 41 40 42 44 43 42 43 42 41 41 42 41 42 41 46 47 46 47 48 50 50 50 46 46 45 45 45 46 45 46 47 48 48 48 47 47 46 46 45
48 48 45 43 43 41 41 42 42 42 42 41 42 43 43 42 38 39 44 45 46 44 44 48 49 49 47 46 46 46 45 45 46 45 45 44 43 45 46 46 47 48 48 48
48 47 45 45 44 43 43 42 41 42 43 43 43 43 44 42 41 42 43 45 44 43 42 44 44 44 44 44 44 45 45 46 46 45 45 46 45 43 44 45 46 48 48 48
47 47 44 43 43 43 43 42 41 42 43 42 41 39 38 35 40 44 44 44 43 41 40 41 41 43 43 43 43 44 44 46 46 47 46 44 44 43 43 44 45 45 46 48

GFSNGP_sfc_dewp_111.txt.gz
Dewpoint
29 40 39 41 43 44 40 41 18 20 23 45 55 58 59 59 60 59 61 62 64 64 64 64 65 66 66 68 69 70 70 68 69 70 71 70 70 69 69 69 69 69 69 67
37 39 39 39 41 44 45 47 45 50 50 58 60 61 61 61 61 59 60 60 62 63 64 65 66 67 67 68 68 68 68 69 69 69 69 68 68 68 69 68 68 69 67 65
34 38 35 34 40 43 44 49 50 46 51 53 54 57 58 61 62 62 62 63 64 64 65 65 66 67 67 68 68 67 67 68 68 68 67 67 67 68 68 68 68 64 60 56
34 36 31 36 45 45 43 47 53 54 53 53 58 60 61 62 62 62 62 62 62 62 62 62 64 65 66 68 68 68 67 67 67 67 68 68 68 67 66 67 63 58 53 50
33 33 37 42 43 42 40 41 53 54 55 58 60 59 59 61 61 60 61 61 61 61 60 61 62 62 65 65 66 67 67 68 67 68 67 66 65 64 65 64 60 57 52 48
35 31 32 40 43 47 46 40 53 55 57 57 57 53 56 59 58 58 57 57 59 60 60 60 61 62 62 64 65 65 66 67 67 66 65 64 64 64 64 63 61 57 53 46
37 33 36 41 45 46 37 38 52 55 57 57 56 57 59 59 57 56 56 56 56 56 56 58 60 60 59 59 59 61 62 62 63 63 63 63 62 63 64 63 59 56 53 47
34 31 28 43 44 39 42 51 52 53 56 55 58 59 58 57 56 55 54 54 54 54 54 55 56 57 57 56 58 60 61 61 60 60 61 58 58 60 62 61 59 56 52 48
40 38 41 44 45 46 50 53 54 56 54 54 55 58 58 57 56 54 54 53 53 53 52 53 53 54 53 52 54 55 55 55 56 55 55 55 55 52 55 60 60 57 53 50
38 41 43 46 47 48 50 50 53 57 55 54 57 59 57 56 55 54 54 53 52 52 51 51 51 50 49 50 49 48 48 48 50 51 45 45 47 48 47 48 48 49 49 56
40 43 45 45 42 43 47 50 52 56 58 59 59 57 56 55 55 54 52 51 50 50 49 49 49 49 50 50 48 47 46 46 46 46 41 41 39 39 38 36 41 43 43 50
37 41 40 41 41 44 46 47 49 51 52 57 59 57 56 55 55 54 53 53 53 52 52 51 48 48 48 48 48 48 47 48 49 47 41 39 38 35 39 38 38 37 38 40
39 43 40 41 42 44 45 45 47 52 56 56 57 56 56 54 54 54 53 53 53 52 51 51 50 48 48 49 50 50 48 48 48 49 48 42 39 38 36 35 37 36 35 37
44 43 42 42 40 43 46 47 48 48 54 56 56 56 55 54 54 53 53 53 54 53 52 51 50 49 50 50 50 49 49 50 44 47 47 47 46 44 39 37 34 32 33 35
41 41 41 42 44 44 46 46 47 50 53 52 53 54 54 53 53 53 55 55 55 54 52 52 52 53 52 51 50 49 49 48 47 43 44 44 43 46 46 42 39 35 31 34
42 43 42 42 43 43 44 46 46 46 46 46 46 47 48 48 49 50 50 52 52 51 52 53 53 53 53 52 51 49 48 50 49 46 44 41 38 40 44 45 43 39 34 31
40 41 42 43 43 43 44 45 45 44 45 45 46 47 47 47 47 46 47 46 48 50 50 49 48 50 51 53 51 51 50 50 51 48 45 42 40 38 37 38 41 41 39 35
41 42 44 44 44 43 44 45 45 45 44 45 47 47 46 45 45 44 43 43 43 44 45 47 49 48 48 49 51 51 50 50 50 49 48 45 41 40 39 38 38 41 41 40
44 44 46 45 44 44 45 46 45 45 46 47 46 45 45 44 43 43 43 43 42 41 42 44 48 45 45 47 51 51 50 50 49 48 48 46 43 42 39 38 38 38 40 41
48 47 46 45 46 46 46 47 46 46 46 45 45 44 43 43 43 41 41 42 42 42 43 43 43 43 44 45 50 48 50 50 50 49 49 48 47 44 42 39 38 38 38 39
49 47 46 46 47 48 47 46 45 44 44 44 43 43 43 43 41 39 39 38 41 42 43 46 44 44 45 48 48 46 46 48 49 48 48 48 47 44 43 44 44 40 38 37
47 46 47 47 46 46 45 44 44 44 44 44 43 42 41 41 43 42 41 39 41 48 45 44 45 49 49 50 45 44 45 46 46 46 46 46 46 46 45 45 46 43 41 38
46 47 47 46 45 44 43 43 43 43 43 43 41 39 40 41 40 40 37 40 44 46 44 45 49 51 51 45 44 44 44 44 44 44 44 44 44 44 44 44 45 47 43 40
46 45 45 44 43 42 41 43 43 43 43 42 40 40 41 41 41 42 39 44 46 45 45 46 48 50 48 44 44 44 43 43 44 44 43 44 44 45 45 45 45 47 47 47
46 45 43 42 41 41 41 43 42 41 41 42 41 41 41 41 38 39 42 44 46 43 42 47 48 47 43 42 42 43 43 43 43 43 43 43 43 43 44 46 48 48 48 48
46 44 43 42 41 41 42 42 41 42 41 41 41 42 42 43 42 39 42 44 44 43 41 43 42 43 42 41 42 43 43 46 47 46 46 43 43 43 42 43 45 47 47 48
47 44 44 43 42 42 42 42 41 41 41 41 40 42 43 42 41 41 43 43 44 42 40 41 41 42 42 41 41 41 41 41 41 43 43 44 46 45 42 42 42 43 45 48

GFSNGP_sfc_dewp_114.txt.gz
Dewpoint
30 38 41 42 42 44 39 41 21 35 45 53 56 58 56 58 59 60 61 63 64 64 65 66 66 66 67 67 68 69 69 70 69 70 70 70 70 70 70 70 70 69 70 70
38 38 39 38 41 44 46 49 47 48 48 57 59 61 61 60 59 60 61 61 62 64 64 64 65 66 67 68 68 69 69 68 69 70 69 69 69 69 69 69 69 69 68 67
32 38 36 36 39 42 45 48 49 47 49 54 56 58 60 61 61 60 63 63 64 64 64 65 66 66 66 67 68 68 68 68 68 69 69 69 69 68 68 68 68 68 66 62
35 36 31 38 45 44 43 46 52 53 53 57 58 59 60 61 61 62 63 63 63 63 64 63 64 67 68 68 68 67 67 68 68 68 68 68 68 68 68 68 66 63 58 53
34 34 36 42 45 42 40 41 51 53 55 58 59 58 58 60 60 60 60 60 61 61 61 62 63 65 66 67 67 67 66 67 68 68 68 68 68 67 67 65 61 58 55 52
35 30 31 39 44 46 44 41 50 55 56 58 57 52 57 59 58 57 58 58 59 60 60 60 61 64 66 65 66 66 66 66 68 68 68 66 66 66 66 63 60 54 51 50
35 32 35 40 45 47 39 39 53 56 57 56 54 55 59 58 57 56 56 56 57 57 56 58 60 61 61 60 59 62 63 63 63 65 65 65 65 66 66 62 58 55 51 48
34 31 27 44 45 41 43 53 54 55 57 56 57 57 57 56 55 56 55 55 55 55 55 57 59 58 56 56 59 61 61 60 60 60 61 63 63 63 64 62 59 58 50 46
37 36 40 43 44 47 51 53 53 55 54 58 57 57 56 55 55 55 54 54 54 53 53 53 55 56 55 56 56 57 57 57 58 58 59 58 58 59 61 60 58 54 51 48
38 41 43 46 47 50 53 53 55 55 54 55 57 57 56 55 55 54 54 54 53 53 52 51 50 50 50 50 51 49 50 53 54 55 53 52 53 51 57 55 57 58 57 54
39 43 46 46 47 46 50 54 57 55 55 57 58 56 55 54 54 54 53 52 50 50 50 50 51 51 50 50 49 47 47 47 46 43 43 41 39 42 41 38 43 47 47 53
37 42 41 41 44 50 51 53 56 56 58 59 58 56 56 55 54 53 52 52 52 52 52 50 50 50 50 50 50 48 47 48 48 45 42 42 41 39 39 38 38 37 38 44
38 43 41 43 44 48 50 51 53 54 57 58 58 57 56 55 55 54 53 54 53 53 53 52 48 47 49 50 52 51 50 50 50 48 46 43 42 42 43 41 37 36 35 37
44 43 42 42 41 45 48 49 53 56 57 58 57 56 55 54 54 54 53 54 54 53 52 51 51 51 52 52 52 51 50 49 48 48 48 48 46 45 43 42 42 41 36 36
44 43 42 43 46 46 48 51 53 54 55 55 56 55 55 54 54 54 55 55 55 54 53 53 53 54 53 52 51 51 50 50 49 46 47 47 47 47 47 45 43 41 37 36
43 43 43 43 45 46 48 50 50 49 51 52 51 51 52 52 51 51 52 53 53 53 54 54 52 53 55 53 53 52 51 50 50 48 47 45 43 42 44 46 46 44 42 38
42 42 43 44 44 46 47 49 49 48 48 49 49 49 48 47 47 47 49 49 49 48 49 50 50 50 51 52 53 53 54 52 51 50 47 45 43 42 41 41 43 44 43 42
43 43 43 44 44 45 46 48 47 47 48 48 48 47 47 46 45 45 45 45 44 44 45 47 50 47 47 48 52 53 53 52 52 51 51 49 47 45 43 41 40 40 41 42
44 44 45 45 45 46 46 46 46 47 48 48 47 46 46 45 44 44 44 44 43 43 44 45 48 46 46 48 51 51 51 51 52 52 51 50 49 48 45 43 42 41 40 40
46 46 47 46 47 46 47 47 47 47 48 46 46 45 44 44 45 45 44 42 43 44 46 45 46 45 47 48 51 50 48 48 50 51 52 51 50 49 49 44 43 42 42 41
48 48 47 47 47 48 47 47 46 46 46 46 44 44 44 44 42 41 41 41 44 45 46 47 47 46 49 51 51 49 47 48 49 50 51 51 50 50 49 48 47 47 46 45
48 47 47 47 47 47 47 46 46 46 45 45 45 44 43 42 42 42 43 40 43 46 46 46 47 50 50 49 47 47 47 47 48 48 49 49 49 48 48 48 48 48 48 47
46 47 47 47 46 46 45 45 45 45 44 45 44 43 42 43 43 41 40 43 45 46 46 46 49 50 49 48 47 47 47 47 47 47 47 47 47 48 48 48 48 48 48 48
47 47 46 46 45 44 43 44 44 45 45 45 43 43 42 41 42 42 40 44 46 46 45 46 48 48 44 46 46 46 47 47 47 47 47 44 48 47 47 48 48 49 49 48
47 46 45 45 44 44 44 44 43 43 43 43 42 42 43 43 43 43 43 45 46 45 44 48 48 46 45 45 45 46 47 48 48 48 48 48 47 46 46 46 48 48 49 49
45 45 45 45 44 43 43 43 42 43 42 41 41 42 42 43 42 41 43 45 46 45 43 45 45 46 46 45 45 46 46 47 48 48 47 47 46 46 46 45 46 47 49 49
45 43 43 42 42 43 43 43 42 42 42 41 41 43 43 43 43 43 42 43 45 44 43 42 43 44 44 45 45 45 45 45 43 45 45 45 45 46 46 46 47 48 48 48

GFSNGP_sfc_dewp_117.txt.gz
Dewpoint
31 37 39 39 40 44 39 43 27 31 44 53 56 59 59 58 59 60 61 61 64 65 66 66 67 69 70 70 70 71 71 71 71 74 73 73 72 72 71 71 71 72 72 72
36 37 35 38 38 43 47 48 48 47 48 56 59 61 59 58 59 60 62 62 64 65 66 66 66 68 68 70 70 71 71 71 73 72 71 72 71 72 71 71 70 71 71 69
31 34 35 36 38 38 44 48 49 45 51 55 57 59 60 59 59 61 61 62 64 65 65 66 66 67 67 68 69 70 70 71 71 70 70 70 70 71 71 70 69 70 69 67
35 36 31 36 44 42 41 44 49 53 53 57 58 59 60 62 61 62 62 63 64 66 66 67 68 68 67 68 68 68 68 68 69 68 68 69 69 69 69 69 69 68 65 61
37 37 35 40 42 42 39 37 47 53 55 57 59 58 59 60 61 61 61 61 61 63 63 65 66 69 68 68 68 68 67 68 68 69 68 68 68 68 69 69 67 64 60 56
37 33 29 38 42 44 44 39 46 55 56 57 57 52 56 58 59 59 60 60 60 60 61 62 62 64 67 67 68 68 67 67 68 68 68 68 68 68 67 67 64 61 59 55
39 37 35 40 43 46 39 40 51 55 56 59 57 58 59 59 58 58 59 58 58 59 58 60 61 63 63 64 63 65 65 65 65 64 66 67 66 67 65 62 61 60 58 56
38 38 32 43 43 43 45 51 54 58 58 58 58 59 58 58 58 57 57 57 57 58 57 58 59 59 58 59 61 62 63 63 63 62 62 62 64 66 63 61 59 58 56 52
42 39 44 46 46 48 51 53 55 58 59 58 58 57 57 57 58 58 57 57 56 55 55 55 57 57 55 56 58 59 59 59 58 60 59 58 61 63 63 63 61 59 53 49
42 44 46 47 49 50 54 53 57 58 58 57 56 56 57 57 57 57 57 56 56 55 52 52 52 52 53 54 55 55 54 55 56 54 55 55 55 58 60 61 60 57 57 55
42 45 47 47 50 48 53 56 55 56 57 57 56 56 56 57 57 57 56 53 53 54 53 53 52 52 51 52 52 50 50 48 46 46 48 49 49 50 53 47 49 56 53 56
34 48 49 48 47 52 55 56 55 55 56 58 57 56 55 55 55 54 53 54 53 52 52 51 50 50 52 52 51 49 47 46 45 44 44 44 43 41 40 40 41 38 39 46
43 47 46 47 49 49 53 56 56 55 57 59 58 56 56 55 56 55 56 55 54 53 51 50 50 51 54 55 53 53 51 52 49 48 46 46 45 46 44 41 37 36 36 38
45 47 44 46 47 49 51 55 56 56 59 60 58 57 57 56 56 56 56 56 55 55 54 54 54 54 54 55 55 53 53 50 49 49 50 50 49 48 47 47 46 46 37 36
46 46 44 48 48 49 51 55 56 57 59 59 59 58 57 57 57 57 57 57 56 55 55 56 56 56 55 55 55 54 53 51 51 50 49 49 50 49 46 47 47 46 46 39
47 45 44 46 48 49 50 52 54 57 57 57 58 57 57 57 57 57 58 58 58 57 57 56 54 55 57 57 57 55 55 51 51 52 51 50 48 46 45 45 45 45 46 46
45 45 45 45 47 48 49 50 52 55 56 56 57 56 55 54 54 54 53 52 53 53 52 51 51 52 53 52 51 51 52 53 52 52 52 51 50 49 48 46 46 45 43 44
47 46 47 48 47 49 49 51 52 54 55 54 54 53 53 53 52 51 50 49 48 48 48 50 49 49 49 50 48 46 46 47 50 49 50 51 51 52 50 50 50 48 45 43
47 48 47 48 48 49 50 51 52 54 53 53 52 51 51 51 50 49 48 48 47 46 46 47 47 48 49 51 49 47 44 45 44 46 49 50 49 49 48 48 47 47 47 46
47 48 48 49 50 50 51 52 51 52 52 51 51 50 49 48 49 49 47 45 44 42 47 46 47 47 49 50 50 48 48 47 47 46 47 47 48 49 49 46 48 46 46 45
48 49 49 50 50 51 51 51 51 51 51 51 50 50 49 49 49 47 45 36 47 47 47 48 46 45 48 48 47 48 47 47 48 48 49 49 49 47 47 48 47 46 46 45
50 50 50 50 50 50 51 50 51 51 50 50 50 49 48 47 46 45 45 39 43 46 45 45 46 50 46 46 46 46 49 49 48 47 47 48 48 48 48 48 48 47 47 47
50 50 50 50 50 50 50 50 51 50 49 49 49 49 45 41 40 37 35 46 44 45 43 44 48 47 46 46 49 50 50 50 50 49 49 49 48 47 47 48 47 47 47 49
52 52 52 51 50 49 49 50 49 50 50 49 48 48 45 42 42 40 41 44 46 45 41 43 45 45 47 46 48 49 48 50 50 49 48 45 44 43 43 46 48 48 49 49
52 52 51 50 49 48 50 49 49 49 49 49 49 47 46 42 38 41 42 43 46 44 41 48 48 45 47 48 47 48 49 50 49 49 46 46 44 44 46 47 47 48 49 50
51 48 49 50 48 47 46 47 45 46 45 45 44 43 42 43 42 43 44 45 45 45 41 45 45 47 49 49 49 49 48 46 48 49 47 47 46 46 48 48 48 48 49 49
49 47 49 48 47 46 46 46 45 45 44 43 42 42 41 41 41 41 43 43 43 43 42 42 42 44 44 45 46 47 47 48 44 45 48 49 49 48 49 49 50 49 49 49

GFSNGP_sfc_dewp_123.txt.gz
Dewpoint
18 14 15 18 35 41 41 40 28 31 37 41 48 50 57 55 57 60 62 64 65 65 65 67 67 69 69 70 70 69 69 69 71 73 72 73 73 74 74 73 72 72 71 71
25 21 19 17 25 41 39 34 37 35 35 50 55 59 60 56 58 59 60 61 63 64 65 65 67 67 68 70 73 73 72 71 74 75 73 73 74 73 74 73 73 73 73 71
28 24 27 26 23 29 32 29 41 38 39 56 55 59 60 61 59 62 59 60 61 66 66 66 67 69 69 71 72 72 72 71 72 72 73 73 72 75 75 75 75 73 73 72
25 27 27 30 38 40 38 30 39 44 37 53 57 60 60 61 62 62 64 65 64 66 68 68 68 69 69 70 70 70 72 71 72 72 72 73 73 73 74 74 73 73 71 70
29 29 33 28 36 37 37 32 33 35 39 54 59 59 58 59 60 60 61 62 63 65 68 68 68 68 67 68 68 69 70 70 71 70 70 70 71 71 71 72 71 70 67 64
30 32 34 37 44 46 49 33 38 37 39 46 56 52 57 59 60 60 60 61 61 62 65 67 68 68 66 66 67 66 67 69 70 71 71 70 71 72 71 71 69 63 61 59
29 30 35 36 43 41 37 43 50 41 42 55 59 59 59 60 60 59 59 60 60 59 61 61 64 68 68 67 66 67 68 68 67 67 68 68 68 68 65 61 60 58 58 57
35 37 36 40 40 37 49 49 53 57 59 59 58 59 59 59 59 59 59 59 59 58 57 59 61 62 62 63 65 67 66 66 66 66 66 66 64 62 61 60 59 57 55 54
37 41 47 46 44 47 48 50 51 58 59 58 56 57 58 58 59 59 58 57 57 56 55 56 58 59 57 59 61 62 62 61 61 62 62 63 65 63 62 61 59 58 57 56
39 46 42 44 46 46 50 53 57 57 58 55 56 57 57 58 58 58 57 57 57 55 54 54 56 57 57 58 59 58 58 58 57 58 61 63 61 61 63 62 61 60 59 57
37 37 43 46 48 52 53 56 55 56 55 55 56 56 57 58 58 57 58 57 57 56 54 54 55 57 55 55 54 52 52 54 54 53 53 53 55 57 57 53 58 61 61 60
37 40 51 50 52 54 54 53 53 53 54 55 56 56 57 56 56 56 56 55 53 51 50 52 52 53 56 54 54 52 47 45 48 50 48 47 46 45 42 46 46 46 47 52
39 40 49 49 51 54 53 53 53 53 54 53 53 53 53 53 53 52 51 51 51 52 53 54 55 55 56 56 57 57 52 55 47 46 46 48 48 45 41 38 38 38 39 40
38 43 46 44 45 48 52 52 55 53 53 53 52 52 52 53 54 52 51 52 53 53 54 55 55 55 57 58 58 57 54 51 49 48 48 48 48 47 45 46 45 41 37 40
39 40 43 44 46 47 50 51 53 54 54 53 53 53 53 54 54 55 55 55 55 55 56 57 57 58 59 59 59 58 54 53 52 51 51 51 51 51 48 48 48 47 48 38
40 38 40 42 46 46 45 48 51 53 55 54 55 54 54 54 55 55 55 55 55 57 58 58 58 58 58 58 58 55 54 55 54 53 51 51 49 48 46 48 49 48 47 47
40 40 41 42 45 46 45 46 46 49 52 53 55 57 57 55 55 57 58 58 59 58 58 57 56 56 55 53 52 48 44 47 50 42 43 44 44 43 43 44 43 43 42 46
42 41 42 44 45 46 44 45 48 49 53 57 57 57 57 57 57 57 57 57 55 53 54 54 53 52 50 48 44 38 36 36 36 38 39 41 42 40 38 40 41 41 40 44
43 41 41 42 43 46 45 46 48 50 53 56 58 58 57 58 57 57 53 52 52 52 51 48 42 47 48 46 47 38 37 38 38 39 41 43 42 41 40 40 41 41 40 39
42 42 43 43 43 44 46 48 49 52 55 56 57 57 57 56 56 53 53 52 50 45 46 42 46 45 47 45 47 38 39 38 40 40 40 39 40 40 40 40 40 39 39 39
43 44 45 46 45 46 46 49 50 54 55 55 55 57 57 56 53 54 53 45 48 46 45 46 43 40 41 41 41 37 38 39 41 41 41 40 41 39 40 40 39 38 38 39
46 46 46 47 47 48 48 49 51 54 54 55 56 56 55 54 54 53 51 47 44 47 41 42 41 47 40 44 39 38 40 42 41 42 41 41 40 39 38 39 40 41 42 43
46 47 47 49 49 50 50 51 52 54 55 57 56 56 54 50 49 46 44 48 41 43 42 40 44 48 48 45 43 42 42 43 41 39 39 40 37 38 39 40 42 43 44 46
51 53 52 51 50 51 53 54 53 56 58 59 57 56 53 48 47 45 45 44 44 43 41 39 42 48 48 43 43 43 43 43 43 43 41 41 38 37 38 40 42 43 44 44
53 52 53 53 53 50 54 55 54 56 57 57 56 55 53 48 46 43 42 40 43 42 40 47 47 47 44 41 41 43 43 44 43 45 42 43 41 40 40 41 41 43 44 46
54 50 50 55 50 50 51 52 51 53 53 52 53 52 48 46 45 42 43 41 37 42 40 41 41 42 44 43 43 43 41 42 42 46 42 43 43 43 42 43 42 42 42 41
54 49 50 51 51 50 50 51 50 51 51 50 50 50 47 45 44 41 42 39 35 35 37 39 38 41 41 42 41 41 41 40 41 38 42 44 45 44 43 43 43 43 44 43

GFSNGP_sfc_dewp_129.txt.gz
Dewpoint
19 17 20 20 18 19 17 33 30 31 35 47 51 48 51 60 61 60 58 61 63 64 65 66 67 68 69 69 70 71 68 67 69 70 71 71 71 71 71 72 71 71 72 72
29 25 22 19 18 18 19 28 33 34 41 53 52 52 51 59 60 61 62 62 63 63 64 64 67 68 67 67 68 68 64 68 70 70 70 70 70 71 71 71 71 72 71 70
29 30 26 24 33 32 32 34 36 33 40 54 50 51 56 59 60 61 61 61 61 61 63 66 66 67 66 66 67 67 66 68 70 71 70 70 71 70 71 70 70 70 69 69
32 32 27 28 35 34 34 34 35 36 52 54 53 56 58 58 59 60 61 59 59 60 61 65 67 67 67 66 66 65 66 69 69 69 69 70 70 69 69 70 69 68 68 65
28 29 28 30 37 36 35 35 41 39 52 55 58 57 57 59 60 59 59 60 60 62 63 64 63 66 66 67 67 66 69 68 69 69 69 69 68 68 68 68 68 67 67 64
28 32 28 33 41 44 42 37 48 50 51 54 56 48 52 58 59 59 59 60 60 61 61 61 62 65 65 65 67 67 68 68 68 68 67 66 67 65 64 63 60 58 55 54
30 30 31 41 43 46 37 41 48 51 54 55 52 57 58 59 59 59 59 58 59 59 58 59 62 65 64 64 64 66 67 66 66 65 64 64 63 62 60 59 57 56 55 54
37 35 36 48 45 41 47 52 51 52 53 54 57 58 59 59 59 59 57 57 58 57 57 58 60 65 62 61 65 66 66 65 65 64 64 62 61 60 59 57 56 55 54 54
39 42 50 50 45 46 52 55 55 52 54 54 53 58 59 58 58 57 56 56 57 57 57 57 58 61 59 60 63 62 62 62 64 63 62 62 61 59 59 58 57 56 55 55
43 47 46 46 50 50 54 54 58 54 55 54 54 53 57 57 57 56 55 54 54 54 55 56 57 58 58 60 61 61 60 60 62 62 62 62 62 61 60 60 59 58 57 55
43 48 50 50 54 51 57 55 54 60 57 58 56 57 58 57 57 57 55 54 54 53 52 52 55 57 58 59 60 59 59 58 57 58 57 54 51 53 55 51 55 60 60 58
43 49 49 50 55 55 55 54 53 55 59 58 57 57 58 58 57 55 53 53 53 52 52 54 54 54 56 58 59 58 56 57 57 57 57 55 53 46 42 43 43 42 44 55
51 53 53 55 54 53 52 54 54 56 58 58 58 57 57 57 56 54 53 54 53 55 56 57 57 57 56 56 50 48 50 50 49 51 51 50 50 48 46 41 41 40 39 41
53 55 55 54 47 56 57 57 57 57 54 54 54 54 53 52 54 54 54 55 56 56 56 57 57 55 57 58 57 52 52 51 51 49 48 48 48 46 44 41 39 37 37 39
47 52 53 56 56 56 57 55 52 51 52 52 52 52 53 53 53 54 54 55 56 57 57 58 58 58 59 60 58 53 56 55 52 52 52 52 52 49 48 46 46 45 37 37
43 43 48 51 51 52 53 52 52 52 52 52 53 54 54 54 54 55 56 56 57 57 58 58 58 58 58 58 56 53 51 53 55 53 52 53 54 51 51 51 52 50 46 45
44 41 50 49 48 48 49 53 53 53 54 53 55 55 55 56 57 58 58 58 59 59 59 57 55 54 52 49 48 52 50 45 47 43 48 49 47 47 48 50 50 51 52 47
47 48 48 47 49 49 50 54 53 55 54 56 57 55 56 57 57 58 58 58 57 57 56 55 54 51 48 46 45 49 45 48 44 44 45 43 42 40 40 43 46 48 48 47
48 46 46 50 50 50 50 53 54 56 56 58 56 56 57 57 58 59 57 56 55 53 51 46 49 50 48 43 39 44 45 41 43 43 42 43 43 45 45 43 43 43 44 45
49 49 48 50 52 51 51 53 56 57 57 58 58 58 58 58 59 58 55 54 54 53 49 39 39 49 48 43 47 43 42 43 45 41 39 43 43 44 41 40 41 42 43 45
50 51 50 52 52 53 53 57 57 58 58 59 58 58 58 59 58 56 52 50 50 49 42 47 47 46 47 43 39 41 41 43 44 43 44 44 42 41 43 42 43 44 45 46
52 51 50 51 53 55 54 55 57 59 59 59 60 59 59 58 57 55 55 51 49 49 46 45 48 49 47 48 42 44 43 43 44 44 43 43 42 43 43 43 44 44 45 46
52 53 51 52 54 53 55 55 59 59 59 60 59 59 57 57 55 53 55 52 47 47 43 46 48 51 50 47 49 44 43 45 43 42 43 42 43 43 43 42 45 46 45 46
55 55 54 54 56 53 53 55 55 58 60 60 59 59 58 56 55 54 53 50 47 45 46 45 47 49 48 48 47 46 46 46 46 43 39 41 41 41 42 44 44 46 45 44
58 58 57 55 57 52 57 55 56 57 59 59 59 59 57 55 53 53 52 48 45 44 43 48 49 49 46 46 47 47 48 48 47 47 44 43 43 42 43 43 42 44 45 45
59 58 57 58 56 53 54 56 55 56 57 57 59 58 56 55 54 53 48 44 42 46 41 44 45 45 46 47 49 47 47 41 42 43 43 45 44 43 44 44 43 43 43 44
59 54 57 58 58 55 54 54 55 55 55 56 58 58 56 55 53 50 46 43 41 43 41 41 43 44 45 46 48 46 46 45 43 41 44 44 46 46 45 44 44 45 44 45

GFSNGP_sfc_dewp_132.txt.gz
Dewpoint
20 19 19 21 20 22 17 21 29 30 35 42 48 50 57 60 61 61 60 61 62 62 62 64 63 65 68 69 69 68 68 67 67 69 69 70 71 71 71 71 71 71 71 72
22 24 26 25 31 29 32 33 33 33 40 50 51 51 57 59 61 61 61 61 62 63 63 63 64 65 66 68 67 68 67 67 66 66 69 70 71 71 71 71 69 69 70 70
28 30 27 23 31 32 33 34 34 32 34 53 52 51 56 58 60 60 60 60 60 61 62 63 65 65 66 66 67 68 67 68 67 66 65 70 69 69 70 70 70 70 69 66
27 26 24 28 35 34 33 38 41 40 49 53 51 54 56 57 58 58 59 57 58 59 60 62 63 65 67 66 67 66 66 65 66 65 67 69 69 68 68 67 68 67 67 62
21 24 26 33 38 36 32 34 47 48 52 57 58 55 53 58 60 60 60 59 60 61 60 61 62 65 65 66 65 65 65 65 65 67 69 68 67 67 67 67 67 67 63 59
30 25 25 30 40 41 40 34 48 50 53 56 56 46 48 58 58 60 60 60 59 59 60 60 61 63 63 64 65 65 65 65 65 67 68 67 66 65 64 63 61 59 58 56
28 25 29 38 43 44 34 33 47 51 52 55 52 51 54 58 58 59 58 58 59 58 58 58 60 62 62 63 63 65 66 68 67 66 65 64 63 62 61 59 57 56 55 55
33 32 32 44 45 40 44 49 50 52 53 54 55 58 58 58 58 57 57 57 57 57 58 58 60 62 60 62 64 64 64 64 63 63 63 62 60 60 59 58 56 55 54 53
36 37 45 49 44 50 51 52 51 50 52 54 58 58 59 58 57 57 55 56 57 57 57 58 59 61 60 61 63 63 63 62 62 62 61 60 59 58 58 57 56 56 55 54
38 43 44 53 52 53 53 54 55 53 54 54 55 58 58 57 57 56 55 53 53 56 56 56 58 59 60 61 62 63 62 62 62 61 61 61 61 60 59 58 57 56 56 55
41 49 52 52 55 56 56 55 57 58 58 57 54 53 58 58 57 55 53 53 54 54 53 55 58 58 59 60 61 59 59 59 59 58 57 53 49 54 55 52 56 58 56 56
38 45 48 51 53 55 53 52 53 56 58 59 56 57 58 58 56 55 54 52 52 53 54 54 57 58 59 60 60 59 58 59 58 58 57 55 52 47 43 44 45 47 51 53
45 49 49 54 55 56 54 53 55 57 58 59 58 58 57 55 53 52 52 52 51 53 56 56 56 54 57 57 56 55 56 56 56 55 55 53 52 51 47 40 41 40 41 44
52 51 50 54 51 55 53 55 57 58 59 57 56 56 54 53 52 53 52 54 55 55 55 54 53 54 54 51 48 48 48 49 49 48 48 47 46 45 43 39 37 35 37 38
53 51 49 52 56 56 55 57 55 54 54 53 53 52 52 52 52 53 54 55 55 55 56 57 57 57 56 51 50 50 51 50 50 49 48 47 46 44 42 42 40 38 34 37
48 52 51 53 55 56 56 56 53 52 51 50 50 52 52 52 53 53 54 55 55 56 56 57 55 54 56 56 55 52 52 54 53 52 52 52 50 49 49 47 47 44 41 41
43 46 52 51 54 55 55 55 51 51 51 50 51 52 51 52 54 54 54 56 57 57 56 54 52 49 46 48 51 49 46 46 49 48 51 53 52 51 50 50 50 50 48 47
42 43 49 48 52 53 52 52 52 52 52 53 53 53 52 54 56 56 56 57 56 55 54 53 49 47 45 41 45 46 46 45 44 45 43 42 41 42 45 46 47 50 47 46
45 44 46 47 47 51 53 53 53 53 53 55 54 54 56 56 56 57 57 55 54 52 50 48 54 49 45 38 40 42 43 42 43 41 40 44 45 42 41 42 44 45 45 45
45 46 46 46 49 48 53 53 54 54 55 55 54 56 56 56 57 56 55 54 53 52 49 45 42 48 46 42 43 40 42 42 42 40 43 42 41 41 42 42 45 46 46 46
47 46 47 47 51 49 51 54 55 54 56 55 55 55 55 57 57 55 52 52 52 52 43 45 46 46 45 42 38 40 43 42 40 42 42 42 42 42 43 44 44 45 46 46
47 46 46 47 50 50 54 55 55 55 56 55 56 56 57 57 55 52 51 50 49 48 41 42 47 49 46 46 42 43 43 44 44 43 42 42 42 42 43 44 44 45 44 45
48 47 46 46 48 51 55 55 56 56 57 56 56 57 56 56 55 52 50 50 47 47 42 44 49 51 50 44 47 42 44 45 43 42 41 42 42 42 43 44 45 44 44 44
52 52 51 49 49 52 54 56 56 56 57 57 57 57 56 56 54 53 52 50 47 46 42 44 48 49 47 47 46 45 45 43 42 41 42 41 41 41 44 45 44 44 44 44
56 55 54 51 51 52 53 57 57 57 57 58 57 57 57 57 55 54 51 48 46 45 45 48 49 49 45 46 46 46 45 45 43 42 43 41 40 42 43 43 44 44 44 44
55 56 56 55 54 52 54 56 56 58 58 58 58 58 57 56 54 53 49 47 44 44 43 45 46 44 45 47 46 47 45 44 45 45 44 43 42 43 42 42 42 42 44 44
55 53 56 55 56 54 56 55 55 57 58 58 58 58 57 55 53 51 48 46 43 41 40 41 43 44 45 45 46 46 44 43 42 42 42 45 43 43 44 44 43 43 43 43

GFSNGP_sfc_dewp_135.txt.gz
Dewpoint
21 20 17 21 24 28 19 21 23 26 38 40 46 52 56 59 60 60 60 59 61 61 61 62 63 64 67 68 70 70 70 69 69 69 69 69 68 70 70 70 70 70 70 70
18 21 28 26 31 31 31 32 33 36 39 45 50 50 55 57 60 59 59 60 60 61 62 62 64 65 65 67 68 70 69 69 68 67 68 69 69 69 70 70 70 70 69 70
24 30 25 24 27 31 33 34 33 30 32 51 51 50 51 55 58 58 58 58 58 59 61 61 63 64 65 65 67 68 68 68 67 66 65 67 68 68 69 69 69 69 69 69
26 28 23 27 33 34 33 41 44 37 43 49 51 52 55 57 57 58 58 56 57 57 58 59 61 63 64 66 65 67 68 68 68 66 66 67 66 68 68 69 69 68 67 64
21 21 23 29 36 34 31 34 46 44 49 55 56 55 54 58 58 58 59 57 58 60 60 60 62 62 64 65 66 66 66 66 67 68 66 65 66 68 68 67 66 67 64 60
27 20 21 26 36 39 38 34 46 48 49 54 54 47 49 57 58 58 59 59 59 59 60 60 61 62 62 62 63 64 65 66 66 66 66 66 68 68 67 67 63 61 59 58
29 24 26 32 41 43 35 34 44 49 50 54 52 50 52 57 58 59 59 59 59 58 57 58 59 62 60 62 62 63 63 66 65 65 66 65 65 64 63 61 60 58 56 57
30 29 27 43 44 39 41 47 49 51 50 52 53 56 57 57 57 57 57 57 58 58 58 58 60 61 62 61 63 63 62 62 65 64 63 62 60 60 60 58 57 56 54 53
33 34 41 46 44 45 50 48 50 50 52 54 56 57 58 57 57 57 56 56 57 57 57 58 59 61 61 61 62 62 61 61 61 60 60 59 59 58 57 57 56 55 55 54
38 42 44 48 50 51 52 52 52 50 52 55 56 58 57 57 56 56 55 55 54 57 57 57 58 60 61 61 62 61 60 59 59 57 58 60 59 59 58 58 57 56 56 55
46 49 51 52 54 53 54 54 55 56 54 55 56 57 57 57 56 54 54 53 54 54 55 57 58 59 60 61 60 59 59 59 58 57 56 53 48 52 56 53 56 57 56 56
38 49 46 50 54 55 54 52 56 57 58 55 54 57 57 55 54 55 53 52 53 55 56 57 58 59 60 60 60 60 59 59 58 57 56 55 53 50 45 47 48 48 49 53
43 50 49 52 54 55 52 53 56 57 58 57 57 58 56 55 53 52 51 51 53 56 56 55 57 57 58 59 60 59 58 58 58 57 56 55 56 55 51 44 42 43 42 43
51 53 52 53 52 54 53 54 57 58 58 58 58 56 54 52 51 51 51 52 54 53 52 52 55 53 53 53 56 56 58 55 57 53 52 50 50 48 47 48 40 36 37 40
50 50 51 53 53 53 55 57 57 56 55 55 56 54 51 51 51 51 53 54 54 54 54 55 55 54 52 49 47 47 48 47 47 46 46 45 43 41 40 38 36 35 34 37
51 50 52 52 53 53 56 55 55 54 54 53 53 52 51 51 52 52 53 54 54 54 55 55 55 55 53 53 52 51 50 52 51 50 49 47 44 44 44 43 40 39 39 40
51 52 52 53 54 54 56 55 54 54 52 52 51 52 52 52 52 52 53 54 55 55 54 50 48 46 52 53 50 51 52 53 53 52 51 50 49 49 48 48 46 45 46 44
44 50 51 52 54 55 55 55 53 52 51 51 51 52 51 52 52 52 53 55 55 54 52 49 47 44 43 48 47 46 44 45 47 49 48 46 45 46 49 49 50 50 46 42
43 46 51 51 53 54 55 55 52 52 52 52 52 51 51 52 53 53 54 55 54 53 52 50 53 46 36 41 44 43 44 44 42 41 43 45 43 43 45 45 45 45 45 46
43 46 49 50 53 54 54 54 52 52 52 53 52 52 53 54 55 55 55 55 55 54 52 48 48 45 42 38 46 42 42 43 42 44 42 41 43 44 45 44 46 46 46 46
43 44 46 47 49 52 54 53 53 53 53 54 53 53 52 54 56 56 53 53 53 52 49 49 45 46 44 40 41 41 42 42 43 42 41 42 43 44 44 45 46 46 46 46
45 45 45 47 47 50 52 53 54 54 54 54 54 53 55 55 56 55 55 55 53 52 46 41 47 47 45 47 43 43 43 42 43 42 42 42 43 43 44 45 45 44 44 45
48 47 46 46 46 48 51 54 54 54 55 55 54 55 55 55 56 54 52 51 51 51 42 40 48 52 52 42 44 43 44 44 42 42 42 42 43 44 44 44 44 44 44 45
53 52 51 50 47 50 53 54 55 54 55 55 55 55 55 55 56 55 53 50 49 47 42 43 49 51 47 45 43 44 44 43 42 42 42 41 42 43 44 44 43 44 44 43
54 55 55 52 50 49 51 55 55 55 55 55 55 56 55 56 55 55 52 50 48 45 43 47 50 49 44 45 44 44 44 43 43 43 42 41 42 44 44 44 43 43 44 44
53 54 55 55 54 52 52 56 55 56 56 56 56 56 56 56 55 53 52 50 47 46 44 44 47 45 45 46 45 45 43 42 42 43 42 41 42 43 44 43 43 43 44 44
52 50 53 54 55 55 55 57 56 57 56 57 57 57 57 57 55 53 50 50 47 44 43 44 44 44 45 46 46 45 44 44 43 43 42 42 42 43 42 42 43 43 43 44

GFSNGP_sfc_dewp_138.txt.gz
Dewpoint
22 20 17 20 24 24 22 22 20 21 34 41 45 52 56 58 60 59 59 61 61 61 62 62 63 64 67 68 69 69 69 69 68 69 68 69 70 70 70 70 71 71 71 71
19 21 24 26 30 29 26 28 35 35 36 42 47 50 55 58 59 59 59 60 61 61 62 62 63 64 65 66 68 70 70 69 69 69 70 70 70 70 70 70 70 71 71 71
21 29 26 25 26 32 34 35 34 31 32 47 48 50 50 54 58 59 60 59 59 60 61 61 62 63 63 65 66 67 68 70 70 70 69 69 70 70 70 70 70 70 70 71
27 27 21 25 32 34 34 38 41 37 39 44 48 50 51 56 57 58 59 58 58 58 59 60 61 63 64 65 66 66 67 67 68 69 68 69 69 69 70 70 70 70 70 70
23 22 24 31 36 34 33 33 45 42 42 50 55 55 53 57 58 57 59 57 58 59 60 60 62 62 62 63 63 64 64 65 67 68 68 68 67 67 69 69 69 69 68 66
25 19 19 25 33 38 37 32 42 46 45 53 55 47 47 54 58 59 58 58 58 59 59 59 61 62 62 62 62 62 62 62 64 67 68 67 67 67 68 68 68 66 62 62
29 23 25 29 39 41 31 30 39 48 48 54 52 50 53 57 58 58 59 59 59 59 59 58 59 61 62 62 62 63 62 61 62 64 67 67 66 67 68 66 63 61 60 59
29 27 23 41 44 37 39 44 47 49 50 51 54 56 57 57 57 58 57 58 58 58 59 59 60 62 61 60 62 62 62 61 63 66 65 65 65 64 63 61 59 57 57 55
30 30 37 45 43 46 46 47 50 50 52 54 56 57 58 57 57 56 56 57 57 58 58 58 59 61 61 61 62 61 60 59 59 59 60 60 60 60 59 58 57 56 56 56
39 43 46 48 50 52 52 51 52 51 54 56 55 58 57 57 56 56 55 55 55 57 57 58 59 61 62 61 61 60 59 58 58 56 54 58 59 59 58 57 57 56 55 55
44 49 51 51 53 53 54 54 53 54 54 57 57 57 57 56 56 55 54 54 55 56 57 58 59 60 61 61 61 59 59 59 57 56 55 53 49 52 56 56 57 57 57 57
39 46 44 46 52 55 53 54 55 55 55 56 57 56 56 55 54 54 52 53 55 56 57 59 59 59 60 61 61 60 59 58 57 57 57 56 56 53 47 47 47 47 48 53
41 50 50 53 55 55 52 53 57 57 55 55 56 57 55 54 55 53 52 54 56 56 56 58 58 59 59 61 61 59 59 58 58 57 57 57 57 56 52 48 43 42 43 43
52 52 52 53 53 54 53 55 57 58 57 56 57 57 55 53 52 51 51 55 54 53 53 56 57 56 59 60 60 59 59 56 57 56 55 54 54 53 52 50 46 43 39 39
52 50 50 53 54 53 55 57 57 57 57 57 56 55 53 52 50 51 54 55 53 54 55 54 53 53 55 57 56 56 54 51 51 53 49 46 44 43 41 39 39 39 39 38
51 52 52 50 52 53 55 57 56 55 56 55 55 53 52 52 51 53 54 54 54 55 56 56 55 55 52 52 51 50 50 51 50 48 46 45 44 42 41 41 40 42 42 41
52 51 52 51 51 54 55 56 56 55 55 55 54 52 51 52 52 53 54 55 56 56 54 53 51 53 56 53 53 53 52 53 53 51 49 47 48 46 46 45 45 46 45 45
51 54 53 51 52 54 55 56 55 55 54 54 53 52 52 52 52 52 53 55 56 55 53 51 49 50 54 52 51 51 51 50 52 52 52 52 51 50 50 49 49 49 45 44
43 48 52 54 54 54 56 56 55 54 53 53 52 52 52 52 52 53 54 55 55 55 54 51 52 45 47 49 48 47 46 46 46 45 47 47 47 49 50 50 50 46 45 46
43 46 49 53 55 55 56 56 54 54 52 52 52 52 52 52 53 53 54 55 56 56 55 52 51 47 43 50 47 45 46 43 44 45 44 44 46 47 47 45 46 47 47 47
44 46 52 53 54 56 56 56 54 53 53 53 52 52 52 53 54 55 54 54 56 55 54 53 49 48 45 40 44 44 44 44 45 44 44 45 46 46 46 47 47 46 46 46
45 45 47 50 52 54 55 55 54 54 54 53 53 53 53 53 55 55 56 55 56 52 52 50 48 49 47 48 42 43 45 45 44 44 44 46 46 46 47 47 47 46 46 47
47 46 46 47 48 50 50 54 54 54 54 54 54 53 53 52 54 54 54 56 55 53 51 48 48 51 51 46 46 45 45 45 44 44 44 45 45 46 46 46 46 46 46 47
52 52 51 49 48 50 50 53 54 55 55 55 55 54 54 54 55 56 56 53 52 52 51 47 47 51 50 44 47 46 46 45 45 44 45 43 44 45 45 45 45 45 46 46
54 54 54 53 50 49 50 52 55 55 55 56 56 55 55 55 54 55 55 54 51 52 51 47 48 51 48 45 46 46 46 46 45 45 44 44 44 45 45 45 45 45 45 46
53 55 55 55 55 55 53 53 54 55 55 55 55 56 55 55 56 56 55 52 52 50 50 48 47 50 47 46 46 47 46 45 44 44 44 44 45 46 46 45 45 45 45 45
52 50 53 55 55 55 54 55 55 55 55 56 55 57 56 56 56 55 53 52 52 49 48 46 46 47 45 46 46 46 45 44 43 44 44 44 45 46 46 46 46 46 46 46

GFSNGP_sfc_dewp_141.txt.gz
Dewpoint
24 21 17 22 23 28 25 27 28 27 34 35 48 50 51 55 59 59 60 61 63 64 65 66 67 67 69 69 69 69 69 69 70 71 70 71 71 72 72 72 72 73 73 73
23 19 20 21 24 25 25 26 29 29 32 41 48 54 55 57 59 59 60 61 63 64 64 63 64 66 68 69 70 71 70 69 71 72 71 71 72 72 72 71 72 72 72 72
24 26 25 22 25 29 30 31 29 31 32 47 48 51 52 55 59 60 61 61 62 63 62 63 63 63 64 66 68 68 70 71 71 72 72 72 72 72 71 71 72 72 72 72
29 30 21 25 31 33 34 35 36 35 37 44 46 51 53 53 54 57 60 62 62 62 62 62 63 64 65 66 67 67 68 68 69 70 71 72 72 72 72 71 71 71 71 72
30 26 27 30 35 35 34 33 40 39 40 45 54 55 52 56 57 58 60 62 62 62 62 61 62 62 63 65 65 64 64 64 65 66 68 70 70 71 72 72 71 71 71 73
30 26 25 28 37 38 36 28 37 43 42 48 53 41 43 55 58 60 61 61 61 60 60 60 61 62 62 62 63 63 62 62 63 64 64 65 69 69 70 72 72 72 71 72
29 26 26 31 37 39 30 26 37 44 47 54 52 50 57 59 60 60 61 61 61 60 60 59 60 62 62 63 62 64 63 62 62 62 63 64 66 69 69 69 69 68 64 65
31 32 27 35 41 36 40 44 45 49 52 55 56 57 58 58 58 58 59 59 59 59 60 60 60 63 63 62 64 63 63 61 60 59 63 64 64 68 68 67 64 61 58 58
37 32 43 47 44 48 46 50 50 52 53 54 56 56 57 58 58 58 58 58 58 59 59 60 61 63 63 63 64 64 63 59 58 56 55 59 66 65 65 62 59 58 56 55
39 45 43 46 51 49 51 52 54 53 54 55 57 58 57 58 58 58 58 57 57 58 59 60 61 63 64 64 64 64 61 59 58 56 53 52 53 59 59 59 58 57 56 54
44 48 50 49 51 53 54 53 53 55 56 56 56 56 57 57 57 56 55 55 56 58 59 60 61 62 63 63 63 63 61 60 59 59 57 53 49 47 55 53 57 56 56 55
38 52 51 51 53 55 54 53 54 55 56 57 57 57 57 57 56 55 55 56 57 58 59 59 61 62 63 63 63 62 59 59 60 59 58 57 55 53 47 46 46 46 47 50
46 51 54 54 55 55 55 54 55 55 57 58 58 57 57 56 56 53 54 55 56 57 58 59 60 61 62 63 63 63 60 59 61 59 59 57 56 55 52 49 44 43 43 43
52 54 54 54 54 54 53 56 57 56 58 58 58 58 56 56 54 53 54 54 55 56 58 58 58 59 61 63 63 61 61 55 58 58 57 57 57 54 54 50 48 46 43 42
53 52 51 55 55 54 54 58 57 54 57 56 58 57 57 56 54 54 55 53 55 57 56 56 56 56 59 61 61 61 59 58 57 56 54 52 51 48 48 48 48 44 39 39
53 52 53 53 52 54 55 57 57 56 56 56 58 58 57 55 53 55 54 54 54 53 54 54 55 57 59 59 58 54 52 52 51 48 47 45 42 41 40 40 39 39 40 40
51 52 52 52 52 55 56 57 57 58 58 58 59 58 57 53 54 55 55 54 59 59 56 55 55 57 54 53 50 48 47 47 49 43 42 42 42 42 43 44 45 45 45 46
48 54 53 52 52 54 55 56 57 58 58 59 58 56 55 52 54 56 56 58 59 57 56 55 57 58 56 55 53 52 52 51 49 48 47 48 46 46 47 47 46 46 46 47
45 50 52 54 52 55 56 57 57 58 59 59 58 55 54 53 55 56 56 57 58 58 56 53 50 55 57 56 55 52 51 52 52 52 52 50 50 49 48 49 48 47 47 47
46 47 50 54 56 55 57 58 58 58 58 58 58 56 55 54 55 56 57 57 57 56 58 54 52 50 53 52 50 48 48 47 49 50 50 49 50 51 51 48 49 48 48 47
46 47 47 53 55 57 57 58 58 58 57 57 57 56 55 55 55 56 57 55 59 59 59 55 53 51 46 48 45 45 45 45 46 46 46 46 48 48 49 49 48 48 47 46
49 48 49 53 55 56 57 58 58 58 57 57 56 56 55 56 56 56 57 56 56 55 57 56 54 54 50 47 41 43 45 45 44 45 45 47 48 48 49 48 48 47 47 47
53 50 49 52 55 56 58 58 58 59 58 58 58 57 55 52 53 52 53 57 57 55 57 57 54 52 51 48 44 42 44 46 45 44 46 47 47 48 48 47 47 47 48 48
54 53 52 51 51 53 56 58 57 59 60 60 58 58 56 52 53 53 54 53 53 54 56 56 53 51 51 48 46 45 46 46 47 46 46 44 46 46 46 47 46 47 47 46
57 56 56 53 52 52 55 56 56 57 58 59 59 58 57 56 54 53 54 54 53 54 56 53 51 51 49 47 45 44 48 48 48 48 46 46 44 44 44 44 44 44 44 45
56 58 58 58 55 54 53 53 50 52 54 54 55 56 56 56 55 55 57 55 57 54 57 57 53 51 50 49 47 46 47 47 47 47 46 46 46 46 45 44 44 44 44 44
53 50 53 55 55 56 56 55 54 54 54 54 54 56 56 56 55 55 55 60 59 55 55 56 53 50 49 48 47 45 45 46 44 45 46 46 46 46 45 45 45 44 44 44

GFSNGP_sfc_dewp_144.txt.gz
Dewpoint
24 24 21 22 21 23 23 24 25 25 27 28 32 37 46 52 57 57 60 61 64 65 67 68 68 68 69 69 70 70 70 69 70 72 71 72 72 72 73 73 72 73 74 72
27 23 21 20 21 22 23 23 24 25 26 29 41 43 48 53 56 57 59 60 63 65 65 66 67 69 69 70 71 71 71 70 71 72 72 72 72 73 73 72 73 73 73 73
27 24 23 23 23 22 23 24 25 23 27 37 45 52 53 52 55 57 59 61 62 64 65 66 65 67 68 69 70 70 70 71 72 73 72 73 73 73 73 72 73 74 73 72
26 30 26 26 29 25 24 25 28 29 33 42 43 49 50 50 52 56 57 61 63 63 64 64 64 65 66 67 68 68 68 68 69 69 70 71 73 73 73 73 73 74 73 73
31 28 26 26 29 29 28 28 32 33 37 42 49 48 52 53 53 55 57 61 63 63 64 64 64 64 65 66 67 66 66 67 67 66 66 67 68 70 71 74 74 73 72 73
30 28 27 29 28 31 29 29 34 35 37 40 45 34 44 54 55 57 59 61 62 61 62 62 63 63 64 65 65 64 65 65 65 65 64 64 66 67 69 71 73 72 73 75
32 29 27 29 35 34 30 31 30 35 38 41 43 46 57 57 58 59 60 61 62 62 61 61 62 63 63 63 64 64 64 64 63 62 62 62 63 64 66 70 73 73 73 73
31 30 27 32 37 33 35 39 38 37 43 48 51 57 57 57 58 58 59 59 59 60 61 61 62 63 63 64 64 64 64 64 62 60 59 58 59 66 67 70 72 69 65 64
32 31 45 41 37 39 40 43 46 48 50 52 54 54 55 56 57 57 57 58 58 58 60 61 62 63 63 64 64 64 64 62 60 59 57 56 57 60 65 68 65 62 61 59
38 41 43 41 47 47 45 46 50 48 51 51 53 55 55 55 57 57 58 59 59 59 59 60 61 63 65 64 64 64 62 62 60 58 55 52 51 56 56 60 61 60 58 56
40 48 47 44 47 48 50 52 52 54 54 54 53 54 56 57 58 58 58 58 58 59 59 60 62 63 64 63 63 62 62 61 59 59 57 53 48 47 51 51 55 55 54 55
31 50 50 49 49 53 53 53 54 55 55 55 55 56 57 57 58 58 58 59 60 60 60 61 62 63 63 64 64 62 61 61 58 59 58 56 52 49 46 45 45 44 46 50
45 51 51 50 51 54 54 54 54 54 55 56 57 56 57 57 58 56 58 60 60 60 61 61 61 63 64 64 64 63 61 63 60 59 59 56 54 52 49 48 45 42 41 42
50 54 53 52 53 53 54 54 54 55 57 57 57 57 57 57 56 56 56 59 60 60 60 60 61 63 64 64 64 63 61 55 62 59 59 58 55 53 52 50 49 48 46 43
53 51 51 54 54 54 54 55 54 55 57 56 57 57 57 57 57 57 56 59 60 59 59 58 59 61 63 64 64 63 62 61 60 58 55 53 53 51 52 51 52 51 50 48
51 52 53 53 54 54 54 55 54 55 55 56 57 57 58 58 57 55 56 57 58 57 59 59 58 59 61 63 62 59 57 55 57 53 50 49 51 52 49 48 48 50 50 48
49 49 51 51 51 52 53 55 54 54 55 55 57 58 58 56 56 54 54 54 56 56 55 56 58 61 60 56 51 46 44 46 50 45 42 41 42 42 41 41 42 43 43 44
48 52 53 53 51 53 53 54 54 56 57 56 58 58 58 55 55 54 54 56 57 56 55 57 57 56 54 53 50 48 46 45 44 43 43 44 43 44 44 44 44 44 45 47
46 46 53 52 52 53 53 54 55 56 57 57 58 58 58 55 55 54 55 57 57 57 56 57 56 57 57 56 54 49 48 48 47 46 46 47 45 45 44 44 44 45 44 45
45 46 50 53 53 54 55 55 56 57 57 57 57 57 56 55 55 55 56 57 57 53 58 55 55 57 58 56 55 49 48 48 49 49 49 46 46 46 46 43 43 44 44 44
47 46 47 52 55 56 56 57 57 58 57 57 58 58 56 56 55 56 57 53 58 58 58 56 54 52 54 52 50 46 45 45 46 46 49 48 47 46 47 47 46 45 44 45
47 46 48 47 51 56 56 57 58 58 58 58 58 58 57 56 56 55 56 54 53 55 57 56 55 55 51 52 46 44 44 41 42 41 42 44 46 45 46 47 47 46 45 45
53 50 49 49 52 55 57 57 58 59 60 60 59 59 57 53 53 52 52 57 55 57 56 56 55 55 53 51 48 45 45 45 42 39 39 41 41 43 46 46 47 46 47 47
56 55 54 51 52 55 57 60 58 60 61 61 60 60 58 54 53 53 53 51 52 55 56 55 56 53 51 51 48 45 41 44 46 43 40 41 42 43 45 46 46 46 46 46
57 57 56 54 52 51 56 59 59 59 61 61 61 61 60 57 54 52 53 53 52 54 56 54 53 52 53 52 48 46 43 41 44 47 43 44 43 43 44 45 44 45 45 45
54 52 53 59 55 52 49 50 52 53 53 53 55 56 56 57 56 56 55 54 55 55 55 57 57 55 56 55 51 48 43 41 42 46 45 44 45 44 44 44 43 43 42 41
52 49 51 51 51 55 55 55 52 50 50 51 51 52 54 54 54 54 53 55 56 56 56 55 57 55 56 55 51 48 44 42 41 42 45 44 45 45 44 45 44 43 42 41